<?xml version="1.0" encoding="UTF-8" standalone="no" ?>
<gpx xmlns="http://www.topografix.com/GPX/1/1" xmlns:xsi="http://www.w3.org/2001/XMLSchema-instance" xsi:schemaLocation="http://www.topografix.com/GPX/1/1 http://www.topografix.com/GPX/1/1/gpx.xsd" version="1.1" creator="VisuGPX - https://www.visugpx.com">
  <metadata>
    <name>15km Seyssuel</name>
  </metadata>
  <trk>
    <name><![CDATA[20210314_093910.gpx]]></name>
    <trkseg>
      <trkpt lat="45.56061" lon="4.84283">
        <ele>298.8</ele>
        <time>2021-03-14T08:39:11Z</time>
      </trkpt>
      <trkpt lat="45.56056" lon="4.84288">
        <ele>299</ele>
        <time>2021-03-14T08:39:14Z</time>
      </trkpt>
      <trkpt lat="45.56062" lon="4.84286">
        <ele>298.8</ele>
        <time>2021-03-14T08:39:15Z</time>
      </trkpt>
      <trkpt lat="45.5607" lon="4.84287">
        <ele>298.5</ele>
        <time>2021-03-14T08:39:17Z</time>
      </trkpt>
      <trkpt lat="45.56074" lon="4.84287">
        <ele>298.3</ele>
        <time>2021-03-14T08:39:18Z</time>
      </trkpt>
      <trkpt lat="45.56081" lon="4.84288">
        <ele>236.012</ele>
        <time>2021-03-14T08:39:20Z</time>
      </trkpt>
      <trkpt lat="45.56083" lon="4.84288">
        <ele>236.20752</ele>
        <time>2021-03-14T08:39:21Z</time>
      </trkpt>
      <trkpt lat="45.56086" lon="4.84288">
        <ele>236.10182</ele>
        <time>2021-03-14T08:39:22Z</time>
      </trkpt>
      <trkpt lat="45.56092" lon="4.84288">
        <ele>235.65793</ele>
        <time>2021-03-14T08:39:24Z</time>
      </trkpt>
      <trkpt lat="45.56096" lon="4.84287">
        <ele>234.96564</ele>
        <time>2021-03-14T08:39:26Z</time>
      </trkpt>
      <trkpt lat="45.56101" lon="4.84286">
        <ele>235.05548</ele>
        <time>2021-03-14T08:39:28Z</time>
      </trkpt>
      <trkpt lat="45.56107" lon="4.84285">
        <ele>235.51524</ele>
        <time>2021-03-14T08:39:30Z</time>
      </trkpt>
      <trkpt lat="45.5611" lon="4.84279">
        <ele>235.35669</ele>
        <time>2021-03-14T08:39:32Z</time>
      </trkpt>
      <trkpt lat="45.56112" lon="4.84271">
        <ele>235.88516</ele>
        <time>2021-03-14T08:39:34Z</time>
      </trkpt>
      <trkpt lat="45.56115" lon="4.84263">
        <ele>236.0384</ele>
        <time>2021-03-14T08:39:36Z</time>
      </trkpt>
      <trkpt lat="45.56117" lon="4.84255">
        <ele>236.07011</ele>
        <time>2021-03-14T08:39:38Z</time>
      </trkpt>
      <trkpt lat="45.56119" lon="4.84247">
        <ele>236.38191</ele>
        <time>2021-03-14T08:39:40Z</time>
      </trkpt>
      <trkpt lat="45.5612" lon="4.84243">
        <ele>236.26566</ele>
        <time>2021-03-14T08:39:41Z</time>
      </trkpt>
      <trkpt lat="45.56123" lon="4.84235">
        <ele>235.57336</ele>
        <time>2021-03-14T08:39:43Z</time>
      </trkpt>
      <trkpt lat="45.56125" lon="4.84227">
        <ele>235.8376</ele>
        <time>2021-03-14T08:39:45Z</time>
      </trkpt>
      <trkpt lat="45.56128" lon="4.84219">
        <ele>236.30264</ele>
        <time>2021-03-14T08:39:47Z</time>
      </trkpt>
      <trkpt lat="45.56131" lon="4.84211">
        <ele>236.5563</ele>
        <time>2021-03-14T08:39:49Z</time>
      </trkpt>
      <trkpt lat="45.56131" lon="4.84208">
        <ele>235.65793</ele>
        <time>2021-03-14T08:39:50Z</time>
      </trkpt>
      <trkpt lat="45.56134" lon="4.842">
        <ele>236.1811</ele>
        <time>2021-03-14T08:39:52Z</time>
      </trkpt>
      <trkpt lat="45.56136" lon="4.84192">
        <ele>236.7624</ele>
        <time>2021-03-14T08:39:54Z</time>
      </trkpt>
      <trkpt lat="45.56137" lon="4.84189">
        <ele>237.0425</ele>
        <time>2021-03-14T08:39:55Z</time>
      </trkpt>
      <trkpt lat="45.56138" lon="4.84185">
        <ele>236.75185</ele>
        <time>2021-03-14T08:39:56Z</time>
      </trkpt>
      <trkpt lat="45.5614" lon="4.84178">
        <ele>236.83112</ele>
        <time>2021-03-14T08:39:58Z</time>
      </trkpt>
      <trkpt lat="45.56142" lon="4.84171">
        <ele>236.5563</ele>
        <time>2021-03-14T08:40:00Z</time>
      </trkpt>
      <trkpt lat="45.56143" lon="4.84166">
        <ele>236.29208</ele>
        <time>2021-03-14T08:40:01Z</time>
      </trkpt>
      <trkpt lat="45.56145" lon="4.84158">
        <ele>236.5563</ele>
        <time>2021-03-14T08:40:03Z</time>
      </trkpt>
      <trkpt lat="45.56146" lon="4.8415">
        <ele>236.86282</ele>
        <time>2021-03-14T08:40:05Z</time>
      </trkpt>
      <trkpt lat="45.56146" lon="4.84141">
        <ele>236.26566</ele>
        <time>2021-03-14T08:40:07Z</time>
      </trkpt>
      <trkpt lat="45.56147" lon="4.84133">
        <ele>236.89981</ele>
        <time>2021-03-14T08:40:09Z</time>
      </trkpt>
      <trkpt lat="45.56147" lon="4.84125">
        <ele>236.3502</ele>
        <time>2021-03-14T08:40:11Z</time>
      </trkpt>
      <trkpt lat="45.56147" lon="4.84116">
        <ele>236.09126</ele>
        <time>2021-03-14T08:40:13Z</time>
      </trkpt>
      <trkpt lat="45.56148" lon="4.84109">
        <ele>236.20752</ele>
        <time>2021-03-14T08:40:15Z</time>
      </trkpt>
      <trkpt lat="45.56149" lon="4.84102">
        <ele>235.12418</ele>
        <time>2021-03-14T08:40:17Z</time>
      </trkpt>
      <trkpt lat="45.5615" lon="4.84095">
        <ele>235.54166</ele>
        <time>2021-03-14T08:40:19Z</time>
      </trkpt>
      <trkpt lat="45.56151" lon="4.84087">
        <ele>235.39897</ele>
        <time>2021-03-14T08:40:21Z</time>
      </trkpt>
      <trkpt lat="45.56152" lon="4.84079">
        <ele>234.82295</ele>
        <time>2021-03-14T08:40:23Z</time>
      </trkpt>
      <trkpt lat="45.56153" lon="4.84071">
        <ele>234.65912</ele>
        <time>2021-03-14T08:40:25Z</time>
      </trkpt>
      <trkpt lat="45.56154" lon="4.84063">
        <ele>234.30505</ele>
        <time>2021-03-14T08:40:27Z</time>
      </trkpt>
      <trkpt lat="45.56154" lon="4.84055">
        <ele>234.05139</ele>
        <time>2021-03-14T08:40:29Z</time>
      </trkpt>
      <trkpt lat="45.56155" lon="4.84047">
        <ele>234.42133</ele>
        <time>2021-03-14T08:40:31Z</time>
      </trkpt>
      <trkpt lat="45.56155" lon="4.84039">
        <ele>233.74487</ele>
        <time>2021-03-14T08:40:33Z</time>
      </trkpt>
      <trkpt lat="45.56157" lon="4.84031">
        <ele>233.27455</ele>
        <time>2021-03-14T08:40:35Z</time>
      </trkpt>
      <trkpt lat="45.56159" lon="4.84024">
        <ele>233.7713</ele>
        <time>2021-03-14T08:40:37Z</time>
      </trkpt>
      <trkpt lat="45.56161" lon="4.84017">
        <ele>233.47537</ele>
        <time>2021-03-14T08:40:39Z</time>
      </trkpt>
      <trkpt lat="45.56163" lon="4.84009">
        <ele>232.99446</ele>
        <time>2021-03-14T08:40:41Z</time>
      </trkpt>
      <trkpt lat="45.56165" lon="4.84001">
        <ele>232.87292</ele>
        <time>2021-03-14T08:40:43Z</time>
      </trkpt>
      <trkpt lat="45.56167" lon="4.83993">
        <ele>231.75258</ele>
        <time>2021-03-14T08:40:45Z</time>
      </trkpt>
      <trkpt lat="45.5617" lon="4.83985">
        <ele>231.52533</ele>
        <time>2021-03-14T08:40:47Z</time>
      </trkpt>
      <trkpt lat="45.56172" lon="4.83976">
        <ele>231.62573</ele>
        <time>2021-03-14T08:40:49Z</time>
      </trkpt>
      <trkpt lat="45.56174" lon="4.83967">
        <ele>230.9863</ele>
        <time>2021-03-14T08:40:51Z</time>
      </trkpt>
      <trkpt lat="45.56176" lon="4.8396">
        <ele>231.82655</ele>
        <time>2021-03-14T08:40:53Z</time>
      </trkpt>
      <trkpt lat="45.56179" lon="4.83953">
        <ele>230.9863</ele>
        <time>2021-03-14T08:40:55Z</time>
      </trkpt>
      <trkpt lat="45.56182" lon="4.83945">
        <ele>230.58467</ele>
        <time>2021-03-14T08:40:57Z</time>
      </trkpt>
      <trkpt lat="45.56186" lon="4.83939">
        <ele>230.5741</ele>
        <time>2021-03-14T08:40:59Z</time>
      </trkpt>
      <trkpt lat="45.56189" lon="4.83931">
        <ele>230.4684</ele>
        <time>2021-03-14T08:41:01Z</time>
      </trkpt>
      <trkpt lat="45.56192" lon="4.83923">
        <ele>229.86067</ele>
        <time>2021-03-14T08:41:03Z</time>
      </trkpt>
      <trkpt lat="45.56194" lon="4.83917">
        <ele>230.33629</ele>
        <time>2021-03-14T08:41:05Z</time>
      </trkpt>
      <trkpt lat="45.56197" lon="4.8391">
        <ele>230.02979</ele>
        <time>2021-03-14T08:41:07Z</time>
      </trkpt>
      <trkpt lat="45.562" lon="4.83904">
        <ele>229.91881</ele>
        <time>2021-03-14T08:41:09Z</time>
      </trkpt>
      <trkpt lat="45.56202" lon="4.83896">
        <ele>229.89238</ele>
        <time>2021-03-14T08:41:11Z</time>
      </trkpt>
      <trkpt lat="45.56204" lon="4.83888">
        <ele>228.6822</ele>
        <time>2021-03-14T08:41:13Z</time>
      </trkpt>
      <trkpt lat="45.56207" lon="4.83879">
        <ele>229.87653</ele>
        <time>2021-03-14T08:41:15Z</time>
      </trkpt>
      <trkpt lat="45.56209" lon="4.83872">
        <ele>229.51717</ele>
        <time>2021-03-14T08:41:17Z</time>
      </trkpt>
      <trkpt lat="45.56211" lon="4.83864">
        <ele>229.0574</ele>
        <time>2021-03-14T08:41:19Z</time>
      </trkpt>
      <trkpt lat="45.56213" lon="4.83858">
        <ele>229.27937</ele>
        <time>2021-03-14T08:41:21Z</time>
      </trkpt>
      <trkpt lat="45.56215" lon="4.83851">
        <ele>229.21066</ele>
        <time>2021-03-14T08:41:23Z</time>
      </trkpt>
      <trkpt lat="45.56218" lon="4.83844">
        <ele>229.03627</ele>
        <time>2021-03-14T08:41:25Z</time>
      </trkpt>
      <trkpt lat="45.56219" lon="4.83836">
        <ele>228.55008</ele>
        <time>2021-03-14T08:41:28Z</time>
      </trkpt>
      <trkpt lat="45.56215" lon="4.83831">
        <ele>228.35454</ele>
        <time>2021-03-14T08:41:30Z</time>
      </trkpt>
      <trkpt lat="45.5621" lon="4.83829">
        <ele>228.19601</ele>
        <time>2021-03-14T08:41:32Z</time>
      </trkpt>
      <trkpt lat="45.56204" lon="4.83827">
        <ele>228.02162</ele>
        <time>2021-03-14T08:41:34Z</time>
      </trkpt>
      <trkpt lat="45.56199" lon="4.83825">
        <ele>228.1273</ele>
        <time>2021-03-14T08:41:36Z</time>
      </trkpt>
      <trkpt lat="45.56194" lon="4.83823">
        <ele>227.89478</ele>
        <time>2021-03-14T08:41:38Z</time>
      </trkpt>
      <trkpt lat="45.56188" lon="4.83821">
        <ele>228.38625</ele>
        <time>2021-03-14T08:41:40Z</time>
      </trkpt>
      <trkpt lat="45.56183" lon="4.83819">
        <ele>228.3704</ele>
        <time>2021-03-14T08:41:42Z</time>
      </trkpt>
      <trkpt lat="45.56177" lon="4.83817">
        <ele>227.68867</ele>
        <time>2021-03-14T08:41:44Z</time>
      </trkpt>
      <trkpt lat="45.56171" lon="4.83815">
        <ele>228.39153</ele>
        <time>2021-03-14T08:41:46Z</time>
      </trkpt>
      <trkpt lat="45.56166" lon="4.83812">
        <ele>228.71391</ele>
        <time>2021-03-14T08:41:48Z</time>
      </trkpt>
      <trkpt lat="45.56161" lon="4.83809">
        <ele>228.44438</ele>
        <time>2021-03-14T08:41:50Z</time>
      </trkpt>
      <trkpt lat="45.56157" lon="4.83806">
        <ele>228.76675</ele>
        <time>2021-03-14T08:41:52Z</time>
      </trkpt>
      <trkpt lat="45.56152" lon="4.83803">
        <ele>229.0204</ele>
        <time>2021-03-14T08:41:54Z</time>
      </trkpt>
      <trkpt lat="45.56148" lon="4.838">
        <ele>228.74033</ele>
        <time>2021-03-14T08:41:56Z</time>
      </trkpt>
      <trkpt lat="45.56143" lon="4.83798">
        <ele>228.90414</ele>
        <time>2021-03-14T08:41:58Z</time>
      </trkpt>
      <trkpt lat="45.56136" lon="4.83794">
        <ele>229.09969</ele>
        <time>2021-03-14T08:42:01Z</time>
      </trkpt>
      <trkpt lat="45.56131" lon="4.83792">
        <ele>227.75737</ele>
        <time>2021-03-14T08:42:03Z</time>
      </trkpt>
      <trkpt lat="45.56125" lon="4.8379">
        <ele>228.31227</ele>
        <time>2021-03-14T08:42:05Z</time>
      </trkpt>
      <trkpt lat="45.5612" lon="4.83787">
        <ele>228.233</ele>
        <time>2021-03-14T08:42:07Z</time>
      </trkpt>
      <trkpt lat="45.56116" lon="4.83784">
        <ele>227.90536</ele>
        <time>2021-03-14T08:42:09Z</time>
      </trkpt>
      <trkpt lat="45.56111" lon="4.83781">
        <ele>228.14845</ele>
        <time>2021-03-14T08:42:11Z</time>
      </trkpt>
      <trkpt lat="45.56106" lon="4.83778">
        <ele>227.79967</ele>
        <time>2021-03-14T08:42:13Z</time>
      </trkpt>
      <trkpt lat="45.56102" lon="4.83776">
        <ele>227.03867</ele>
        <time>2021-03-14T08:42:15Z</time>
      </trkpt>
      <trkpt lat="45.56096" lon="4.83773">
        <ele>226.83257</ele>
        <time>2021-03-14T08:42:17Z</time>
      </trkpt>
      <trkpt lat="45.56091" lon="4.83771">
        <ele>226.5472</ele>
        <time>2021-03-14T08:42:19Z</time>
      </trkpt>
      <trkpt lat="45.56086" lon="4.83769">
        <ele>227.28177</ele>
        <time>2021-03-14T08:42:21Z</time>
      </trkpt>
      <trkpt lat="45.5608" lon="4.83766">
        <ele>226.85371</ele>
        <time>2021-03-14T08:42:23Z</time>
      </trkpt>
      <trkpt lat="45.56075" lon="4.83764">
        <ele>226.859</ele>
        <time>2021-03-14T08:42:25Z</time>
      </trkpt>
      <trkpt lat="45.5607" lon="4.83762">
        <ele>226.57362</ele>
        <time>2021-03-14T08:42:27Z</time>
      </trkpt>
      <trkpt lat="45.56065" lon="4.8376">
        <ele>227.21835</ele>
        <time>2021-03-14T08:42:30Z</time>
      </trkpt>
      <trkpt lat="45.56059" lon="4.83758">
        <ele>226.74274</ele>
        <time>2021-03-14T08:42:32Z</time>
      </trkpt>
      <trkpt lat="45.56054" lon="4.83755">
        <ele>226.67932</ele>
        <time>2021-03-14T08:42:34Z</time>
      </trkpt>
      <trkpt lat="45.56048" lon="4.83752">
        <ele>226.58948</ele>
        <time>2021-03-14T08:42:36Z</time>
      </trkpt>
      <trkpt lat="45.56042" lon="4.83748">
        <ele>226.01346</ele>
        <time>2021-03-14T08:42:39Z</time>
      </trkpt>
      <trkpt lat="45.56037" lon="4.83745">
        <ele>225.88133</ele>
        <time>2021-03-14T08:42:41Z</time>
      </trkpt>
      <trkpt lat="45.5603" lon="4.8374">
        <ele>225.98703</ele>
        <time>2021-03-14T08:42:43Z</time>
      </trkpt>
      <trkpt lat="45.56025" lon="4.83735">
        <ele>225.80736</ele>
        <time>2021-03-14T08:42:45Z</time>
      </trkpt>
      <trkpt lat="45.5602" lon="4.83732">
        <ele>225.78093</ele>
        <time>2021-03-14T08:42:47Z</time>
      </trkpt>
      <trkpt lat="45.56015" lon="4.83729">
        <ele>225.6911</ele>
        <time>2021-03-14T08:42:49Z</time>
      </trkpt>
      <trkpt lat="45.56009" lon="4.83725">
        <ele>225.38986</ele>
        <time>2021-03-14T08:42:51Z</time>
      </trkpt>
      <trkpt lat="45.56003" lon="4.83721">
        <ele>225.80206</ele>
        <time>2021-03-14T08:42:53Z</time>
      </trkpt>
      <trkpt lat="45.55998" lon="4.83717">
        <ele>226.06628</ele>
        <time>2021-03-14T08:42:55Z</time>
      </trkpt>
      <trkpt lat="45.55993" lon="4.83714">
        <ele>225.25246</ele>
        <time>2021-03-14T08:42:57Z</time>
      </trkpt>
      <trkpt lat="45.55988" lon="4.8371">
        <ele>224.96709</ele>
        <time>2021-03-14T08:42:59Z</time>
      </trkpt>
      <trkpt lat="45.55983" lon="4.83706">
        <ele>224.95125</ele>
        <time>2021-03-14T08:43:01Z</time>
      </trkpt>
      <trkpt lat="45.55978" lon="4.837">
        <ele>224.58131</ele>
        <time>2021-03-14T08:43:03Z</time>
      </trkpt>
      <trkpt lat="45.55973" lon="4.83696">
        <ele>224.38051</ele>
        <time>2021-03-14T08:43:05Z</time>
      </trkpt>
      <trkpt lat="45.55968" lon="4.83692">
        <ele>224.05812</ele>
        <time>2021-03-14T08:43:07Z</time>
      </trkpt>
      <trkpt lat="45.55964" lon="4.83688">
        <ele>223.73048</ele>
        <time>2021-03-14T08:43:09Z</time>
      </trkpt>
      <trkpt lat="45.5596" lon="4.83684">
        <ele>223.75691</ele>
        <time>2021-03-14T08:43:11Z</time>
      </trkpt>
      <trkpt lat="45.55954" lon="4.83677">
        <ele>223.01178</ele>
        <time>2021-03-14T08:43:14Z</time>
      </trkpt>
      <trkpt lat="45.5595" lon="4.83674">
        <ele>223.23373</ele>
        <time>2021-03-14T08:43:16Z</time>
      </trkpt>
      <trkpt lat="45.55945" lon="4.83669">
        <ele>223.02763</ele>
        <time>2021-03-14T08:43:18Z</time>
      </trkpt>
      <trkpt lat="45.55941" lon="4.83666">
        <ele>222.02884</ele>
        <time>2021-03-14T08:43:20Z</time>
      </trkpt>
      <trkpt lat="45.55937" lon="4.83662">
        <ele>221.53737</ele>
        <time>2021-03-14T08:43:22Z</time>
      </trkpt>
      <trkpt lat="45.55933" lon="4.83658">
        <ele>221.50566</ele>
        <time>2021-03-14T08:43:24Z</time>
      </trkpt>
      <trkpt lat="45.55928" lon="4.83652">
        <ele>220.53328</ele>
        <time>2021-03-14T08:43:27Z</time>
      </trkpt>
      <trkpt lat="45.55924" lon="4.83648">
        <ele>219.87799</ele>
        <time>2021-03-14T08:43:29Z</time>
      </trkpt>
      <trkpt lat="45.5592" lon="4.83643">
        <ele>219.55563</ele>
        <time>2021-03-14T08:43:31Z</time>
      </trkpt>
      <trkpt lat="45.55916" lon="4.83639">
        <ele>219.66132</ele>
        <time>2021-03-14T08:43:33Z</time>
      </trkpt>
      <trkpt lat="45.55911" lon="4.83634">
        <ele>219.49222</ele>
        <time>2021-03-14T08:43:35Z</time>
      </trkpt>
      <trkpt lat="45.55905" lon="4.8363">
        <ele>219.32838</ele>
        <time>2021-03-14T08:43:37Z</time>
      </trkpt>
      <trkpt lat="45.55901" lon="4.83627">
        <ele>218.81049</ele>
        <time>2021-03-14T08:43:39Z</time>
      </trkpt>
      <trkpt lat="45.55896" lon="4.83623">
        <ele>217.9121</ele>
        <time>2021-03-14T08:43:41Z</time>
      </trkpt>
      <trkpt lat="45.55891" lon="4.83619">
        <ele>217.86455</ele>
        <time>2021-03-14T08:43:43Z</time>
      </trkpt>
      <trkpt lat="45.55885" lon="4.83615">
        <ele>217.66373</ele>
        <time>2021-03-14T08:43:45Z</time>
      </trkpt>
      <trkpt lat="45.5588" lon="4.83611">
        <ele>217.09299</ele>
        <time>2021-03-14T08:43:47Z</time>
      </trkpt>
      <trkpt lat="45.55876" lon="4.83607">
        <ele>216.25801</ele>
        <time>2021-03-14T08:43:49Z</time>
      </trkpt>
      <trkpt lat="45.55871" lon="4.83603">
        <ele>215.63971</ele>
        <time>2021-03-14T08:43:51Z</time>
      </trkpt>
      <trkpt lat="45.55867" lon="4.83599">
        <ele>215.32791</ele>
        <time>2021-03-14T08:43:53Z</time>
      </trkpt>
      <trkpt lat="45.55862" lon="4.83594">
        <ele>214.85757</ele>
        <time>2021-03-14T08:43:55Z</time>
      </trkpt>
      <trkpt lat="45.55857" lon="4.8359">
        <ele>214.5405</ele>
        <time>2021-03-14T08:43:57Z</time>
      </trkpt>
      <trkpt lat="45.55852" lon="4.83585">
        <ele>213.91692</ele>
        <time>2021-03-14T08:43:59Z</time>
      </trkpt>
      <trkpt lat="45.55847" lon="4.8358">
        <ele>212.86528</ele>
        <time>2021-03-14T08:44:01Z</time>
      </trkpt>
      <trkpt lat="45.55844" lon="4.83575">
        <ele>213.14536</ele>
        <time>2021-03-14T08:44:03Z</time>
      </trkpt>
      <trkpt lat="45.55844" lon="4.83567">
        <ele>213.00267</ele>
        <time>2021-03-14T08:44:07Z</time>
      </trkpt>
      <trkpt lat="45.55847" lon="4.83559">
        <ele>212.89171</ele>
        <time>2021-03-14T08:44:09Z</time>
      </trkpt>
      <trkpt lat="45.55851" lon="4.83552">
        <ele>212.29982</ele>
        <time>2021-03-14T08:44:11Z</time>
      </trkpt>
      <trkpt lat="45.55855" lon="4.83544">
        <ele>212.2364</ele>
        <time>2021-03-14T08:44:13Z</time>
      </trkpt>
      <trkpt lat="45.55858" lon="4.83538">
        <ele>212.24696</ele>
        <time>2021-03-14T08:44:14Z</time>
      </trkpt>
      <trkpt lat="45.55863" lon="4.83529">
        <ele>212.39493</ele>
        <time>2021-03-14T08:44:16Z</time>
      </trkpt>
      <trkpt lat="45.55867" lon="4.83521">
        <ele>212.57991</ele>
        <time>2021-03-14T08:44:18Z</time>
      </trkpt>
      <trkpt lat="45.55871" lon="4.83512">
        <ele>212.93398</ele>
        <time>2021-03-14T08:44:20Z</time>
      </trkpt>
      <trkpt lat="45.55874" lon="4.83506">
        <ele>213.20879</ele>
        <time>2021-03-14T08:44:22Z</time>
      </trkpt>
      <trkpt lat="45.55876" lon="4.835">
        <ele>213.42017</ele>
        <time>2021-03-14T08:44:24Z</time>
      </trkpt>
      <trkpt lat="45.5588" lon="4.83492">
        <ele>214.10716</ele>
        <time>2021-03-14T08:44:27Z</time>
      </trkpt>
      <trkpt lat="45.55882" lon="4.83485">
        <ele>213.04495</ele>
        <time>2021-03-14T08:44:29Z</time>
      </trkpt>
      <trkpt lat="45.55885" lon="4.83475">
        <ele>211.79776</ele>
        <time>2021-03-14T08:44:31Z</time>
      </trkpt>
      <trkpt lat="45.55887" lon="4.83467">
        <ele>210.8624</ele>
        <time>2021-03-14T08:44:33Z</time>
      </trkpt>
      <trkpt lat="45.55888" lon="4.83455">
        <ele>209.8636</ele>
        <time>2021-03-14T08:44:35Z</time>
      </trkpt>
      <trkpt lat="45.55891" lon="4.83445">
        <ele>209.88474</ele>
        <time>2021-03-14T08:44:37Z</time>
      </trkpt>
      <trkpt lat="45.55893" lon="4.83437">
        <ele>209.17659</ele>
        <time>2021-03-14T08:44:39Z</time>
      </trkpt>
      <trkpt lat="45.55895" lon="4.8343">
        <ele>207.6599</ele>
        <time>2021-03-14T08:44:41Z</time>
      </trkpt>
      <trkpt lat="45.55896" lon="4.83423">
        <ele>207.40623</ele>
        <time>2021-03-14T08:44:43Z</time>
      </trkpt>
      <trkpt lat="45.55896" lon="4.83413">
        <ele>206.23306</ele>
        <time>2021-03-14T08:44:46Z</time>
      </trkpt>
      <trkpt lat="45.55896" lon="4.83406">
        <ele>205.86313</ele>
        <time>2021-03-14T08:44:48Z</time>
      </trkpt>
      <trkpt lat="45.55896" lon="4.83397">
        <ele>205.49321</ele>
        <time>2021-03-14T08:44:50Z</time>
      </trkpt>
      <trkpt lat="45.55895" lon="4.83389">
        <ele>205.47206</ele>
        <time>2021-03-14T08:44:52Z</time>
      </trkpt>
      <trkpt lat="45.55894" lon="4.83379">
        <ele>204.44684</ele>
        <time>2021-03-14T08:44:54Z</time>
      </trkpt>
      <trkpt lat="45.55892" lon="4.8337">
        <ele>203.93422</ele>
        <time>2021-03-14T08:44:56Z</time>
      </trkpt>
      <trkpt lat="45.5589" lon="4.83361">
        <ele>203.16266</ele>
        <time>2021-03-14T08:44:58Z</time>
      </trkpt>
      <trkpt lat="45.5589" lon="4.83353">
        <ele>202.98299</ele>
        <time>2021-03-14T08:45:00Z</time>
      </trkpt>
      <trkpt lat="45.55891" lon="4.83345">
        <ele>202.08461</ele>
        <time>2021-03-14T08:45:02Z</time>
      </trkpt>
      <trkpt lat="45.55893" lon="4.83337">
        <ele>201.11751</ele>
        <time>2021-03-14T08:45:04Z</time>
      </trkpt>
      <trkpt lat="45.55895" lon="4.83329">
        <ele>200.05002</ele>
        <time>2021-03-14T08:45:06Z</time>
      </trkpt>
      <trkpt lat="45.55897" lon="4.8332">
        <ele>198.80286</ele>
        <time>2021-03-14T08:45:08Z</time>
      </trkpt>
      <trkpt lat="45.559" lon="4.8331">
        <ele>197.50282</ele>
        <time>2021-03-14T08:45:10Z</time>
      </trkpt>
      <trkpt lat="45.55903" lon="4.83301">
        <ele>196.01785</ele>
        <time>2021-03-14T08:45:12Z</time>
      </trkpt>
      <trkpt lat="45.55906" lon="4.83294">
        <ele>195.02432</ele>
        <time>2021-03-14T08:45:14Z</time>
      </trkpt>
      <trkpt lat="45.55908" lon="4.83287">
        <ele>194.43245</ele>
        <time>2021-03-14T08:45:16Z</time>
      </trkpt>
      <trkpt lat="45.55912" lon="4.83284">
        <ele>193.43893</ele>
        <time>2021-03-14T08:45:18Z</time>
      </trkpt>
      <trkpt lat="45.55918" lon="4.83284">
        <ele>193.13771</ele>
        <time>2021-03-14T08:45:20Z</time>
      </trkpt>
      <trkpt lat="45.55924" lon="4.83278">
        <ele>190.75433</ele>
        <time>2021-03-14T08:45:23Z</time>
      </trkpt>
      <trkpt lat="45.55928" lon="4.83274">
        <ele>188.03804</ele>
        <time>2021-03-14T08:45:25Z</time>
      </trkpt>
      <trkpt lat="45.55933" lon="4.83269">
        <ele>187.29819</ele>
        <time>2021-03-14T08:45:27Z</time>
      </trkpt>
      <trkpt lat="45.55941" lon="4.83267">
        <ele>185.95589</ele>
        <time>2021-03-14T08:45:29Z</time>
      </trkpt>
      <trkpt lat="45.55948" lon="4.83268">
        <ele>185.79733</ele>
        <time>2021-03-14T08:45:31Z</time>
      </trkpt>
      <trkpt lat="45.55955" lon="4.83268">
        <ele>186.69046</ele>
        <time>2021-03-14T08:45:33Z</time>
      </trkpt>
      <trkpt lat="45.5596" lon="4.83269">
        <ele>187.40387</ele>
        <time>2021-03-14T08:45:35Z</time>
      </trkpt>
      <trkpt lat="45.55965" lon="4.83271">
        <ele>187.9429</ele>
        <time>2021-03-14T08:45:37Z</time>
      </trkpt>
      <trkpt lat="45.5597" lon="4.83273">
        <ele>188.5665</ele>
        <time>2021-03-14T08:45:39Z</time>
      </trkpt>
      <trkpt lat="45.55975" lon="4.83275">
        <ele>190.0092</ele>
        <time>2021-03-14T08:45:42Z</time>
      </trkpt>
      <trkpt lat="45.5598" lon="4.83274">
        <ele>191.38849</ele>
        <time>2021-03-14T08:45:45Z</time>
      </trkpt>
      <trkpt lat="45.55985" lon="4.83275">
        <ele>193.0056</ele>
        <time>2021-03-14T08:45:49Z</time>
      </trkpt>
      <trkpt lat="45.55992" lon="4.83274">
        <ele>195.15645</ele>
        <time>2021-03-14T08:45:53Z</time>
      </trkpt>
      <trkpt lat="45.55995" lon="4.83269">
        <ele>198.08414</ele>
        <time>2021-03-14T08:46:01Z</time>
      </trkpt>
      <trkpt lat="45.55997" lon="4.83261">
        <ele>199.76465</ele>
        <time>2021-03-14T08:46:05Z</time>
      </trkpt>
      <trkpt lat="45.55997" lon="4.83254">
        <ele>201.18092</ele>
        <time>2021-03-14T08:46:08Z</time>
      </trkpt>
      <trkpt lat="45.55998" lon="4.83246">
        <ele>201.74638</ele>
        <time>2021-03-14T08:46:11Z</time>
      </trkpt>
      <trkpt lat="45.55998" lon="4.83239">
        <ele>201.1968</ele>
        <time>2021-03-14T08:46:13Z</time>
      </trkpt>
      <trkpt lat="45.55998" lon="4.83231">
        <ele>201.0171</ele>
        <time>2021-03-14T08:46:15Z</time>
      </trkpt>
      <trkpt lat="45.55998" lon="4.83222">
        <ele>200.03418</ele>
        <time>2021-03-14T08:46:17Z</time>
      </trkpt>
      <trkpt lat="45.55996" lon="4.83215">
        <ele>198.84512</ele>
        <time>2021-03-14T08:46:19Z</time>
      </trkpt>
      <trkpt lat="45.55993" lon="4.83208">
        <ele>197.04306</ele>
        <time>2021-03-14T08:46:22Z</time>
      </trkpt>
      <trkpt lat="45.5599" lon="4.83201">
        <ele>195.62677</ele>
        <time>2021-03-14T08:46:25Z</time>
      </trkpt>
      <trkpt lat="45.55989" lon="4.83194">
        <ele>193.47592</ele>
        <time>2021-03-14T08:46:30Z</time>
      </trkpt>
      <trkpt lat="45.55991" lon="4.83188">
        <ele>191.31451</ele>
        <time>2021-03-14T08:46:35Z</time>
      </trkpt>
      <trkpt lat="45.5599" lon="4.8318">
        <ele>188.80959</ele>
        <time>2021-03-14T08:46:41Z</time>
      </trkpt>
      <trkpt lat="45.55991" lon="4.83172">
        <ele>187.24535</ele>
        <time>2021-03-14T08:46:44Z</time>
      </trkpt>
      <trkpt lat="45.55988" lon="4.83165">
        <ele>186.04573</ele>
        <time>2021-03-14T08:46:47Z</time>
      </trkpt>
      <trkpt lat="45.55985" lon="4.8316">
        <ele>185.32701</ele>
        <time>2021-03-14T08:46:49Z</time>
      </trkpt>
      <trkpt lat="45.55981" lon="4.83154">
        <ele>184.82498</ele>
        <time>2021-03-14T08:46:51Z</time>
      </trkpt>
      <trkpt lat="45.55977" lon="4.8315">
        <ele>184.65587</ele>
        <time>2021-03-14T08:46:53Z</time>
      </trkpt>
      <trkpt lat="45.55976" lon="4.83141">
        <ele>186.0193</ele>
        <time>2021-03-14T08:46:56Z</time>
      </trkpt>
      <trkpt lat="45.55977" lon="4.83135">
        <ele>187.02866</ele>
        <time>2021-03-14T08:46:58Z</time>
      </trkpt>
      <trkpt lat="45.55981" lon="4.83127">
        <ele>187.8742</ele>
        <time>2021-03-14T08:47:01Z</time>
      </trkpt>
      <trkpt lat="45.55985" lon="4.83122">
        <ele>187.65225</ele>
        <time>2021-03-14T08:47:03Z</time>
      </trkpt>
      <trkpt lat="45.55987" lon="4.83116">
        <ele>187.99576</ele>
        <time>2021-03-14T08:47:05Z</time>
      </trkpt>
      <trkpt lat="45.5599" lon="4.83107">
        <ele>188.62991</ele>
        <time>2021-03-14T08:47:08Z</time>
      </trkpt>
      <trkpt lat="45.55991" lon="4.83098">
        <ele>189.48074</ele>
        <time>2021-03-14T08:47:11Z</time>
      </trkpt>
      <trkpt lat="45.55992" lon="4.83091">
        <ele>189.87709</ele>
        <time>2021-03-14T08:47:13Z</time>
      </trkpt>
      <trkpt lat="45.55992" lon="4.83085">
        <ele>190.82304</ele>
        <time>2021-03-14T08:47:15Z</time>
      </trkpt>
      <trkpt lat="45.55992" lon="4.83077">
        <ele>191.26167</ele>
        <time>2021-03-14T08:47:17Z</time>
      </trkpt>
      <trkpt lat="45.55992" lon="4.8307">
        <ele>191.23524</ele>
        <time>2021-03-14T08:47:19Z</time>
      </trkpt>
      <trkpt lat="45.55992" lon="4.83062">
        <ele>191.95923</ele>
        <time>2021-03-14T08:47:21Z</time>
      </trkpt>
      <trkpt lat="45.55996" lon="4.83054">
        <ele>192.73079</ele>
        <time>2021-03-14T08:47:24Z</time>
      </trkpt>
      <trkpt lat="45.55999" lon="4.83049">
        <ele>192.87347</ele>
        <time>2021-03-14T08:47:26Z</time>
      </trkpt>
      <trkpt lat="45.56004" lon="4.83043">
        <ele>192.83649</ele>
        <time>2021-03-14T08:47:28Z</time>
      </trkpt>
      <trkpt lat="45.56007" lon="4.83039">
        <ele>193.2117</ele>
        <time>2021-03-14T08:47:30Z</time>
      </trkpt>
      <trkpt lat="45.56012" lon="4.83032">
        <ele>193.7613</ele>
        <time>2021-03-14T08:47:33Z</time>
      </trkpt>
      <trkpt lat="45.56015" lon="4.83027">
        <ele>194.8605</ele>
        <time>2021-03-14T08:47:35Z</time>
      </trkpt>
      <trkpt lat="45.56018" lon="4.83022">
        <ele>195.48409</ele>
        <time>2021-03-14T08:47:37Z</time>
      </trkpt>
      <trkpt lat="45.56022" lon="4.83016">
        <ele>196.0971</ele>
        <time>2021-03-14T08:47:39Z</time>
      </trkpt>
      <trkpt lat="45.56025" lon="4.83011">
        <ele>196.67842</ele>
        <time>2021-03-14T08:47:41Z</time>
      </trkpt>
      <trkpt lat="45.5603" lon="4.83005">
        <ele>196.73656</ele>
        <time>2021-03-14T08:47:43Z</time>
      </trkpt>
      <trkpt lat="45.56034" lon="4.83">
        <ele>196.50932</ele>
        <time>2021-03-14T08:47:45Z</time>
      </trkpt>
      <trkpt lat="45.56038" lon="4.82995">
        <ele>196.01254</ele>
        <time>2021-03-14T08:47:47Z</time>
      </trkpt>
      <trkpt lat="45.56043" lon="4.82991">
        <ele>196.28207</ele>
        <time>2021-03-14T08:47:49Z</time>
      </trkpt>
      <trkpt lat="45.56048" lon="4.82987">
        <ele>195.29384</ele>
        <time>2021-03-14T08:47:51Z</time>
      </trkpt>
      <trkpt lat="45.56053" lon="4.82986">
        <ele>195.39954</ele>
        <time>2021-03-14T08:47:53Z</time>
      </trkpt>
      <trkpt lat="45.56058" lon="4.82984">
        <ele>195.79588</ele>
        <time>2021-03-14T08:47:55Z</time>
      </trkpt>
      <trkpt lat="45.56063" lon="4.82982">
        <ele>196.38776</ele>
        <time>2021-03-14T08:47:57Z</time>
      </trkpt>
      <trkpt lat="45.56068" lon="4.82981">
        <ele>196.02313</ele>
        <time>2021-03-14T08:47:59Z</time>
      </trkpt>
      <trkpt lat="45.56074" lon="4.82979">
        <ele>196.21866</ele>
        <time>2021-03-14T08:48:01Z</time>
      </trkpt>
      <trkpt lat="45.56078" lon="4.82976">
        <ele>197.85162</ele>
        <time>2021-03-14T08:48:03Z</time>
      </trkpt>
      <trkpt lat="45.56082" lon="4.82973">
        <ele>197.4764</ele>
        <time>2021-03-14T08:48:05Z</time>
      </trkpt>
      <trkpt lat="45.56087" lon="4.82968">
        <ele>198.17398</ele>
        <time>2021-03-14T08:48:07Z</time>
      </trkpt>
      <trkpt lat="45.56091" lon="4.82963">
        <ele>197.98372</ele>
        <time>2021-03-14T08:48:09Z</time>
      </trkpt>
      <trkpt lat="45.56094" lon="4.82957">
        <ele>197.11705</ele>
        <time>2021-03-14T08:48:11Z</time>
      </trkpt>
      <trkpt lat="45.56097" lon="4.82951">
        <ele>195.63734</ele>
        <time>2021-03-14T08:48:13Z</time>
      </trkpt>
      <trkpt lat="45.561" lon="4.82944">
        <ele>194.6544</ele>
        <time>2021-03-14T08:48:15Z</time>
      </trkpt>
      <trkpt lat="45.56101" lon="4.82937">
        <ele>193.87756</ele>
        <time>2021-03-14T08:48:17Z</time>
      </trkpt>
      <trkpt lat="45.56102" lon="4.82929">
        <ele>194.2422</ele>
        <time>2021-03-14T08:48:19Z</time>
      </trkpt>
      <trkpt lat="45.56103" lon="4.82922">
        <ele>193.9991</ele>
        <time>2021-03-14T08:48:21Z</time>
      </trkpt>
      <trkpt lat="45.56104" lon="4.82914">
        <ele>193.60275</ele>
        <time>2021-03-14T08:48:23Z</time>
      </trkpt>
      <trkpt lat="45.56104" lon="4.82905">
        <ele>193.96211</ele>
        <time>2021-03-14T08:48:25Z</time>
      </trkpt>
      <trkpt lat="45.5611" lon="4.82901">
        <ele>195.7589</ele>
        <time>2021-03-14T08:48:29Z</time>
      </trkpt>
      <trkpt lat="45.56115" lon="4.82899">
        <ele>195.39954</ele>
        <time>2021-03-14T08:48:31Z</time>
      </trkpt>
      <trkpt lat="45.5612" lon="4.82897">
        <ele>196.38248</ele>
        <time>2021-03-14T08:48:33Z</time>
      </trkpt>
      <trkpt lat="45.56126" lon="4.82895">
        <ele>196.31906</ele>
        <time>2021-03-14T08:48:35Z</time>
      </trkpt>
      <trkpt lat="45.56132" lon="4.82892">
        <ele>195.88573</ele>
        <time>2021-03-14T08:48:37Z</time>
      </trkpt>
      <trkpt lat="45.56138" lon="4.82891">
        <ele>196.22923</ele>
        <time>2021-03-14T08:48:39Z</time>
      </trkpt>
      <trkpt lat="45.56145" lon="4.8289">
        <ele>196.70485</ele>
        <time>2021-03-14T08:48:41Z</time>
      </trkpt>
      <trkpt lat="45.56151" lon="4.8289">
        <ele>197.13818</ele>
        <time>2021-03-14T08:48:43Z</time>
      </trkpt>
      <trkpt lat="45.56157" lon="4.8289">
        <ele>196.97964</ele>
        <time>2021-03-14T08:48:45Z</time>
      </trkpt>
      <trkpt lat="45.56163" lon="4.82889">
        <ele>197.19104</ele>
        <time>2021-03-14T08:48:47Z</time>
      </trkpt>
      <trkpt lat="45.56168" lon="4.82889">
        <ele>197.79877</ele>
        <time>2021-03-14T08:48:49Z</time>
      </trkpt>
      <trkpt lat="45.56173" lon="4.82889">
        <ele>198.17926</ele>
        <time>2021-03-14T08:48:51Z</time>
      </trkpt>
      <trkpt lat="45.56179" lon="4.82888">
        <ele>198.8187</ele>
        <time>2021-03-14T08:48:53Z</time>
      </trkpt>
      <trkpt lat="45.56184" lon="4.82888">
        <ele>198.47519</ele>
        <time>2021-03-14T08:48:55Z</time>
      </trkpt>
      <trkpt lat="45.5619" lon="4.82887">
        <ele>196.8581</ele>
        <time>2021-03-14T08:48:58Z</time>
      </trkpt>
      <trkpt lat="45.5619" lon="4.82878">
        <ele>195.24629</ele>
        <time>2021-03-14T08:49:03Z</time>
      </trkpt>
      <trkpt lat="45.56189" lon="4.8287">
        <ele>194.49057</ele>
        <time>2021-03-14T08:49:05Z</time>
      </trkpt>
      <trkpt lat="45.56187" lon="4.82862">
        <ele>193.7296</ele>
        <time>2021-03-14T08:49:07Z</time>
      </trkpt>
      <trkpt lat="45.56184" lon="4.82854">
        <ele>192.81535</ele>
        <time>2021-03-14T08:49:09Z</time>
      </trkpt>
      <trkpt lat="45.56181" lon="4.82847">
        <ele>192.19176</ele>
        <time>2021-03-14T08:49:11Z</time>
      </trkpt>
      <trkpt lat="45.56179" lon="4.8284">
        <ele>191.40436</ele>
        <time>2021-03-14T08:49:13Z</time>
      </trkpt>
      <trkpt lat="45.56177" lon="4.82833">
        <ele>191.1137</ele>
        <time>2021-03-14T08:49:15Z</time>
      </trkpt>
      <trkpt lat="45.56175" lon="4.82825">
        <ele>190.09375</ele>
        <time>2021-03-14T08:49:17Z</time>
      </trkpt>
      <trkpt lat="45.56175" lon="4.82817">
        <ele>189.95107</ele>
        <time>2021-03-14T08:49:19Z</time>
      </trkpt>
      <trkpt lat="45.56175" lon="4.82809">
        <ele>189.3909</ele>
        <time>2021-03-14T08:49:21Z</time>
      </trkpt>
      <trkpt lat="45.56175" lon="4.82802">
        <ele>188.79903</ele>
        <time>2021-03-14T08:49:23Z</time>
      </trkpt>
      <trkpt lat="45.56175" lon="4.82795">
        <ele>187.80022</ele>
        <time>2021-03-14T08:49:25Z</time>
      </trkpt>
      <trkpt lat="45.56175" lon="4.82787">
        <ele>186.88597</ele>
        <time>2021-03-14T08:49:27Z</time>
      </trkpt>
      <trkpt lat="45.56175" lon="4.8278">
        <ele>186.85957</ele>
        <time>2021-03-14T08:49:29Z</time>
      </trkpt>
      <trkpt lat="45.56175" lon="4.82773">
        <ele>186.3945</ele>
        <time>2021-03-14T08:49:31Z</time>
      </trkpt>
      <trkpt lat="45.56175" lon="4.82766">
        <ele>186.20955</ele>
        <time>2021-03-14T08:49:33Z</time>
      </trkpt>
      <trkpt lat="45.56175" lon="4.82759">
        <ele>187.28761</ele>
        <time>2021-03-14T08:49:35Z</time>
      </trkpt>
      <trkpt lat="45.56174" lon="4.82751">
        <ele>187.57298</ele>
        <time>2021-03-14T08:49:37Z</time>
      </trkpt>
      <trkpt lat="45.56174" lon="4.82744">
        <ele>188.65634</ele>
        <time>2021-03-14T08:49:39Z</time>
      </trkpt>
      <trkpt lat="45.56176" lon="4.82738">
        <ele>189.34334</ele>
        <time>2021-03-14T08:49:41Z</time>
      </trkpt>
      <trkpt lat="45.56181" lon="4.82734">
        <ele>189.6657</ele>
        <time>2021-03-14T08:49:44Z</time>
      </trkpt>
      <trkpt lat="45.56186" lon="4.82732">
        <ele>190.09375</ele>
        <time>2021-03-14T08:49:46Z</time>
      </trkpt>
      <trkpt lat="45.56192" lon="4.82733">
        <ele>190.05148</ele>
        <time>2021-03-14T08:49:48Z</time>
      </trkpt>
      <trkpt lat="45.56198" lon="4.82733">
        <ele>188.9787</ele>
        <time>2021-03-14T08:49:50Z</time>
      </trkpt>
      <trkpt lat="45.56203" lon="4.82734">
        <ele>189.40147</ele>
        <time>2021-03-14T08:49:52Z</time>
      </trkpt>
      <trkpt lat="45.56208" lon="4.82735">
        <ele>189.96693</ele>
        <time>2021-03-14T08:49:54Z</time>
      </trkpt>
      <trkpt lat="45.56214" lon="4.82736">
        <ele>189.63928</ele>
        <time>2021-03-14T08:49:56Z</time>
      </trkpt>
      <trkpt lat="45.5622" lon="4.82737">
        <ele>189.47018</ele>
        <time>2021-03-14T08:49:58Z</time>
      </trkpt>
      <trkpt lat="45.56226" lon="4.82738">
        <ele>189.3856</ele>
        <time>2021-03-14T08:50:00Z</time>
      </trkpt>
      <trkpt lat="45.56232" lon="4.82738">
        <ele>188.81488</ele>
        <time>2021-03-14T08:50:02Z</time>
      </trkpt>
      <trkpt lat="45.56237" lon="4.82739">
        <ele>188.74089</ele>
        <time>2021-03-14T08:50:04Z</time>
      </trkpt>
      <trkpt lat="45.56242" lon="4.8274">
        <ele>188.13844</ele>
        <time>2021-03-14T08:50:06Z</time>
      </trkpt>
      <trkpt lat="45.56247" lon="4.82741">
        <ele>187.02866</ele>
        <time>2021-03-14T08:50:08Z</time>
      </trkpt>
      <trkpt lat="45.56252" lon="4.82744">
        <ele>186.29411</ele>
        <time>2021-03-14T08:50:10Z</time>
      </trkpt>
      <trkpt lat="45.56258" lon="4.82747">
        <ele>185.26888</ele>
        <time>2021-03-14T08:50:12Z</time>
      </trkpt>
      <trkpt lat="45.56264" lon="4.8275">
        <ele>184.49203</ele>
        <time>2021-03-14T08:50:14Z</time>
      </trkpt>
      <trkpt lat="45.56268" lon="4.82752">
        <ele>184.40749</ele>
        <time>2021-03-14T08:50:16Z</time>
      </trkpt>
      <trkpt lat="45.56273" lon="4.82753">
        <ele>184.09041</ele>
        <time>2021-03-14T08:50:18Z</time>
      </trkpt>
      <trkpt lat="45.56279" lon="4.82751">
        <ele>183.75218</ele>
        <time>2021-03-14T08:50:21Z</time>
      </trkpt>
      <trkpt lat="45.56283" lon="4.82749">
        <ele>182.42047</ele>
        <time>2021-03-14T08:50:23Z</time>
      </trkpt>
      <trkpt lat="45.56287" lon="4.82746">
        <ele>182.27779</ele>
        <time>2021-03-14T08:50:25Z</time>
      </trkpt>
      <trkpt lat="45.56292" lon="4.8274">
        <ele>182.49974</ele>
        <time>2021-03-14T08:50:28Z</time>
      </trkpt>
      <trkpt lat="45.56295" lon="4.82736">
        <ele>182.42575</ele>
        <time>2021-03-14T08:50:32Z</time>
      </trkpt>
      <trkpt lat="45.56296" lon="4.82735">
        <ele>182.5103</ele>
        <time>2021-03-14T08:50:35Z</time>
      </trkpt>
      <trkpt lat="45.56296" lon="4.82735">
        <ele>182.5103</ele>
        <time>2021-03-14T08:50:35Z</time>
      </trkpt>
      <trkpt lat="45.563" lon="4.82736">
        <ele>182.25136</ele>
        <time>2021-03-14T08:50:46Z</time>
      </trkpt>
      <trkpt lat="45.56304" lon="4.82731">
        <ele>182.66356</ele>
        <time>2021-03-14T08:50:50Z</time>
      </trkpt>
      <trkpt lat="45.56304" lon="4.82724">
        <ele>183.82619</ele>
        <time>2021-03-14T08:50:53Z</time>
      </trkpt>
      <trkpt lat="45.56303" lon="4.82717">
        <ele>184.93594</ele>
        <time>2021-03-14T08:50:56Z</time>
      </trkpt>
      <trkpt lat="45.56303" lon="4.82709">
        <ele>185.48026</ele>
        <time>2021-03-14T08:50:59Z</time>
      </trkpt>
      <trkpt lat="45.56305" lon="4.82696">
        <ele>185.9876</ele>
        <time>2021-03-14T08:51:02Z</time>
      </trkpt>
      <trkpt lat="45.56307" lon="4.82688">
        <ele>186.25182</ele>
        <time>2021-03-14T08:51:04Z</time>
      </trkpt>
      <trkpt lat="45.5631" lon="4.8268">
        <ele>185.3957</ele>
        <time>2021-03-14T08:51:06Z</time>
      </trkpt>
      <trkpt lat="45.56312" lon="4.82671">
        <ele>185.20547</ele>
        <time>2021-03-14T08:51:08Z</time>
      </trkpt>
      <trkpt lat="45.56315" lon="4.82663">
        <ele>186.92297</ele>
        <time>2021-03-14T08:51:10Z</time>
      </trkpt>
      <trkpt lat="45.56318" lon="4.82657">
        <ele>186.96526</ele>
        <time>2021-03-14T08:51:12Z</time>
      </trkpt>
      <trkpt lat="45.56323" lon="4.82656">
        <ele>187.74738</ele>
        <time>2021-03-14T08:51:14Z</time>
      </trkpt>
      <trkpt lat="45.56328" lon="4.82654">
        <ele>188.59293</ele>
        <time>2021-03-14T08:51:16Z</time>
      </trkpt>
      <trkpt lat="45.56333" lon="4.82652">
        <ele>189.79782</ele>
        <time>2021-03-14T08:51:18Z</time>
      </trkpt>
      <trkpt lat="45.56339" lon="4.82651">
        <ele>189.75554</ele>
        <time>2021-03-14T08:51:20Z</time>
      </trkpt>
      <trkpt lat="45.56344" lon="4.8265">
        <ele>190.16246</ele>
        <time>2021-03-14T08:51:22Z</time>
      </trkpt>
      <trkpt lat="45.56349" lon="4.82649">
        <ele>189.98277</ele>
        <time>2021-03-14T08:51:24Z</time>
      </trkpt>
      <trkpt lat="45.56355" lon="4.82648">
        <ele>189.3856</ele>
        <time>2021-03-14T08:51:26Z</time>
      </trkpt>
      <trkpt lat="45.56361" lon="4.82648">
        <ele>189.52829</ele>
        <time>2021-03-14T08:51:28Z</time>
      </trkpt>
      <trkpt lat="45.56366" lon="4.82649">
        <ele>189.55472</ele>
        <time>2021-03-14T08:51:30Z</time>
      </trkpt>
      <trkpt lat="45.56372" lon="4.82654">
        <ele>189.66042</ele>
        <time>2021-03-14T08:51:32Z</time>
      </trkpt>
      <trkpt lat="45.56375" lon="4.82661">
        <ele>189.5336</ele>
        <time>2021-03-14T08:51:35Z</time>
      </trkpt>
      <trkpt lat="45.56377" lon="4.82667">
        <ele>189.52829</ele>
        <time>2021-03-14T08:51:37Z</time>
      </trkpt>
      <trkpt lat="45.56378" lon="4.82674">
        <ele>189.71327</ele>
        <time>2021-03-14T08:51:39Z</time>
      </trkpt>
      <trkpt lat="45.5638" lon="4.82686">
        <ele>189.46489</ele>
        <time>2021-03-14T08:51:42Z</time>
      </trkpt>
      <trkpt lat="45.56381" lon="4.82693">
        <ele>189.86652</ele>
        <time>2021-03-14T08:51:44Z</time>
      </trkpt>
      <trkpt lat="45.56384" lon="4.82701">
        <ele>189.68156</ele>
        <time>2021-03-14T08:51:46Z</time>
      </trkpt>
      <trkpt lat="45.56386" lon="4.8271">
        <ele>190.05676</ele>
        <time>2021-03-14T08:51:48Z</time>
      </trkpt>
      <trkpt lat="45.56388" lon="4.82718">
        <ele>189.71327</ele>
        <time>2021-03-14T08:51:50Z</time>
      </trkpt>
      <trkpt lat="45.5639" lon="4.82726">
        <ele>189.9405</ele>
        <time>2021-03-14T08:51:52Z</time>
      </trkpt>
      <trkpt lat="45.56392" lon="4.82733">
        <ele>190.13605</ele>
        <time>2021-03-14T08:51:54Z</time>
      </trkpt>
      <trkpt lat="45.56394" lon="4.82739">
        <ele>190.07791</ele>
        <time>2021-03-14T08:51:56Z</time>
      </trkpt>
      <trkpt lat="45.56396" lon="4.82746">
        <ele>190.23643</ele>
        <time>2021-03-14T08:51:58Z</time>
      </trkpt>
      <trkpt lat="45.56398" lon="4.82753">
        <ele>190.13074</ele>
        <time>2021-03-14T08:52:00Z</time>
      </trkpt>
      <trkpt lat="45.564" lon="4.82759">
        <ele>190.47954</ele>
        <time>2021-03-14T08:52:02Z</time>
      </trkpt>
      <trkpt lat="45.56402" lon="4.82766">
        <ele>190.86003</ele>
        <time>2021-03-14T08:52:04Z</time>
      </trkpt>
      <trkpt lat="45.56404" lon="4.82773">
        <ele>190.56938</ele>
        <time>2021-03-14T08:52:06Z</time>
      </trkpt>
      <trkpt lat="45.56406" lon="4.82779">
        <ele>190.96573</ele>
        <time>2021-03-14T08:52:08Z</time>
      </trkpt>
      <trkpt lat="45.56409" lon="4.82786">
        <ele>190.7385</ele>
        <time>2021-03-14T08:52:10Z</time>
      </trkpt>
      <trkpt lat="45.5641" lon="4.82792">
        <ele>190.32628</ele>
        <time>2021-03-14T08:52:12Z</time>
      </trkpt>
      <trkpt lat="45.56413" lon="4.82798">
        <ele>190.91817</ele>
        <time>2021-03-14T08:52:14Z</time>
      </trkpt>
      <trkpt lat="45.56414" lon="4.82808">
        <ele>191.33037</ele>
        <time>2021-03-14T08:52:17Z</time>
      </trkpt>
      <trkpt lat="45.56416" lon="4.82818">
        <ele>191.4572</ele>
        <time>2021-03-14T08:52:20Z</time>
      </trkpt>
      <trkpt lat="45.56418" lon="4.82825">
        <ele>191.732</ele>
        <time>2021-03-14T08:52:22Z</time>
      </trkpt>
      <trkpt lat="45.56421" lon="4.82836">
        <ele>192.00153</ele>
        <time>2021-03-14T08:52:25Z</time>
      </trkpt>
      <trkpt lat="45.56423" lon="4.82846">
        <ele>192.5564</ele>
        <time>2021-03-14T08:52:28Z</time>
      </trkpt>
      <trkpt lat="45.56424" lon="4.82853">
        <ele>192.39787</ele>
        <time>2021-03-14T08:52:30Z</time>
      </trkpt>
      <trkpt lat="45.56426" lon="4.82861">
        <ele>192.42429</ele>
        <time>2021-03-14T08:52:32Z</time>
      </trkpt>
      <trkpt lat="45.56429" lon="4.82868">
        <ele>193.43365</ele>
        <time>2021-03-14T08:52:34Z</time>
      </trkpt>
      <trkpt lat="45.56431" lon="4.82874">
        <ele>193.42836</ele>
        <time>2021-03-14T08:52:36Z</time>
      </trkpt>
      <trkpt lat="45.56435" lon="4.82882">
        <ele>193.96211</ele>
        <time>2021-03-14T08:52:39Z</time>
      </trkpt>
      <trkpt lat="45.56439" lon="4.82888">
        <ele>194.2052</ele>
        <time>2021-03-14T08:52:42Z</time>
      </trkpt>
      <trkpt lat="45.56445" lon="4.82892">
        <ele>195.23042</ele>
        <time>2021-03-14T08:52:45Z</time>
      </trkpt>
      <trkpt lat="45.56451" lon="4.82894">
        <ele>194.82352</ele>
        <time>2021-03-14T08:52:48Z</time>
      </trkpt>
      <trkpt lat="45.56456" lon="4.82897">
        <ele>195.4524</ele>
        <time>2021-03-14T08:52:51Z</time>
      </trkpt>
      <trkpt lat="45.56463" lon="4.82899">
        <ele>195.36255</ele>
        <time>2021-03-14T08:52:53Z</time>
      </trkpt>
      <trkpt lat="45.56468" lon="4.82901">
        <ele>195.59508</ele>
        <time>2021-03-14T08:52:55Z</time>
      </trkpt>
      <trkpt lat="45.56473" lon="4.82902">
        <ele>195.49466</ele>
        <time>2021-03-14T08:52:57Z</time>
      </trkpt>
      <trkpt lat="45.56478" lon="4.82903">
        <ele>195.7589</ele>
        <time>2021-03-14T08:52:59Z</time>
      </trkpt>
      <trkpt lat="45.56488" lon="4.82905">
        <ele>195.91216</ele>
        <time>2021-03-14T08:53:02Z</time>
      </trkpt>
      <trkpt lat="45.56495" lon="4.82908">
        <ele>196.34021</ele>
        <time>2021-03-14T08:53:04Z</time>
      </trkpt>
      <trkpt lat="45.56503" lon="4.8291">
        <ele>196.49345</ele>
        <time>2021-03-14T08:53:07Z</time>
      </trkpt>
      <trkpt lat="45.56508" lon="4.82912">
        <ele>196.30322</ele>
        <time>2021-03-14T08:53:09Z</time>
      </trkpt>
      <trkpt lat="45.56514" lon="4.82914">
        <ele>196.7947</ele>
        <time>2021-03-14T08:53:11Z</time>
      </trkpt>
      <trkpt lat="45.56519" lon="4.82915">
        <ele>196.9902</ele>
        <time>2021-03-14T08:53:13Z</time>
      </trkpt>
      <trkpt lat="45.56526" lon="4.82915">
        <ele>196.13411</ele>
        <time>2021-03-14T08:53:16Z</time>
      </trkpt>
      <trkpt lat="45.56532" lon="4.82915">
        <ele>196.62558</ele>
        <time>2021-03-14T08:53:18Z</time>
      </trkpt>
      <trkpt lat="45.5654" lon="4.82916">
        <ele>196.2768</ele>
        <time>2021-03-14T08:53:21Z</time>
      </trkpt>
      <trkpt lat="45.56546" lon="4.82917">
        <ele>197.00607</ele>
        <time>2021-03-14T08:53:23Z</time>
      </trkpt>
      <trkpt lat="45.56551" lon="4.8292">
        <ele>196.62558</ele>
        <time>2021-03-14T08:53:25Z</time>
      </trkpt>
      <trkpt lat="45.56556" lon="4.82923">
        <ele>196.3772</ele>
        <time>2021-03-14T08:53:27Z</time>
      </trkpt>
      <trkpt lat="45.56561" lon="4.82928">
        <ele>196.41948</ele>
        <time>2021-03-14T08:53:29Z</time>
      </trkpt>
      <trkpt lat="45.56566" lon="4.82932">
        <ele>196.35077</ele>
        <time>2021-03-14T08:53:31Z</time>
      </trkpt>
      <trkpt lat="45.56571" lon="4.82935">
        <ele>196.39833</ele>
        <time>2021-03-14T08:53:33Z</time>
      </trkpt>
      <trkpt lat="45.56577" lon="4.82938">
        <ele>196.96909</ele>
        <time>2021-03-14T08:53:35Z</time>
      </trkpt>
      <trkpt lat="45.56582" lon="4.82943">
        <ele>196.47762</ele>
        <time>2021-03-14T08:53:37Z</time>
      </trkpt>
      <trkpt lat="45.56588" lon="4.82949">
        <ele>196.69427</ele>
        <time>2021-03-14T08:53:39Z</time>
      </trkpt>
      <trkpt lat="45.56593" lon="4.82954">
        <ele>196.4723</ele>
        <time>2021-03-14T08:53:41Z</time>
      </trkpt>
      <trkpt lat="45.56598" lon="4.82959">
        <ele>196.46175</ele>
        <time>2021-03-14T08:53:43Z</time>
      </trkpt>
      <trkpt lat="45.56606" lon="4.82966">
        <ele>196.1024</ele>
        <time>2021-03-14T08:53:46Z</time>
      </trkpt>
      <trkpt lat="45.56611" lon="4.82971">
        <ele>196.22394</ele>
        <time>2021-03-14T08:53:48Z</time>
      </trkpt>
      <trkpt lat="45.56618" lon="4.82979">
        <ele>195.81174</ele>
        <time>2021-03-14T08:53:51Z</time>
      </trkpt>
      <trkpt lat="45.56623" lon="4.82983">
        <ele>196.11296</ele>
        <time>2021-03-14T08:53:53Z</time>
      </trkpt>
      <trkpt lat="45.56627" lon="4.82988">
        <ele>195.77475</ele>
        <time>2021-03-14T08:53:55Z</time>
      </trkpt>
      <trkpt lat="45.56632" lon="4.82993">
        <ele>195.78003</ele>
        <time>2021-03-14T08:53:57Z</time>
      </trkpt>
      <trkpt lat="45.56636" lon="4.82997">
        <ele>195.02962</ele>
        <time>2021-03-14T08:53:59Z</time>
      </trkpt>
      <trkpt lat="45.5664" lon="4.83003">
        <ele>194.9662</ele>
        <time>2021-03-14T08:54:01Z</time>
      </trkpt>
      <trkpt lat="45.56644" lon="4.83008">
        <ele>195.01904</ele>
        <time>2021-03-14T08:54:03Z</time>
      </trkpt>
      <trkpt lat="45.56649" lon="4.83014">
        <ele>194.58571</ele>
        <time>2021-03-14T08:54:05Z</time>
      </trkpt>
      <trkpt lat="45.56653" lon="4.8302">
        <ele>195.01376</ele>
        <time>2021-03-14T08:54:07Z</time>
      </trkpt>
      <trkpt lat="45.56656" lon="4.83025">
        <ele>194.92921</ele>
        <time>2021-03-14T08:54:09Z</time>
      </trkpt>
      <trkpt lat="45.56659" lon="4.8303">
        <ele>194.73367</ele>
        <time>2021-03-14T08:54:11Z</time>
      </trkpt>
      <trkpt lat="45.56663" lon="4.83036">
        <ele>194.39546</ele>
        <time>2021-03-14T08:54:13Z</time>
      </trkpt>
      <trkpt lat="45.56667" lon="4.83041">
        <ele>194.3426</ele>
        <time>2021-03-14T08:54:15Z</time>
      </trkpt>
      <trkpt lat="45.56671" lon="4.83046">
        <ele>194.79181</ele>
        <time>2021-03-14T08:54:17Z</time>
      </trkpt>
      <trkpt lat="45.56675" lon="4.83051">
        <ele>194.36903</ele>
        <time>2021-03-14T08:54:19Z</time>
      </trkpt>
      <trkpt lat="45.5668" lon="4.83057">
        <ele>194.09424</ele>
        <time>2021-03-14T08:54:21Z</time>
      </trkpt>
      <trkpt lat="45.56685" lon="4.83063">
        <ele>194.39546</ele>
        <time>2021-03-14T08:54:23Z</time>
      </trkpt>
      <trkpt lat="45.5669" lon="4.83068">
        <ele>194.11537</ele>
        <time>2021-03-14T08:54:25Z</time>
      </trkpt>
      <trkpt lat="45.56698" lon="4.83074">
        <ele>194.04138</ele>
        <time>2021-03-14T08:54:28Z</time>
      </trkpt>
      <trkpt lat="45.56703" lon="4.83077">
        <ele>194.1365</ele>
        <time>2021-03-14T08:54:30Z</time>
      </trkpt>
      <trkpt lat="45.56708" lon="4.8308">
        <ele>194.14178</ele>
        <time>2021-03-14T08:54:32Z</time>
      </trkpt>
      <trkpt lat="45.56713" lon="4.83083">
        <ele>193.66618</ele>
        <time>2021-03-14T08:54:34Z</time>
      </trkpt>
      <trkpt lat="45.56718" lon="4.83087">
        <ele>193.46536</ele>
        <time>2021-03-14T08:54:36Z</time>
      </trkpt>
      <trkpt lat="45.56723" lon="4.8309">
        <ele>193.43365</ele>
        <time>2021-03-14T08:54:38Z</time>
      </trkpt>
      <trkpt lat="45.56727" lon="4.83095">
        <ele>193.11128</ele>
        <time>2021-03-14T08:54:40Z</time>
      </trkpt>
      <trkpt lat="45.56733" lon="4.83101">
        <ele>192.54054</ele>
        <time>2021-03-14T08:54:43Z</time>
      </trkpt>
      <trkpt lat="45.56738" lon="4.83107">
        <ele>192.16005</ele>
        <time>2021-03-14T08:54:46Z</time>
      </trkpt>
      <trkpt lat="45.56742" lon="4.83114">
        <ele>191.16655</ele>
        <time>2021-03-14T08:54:49Z</time>
      </trkpt>
      <trkpt lat="45.56744" lon="4.83123">
        <ele>190.41614</ele>
        <time>2021-03-14T08:54:52Z</time>
      </trkpt>
      <trkpt lat="45.56746" lon="4.83131">
        <ele>189.63928</ele>
        <time>2021-03-14T08:54:54Z</time>
      </trkpt>
      <trkpt lat="45.56747" lon="4.83141">
        <ele>188.62991</ele>
        <time>2021-03-14T08:54:57Z</time>
      </trkpt>
      <trkpt lat="45.56749" lon="4.83149">
        <ele>188.12788</ele>
        <time>2021-03-14T08:54:59Z</time>
      </trkpt>
      <trkpt lat="45.56751" lon="4.8316">
        <ele>186.9124</ele>
        <time>2021-03-14T08:55:02Z</time>
      </trkpt>
      <trkpt lat="45.56753" lon="4.8317">
        <ele>186.87541</ele>
        <time>2021-03-14T08:55:05Z</time>
      </trkpt>
      <trkpt lat="45.56756" lon="4.83177">
        <ele>187.11322</ele>
        <time>2021-03-14T08:55:07Z</time>
      </trkpt>
      <trkpt lat="45.5676" lon="4.83185">
        <ele>186.67989</ele>
        <time>2021-03-14T08:55:09Z</time>
      </trkpt>
      <trkpt lat="45.56764" lon="4.83193">
        <ele>185.99815</ele>
        <time>2021-03-14T08:55:11Z</time>
      </trkpt>
      <trkpt lat="45.56767" lon="4.832">
        <ele>185.34816</ele>
        <time>2021-03-14T08:55:13Z</time>
      </trkpt>
      <trkpt lat="45.56772" lon="4.83205">
        <ele>184.61887</ele>
        <time>2021-03-14T08:55:15Z</time>
      </trkpt>
      <trkpt lat="45.56776" lon="4.83207">
        <ele>184.8144</ele>
        <time>2021-03-14T08:55:17Z</time>
      </trkpt>
      <trkpt lat="45.56782" lon="4.83211">
        <ele>184.07985</ele>
        <time>2021-03-14T08:55:20Z</time>
      </trkpt>
      <trkpt lat="45.56789" lon="4.83214">
        <ele>183.90546</ele>
        <time>2021-03-14T08:55:22Z</time>
      </trkpt>
      <trkpt lat="45.56794" lon="4.83216">
        <ele>183.00705</ele>
        <time>2021-03-14T08:55:24Z</time>
      </trkpt>
      <trkpt lat="45.568" lon="4.83218">
        <ele>182.93835</ele>
        <time>2021-03-14T08:55:26Z</time>
      </trkpt>
      <trkpt lat="45.56806" lon="4.83219">
        <ele>183.03876</ele>
        <time>2021-03-14T08:55:28Z</time>
      </trkpt>
      <trkpt lat="45.56812" lon="4.83219">
        <ele>182.84325</ele>
        <time>2021-03-14T08:55:30Z</time>
      </trkpt>
      <trkpt lat="45.56817" lon="4.8322">
        <ele>182.74811</ele>
        <time>2021-03-14T08:55:32Z</time>
      </trkpt>
      <trkpt lat="45.56824" lon="4.8322">
        <ele>182.71112</ele>
        <time>2021-03-14T08:55:35Z</time>
      </trkpt>
      <trkpt lat="45.56829" lon="4.8322">
        <ele>182.90665</ele>
        <time>2021-03-14T08:55:38Z</time>
      </trkpt>
      <trkpt lat="45.56835" lon="4.83219">
        <ele>183.08633</ele>
        <time>2021-03-14T08:55:40Z</time>
      </trkpt>
      <trkpt lat="45.5684" lon="4.8322">
        <ele>182.03998</ele>
        <time>2021-03-14T08:55:42Z</time>
      </trkpt>
      <trkpt lat="45.56846" lon="4.83222">
        <ele>180.81393</ele>
        <time>2021-03-14T08:55:45Z</time>
      </trkpt>
      <trkpt lat="45.5685" lon="4.8322">
        <ele>179.56146</ele>
        <time>2021-03-14T08:55:47Z</time>
      </trkpt>
      <trkpt lat="45.56855" lon="4.83219">
        <ele>178.85863</ele>
        <time>2021-03-14T08:55:49Z</time>
      </trkpt>
      <trkpt lat="45.56862" lon="4.83219">
        <ele>177.47932</ele>
        <time>2021-03-14T08:55:52Z</time>
      </trkpt>
      <trkpt lat="45.5687" lon="4.83219">
        <ele>174.71017</ele>
        <time>2021-03-14T08:55:56Z</time>
      </trkpt>
      <trkpt lat="45.56876" lon="4.83217">
        <ele>173.49998</ele>
        <time>2021-03-14T08:55:58Z</time>
      </trkpt>
      <trkpt lat="45.56882" lon="4.83215">
        <ele>172.2581</ele>
        <time>2021-03-14T08:56:01Z</time>
      </trkpt>
      <trkpt lat="45.56887" lon="4.8321">
        <ele>170.83653</ele>
        <time>2021-03-14T08:56:04Z</time>
      </trkpt>
      <trkpt lat="45.56895" lon="4.8321">
        <ele>169.36212</ele>
        <time>2021-03-14T08:56:06Z</time>
      </trkpt>
      <trkpt lat="45.56904" lon="4.83203">
        <ele>168.16779</ele>
        <time>2021-03-14T08:56:09Z</time>
      </trkpt>
      <trkpt lat="45.5691" lon="4.832">
        <ele>167.50192</ele>
        <time>2021-03-14T08:56:11Z</time>
      </trkpt>
      <trkpt lat="45.56917" lon="4.83196">
        <ele>166.73036</ele>
        <time>2021-03-14T08:56:13Z</time>
      </trkpt>
      <trkpt lat="45.56922" lon="4.83192">
        <ele>166.83078</ele>
        <time>2021-03-14T08:56:15Z</time>
      </trkpt>
      <trkpt lat="45.56928" lon="4.83189">
        <ele>166.87834</ele>
        <time>2021-03-14T08:56:17Z</time>
      </trkpt>
      <trkpt lat="45.56933" lon="4.83188">
        <ele>166.77794</ele>
        <time>2021-03-14T08:56:19Z</time>
      </trkpt>
      <trkpt lat="45.56937" lon="4.83186">
        <ele>166.11208</ele>
        <time>2021-03-14T08:56:21Z</time>
      </trkpt>
      <trkpt lat="45.56942" lon="4.83186">
        <ele>165.07098</ele>
        <time>2021-03-14T08:56:23Z</time>
      </trkpt>
      <trkpt lat="45.56947" lon="4.83186">
        <ele>164.35757</ele>
        <time>2021-03-14T08:56:25Z</time>
      </trkpt>
      <trkpt lat="45.56952" lon="4.83185">
        <ele>163.95595</ele>
        <time>2021-03-14T08:56:28Z</time>
      </trkpt>
      <trkpt lat="45.56957" lon="4.83183">
        <ele>163.0047</ele>
        <time>2021-03-14T08:56:31Z</time>
      </trkpt>
      <trkpt lat="45.56961" lon="4.8318">
        <ele>160.73758</ele>
        <time>2021-03-14T08:56:35Z</time>
      </trkpt>
      <trkpt lat="45.56966" lon="4.83178">
        <ele>159.0465</ele>
        <time>2021-03-14T08:56:39Z</time>
      </trkpt>
      <trkpt lat="45.56971" lon="4.83175">
        <ele>157.45055</ele>
        <time>2021-03-14T08:56:43Z</time>
      </trkpt>
      <trkpt lat="45.56976" lon="4.83176">
        <ele>156.33548</ele>
        <time>2021-03-14T08:56:47Z</time>
      </trkpt>
      <trkpt lat="45.56981" lon="4.83175">
        <ele>154.85577</ele>
        <time>2021-03-14T08:56:50Z</time>
      </trkpt>
      <trkpt lat="45.56986" lon="4.83177">
        <ele>153.70374</ele>
        <time>2021-03-14T08:56:53Z</time>
      </trkpt>
      <trkpt lat="45.56991" lon="4.83179">
        <ele>152.56226</ele>
        <time>2021-03-14T08:56:56Z</time>
      </trkpt>
      <trkpt lat="45.56997" lon="4.83183">
        <ele>151.44719</ele>
        <time>2021-03-14T08:56:59Z</time>
      </trkpt>
      <trkpt lat="45.57002" lon="4.83185">
        <ele>149.62927</ele>
        <time>2021-03-14T08:57:03Z</time>
      </trkpt>
      <trkpt lat="45.57007" lon="4.83188">
        <ele>147.91176</ele>
        <time>2021-03-14T08:57:08Z</time>
      </trkpt>
      <trkpt lat="45.57013" lon="4.83187">
        <ele>146.4585</ele>
        <time>2021-03-14T08:57:12Z</time>
      </trkpt>
      <trkpt lat="45.57018" lon="4.83188">
        <ele>145.4544</ele>
        <time>2021-03-14T08:57:15Z</time>
      </trkpt>
      <trkpt lat="45.57023" lon="4.83189">
        <ele>144.1861</ele>
        <time>2021-03-14T08:57:19Z</time>
      </trkpt>
      <trkpt lat="45.57028" lon="4.83189">
        <ele>143.23486</ele>
        <time>2021-03-14T08:57:22Z</time>
      </trkpt>
      <trkpt lat="45.57033" lon="4.83191">
        <ele>142.57428</ele>
        <time>2021-03-14T08:57:25Z</time>
      </trkpt>
      <trkpt lat="45.57039" lon="4.83194">
        <ele>142.6747</ele>
        <time>2021-03-14T08:57:28Z</time>
      </trkpt>
      <trkpt lat="45.57047" lon="4.832">
        <ele>144.27594</ele>
        <time>2021-03-14T08:57:39Z</time>
      </trkpt>
      <trkpt lat="45.5705" lon="4.83204">
        <ele>144.53488</ele>
        <time>2021-03-14T08:57:41Z</time>
      </trkpt>
      <trkpt lat="45.57055" lon="4.83209">
        <ele>145.08977</ele>
        <time>2021-03-14T08:57:43Z</time>
      </trkpt>
      <trkpt lat="45.57059" lon="4.83213">
        <ele>145.33287</ele>
        <time>2021-03-14T08:57:45Z</time>
      </trkpt>
      <trkpt lat="45.57064" lon="4.83216">
        <ele>146.21011</ele>
        <time>2021-03-14T08:57:47Z</time>
      </trkpt>
      <trkpt lat="45.57069" lon="4.83225">
        <ele>146.68045</ele>
        <time>2021-03-14T08:57:51Z</time>
      </trkpt>
      <trkpt lat="45.57073" lon="4.83232">
        <ele>147.1825</ele>
        <time>2021-03-14T08:57:54Z</time>
      </trkpt>
      <trkpt lat="45.57077" lon="4.83237">
        <ele>147.77965</ele>
        <time>2021-03-14T08:57:57Z</time>
      </trkpt>
      <trkpt lat="45.57081" lon="4.83241">
        <ele>147.73209</ele>
        <time>2021-03-14T08:57:59Z</time>
      </trkpt>
      <trkpt lat="45.57085" lon="4.83248">
        <ele>146.96053</ele>
        <time>2021-03-14T08:58:02Z</time>
      </trkpt>
      <trkpt lat="45.57089" lon="4.83253">
        <ele>146.75972</ele>
        <time>2021-03-14T08:58:04Z</time>
      </trkpt>
      <trkpt lat="45.57095" lon="4.83262">
        <ele>148.04916</ele>
        <time>2021-03-14T08:58:08Z</time>
      </trkpt>
      <trkpt lat="45.57099" lon="4.83269">
        <ele>148.76788</ele>
        <time>2021-03-14T08:58:10Z</time>
      </trkpt>
      <trkpt lat="45.57102" lon="4.83274">
        <ele>150.09433</ele>
        <time>2021-03-14T08:58:14Z</time>
      </trkpt>
      <trkpt lat="45.57103" lon="4.83281">
        <ele>149.74553</ele>
        <time>2021-03-14T08:58:20Z</time>
      </trkpt>
      <trkpt lat="45.57104" lon="4.83294">
        <ele>149.76138</ele>
        <time>2021-03-14T08:58:25Z</time>
      </trkpt>
      <trkpt lat="45.57107" lon="4.83303">
        <ele>149.30162</ele>
        <time>2021-03-14T08:58:27Z</time>
      </trkpt>
      <trkpt lat="45.57108" lon="4.83312">
        <ele>149.7561</ele>
        <time>2021-03-14T08:58:29Z</time>
      </trkpt>
      <trkpt lat="45.5711" lon="4.83322">
        <ele>149.28577</ele>
        <time>2021-03-14T08:58:31Z</time>
      </trkpt>
      <trkpt lat="45.57112" lon="4.83328">
        <ele>149.94635</ele>
        <time>2021-03-14T08:58:33Z</time>
      </trkpt>
      <trkpt lat="45.57115" lon="4.83338">
        <ele>149.71384</ele>
        <time>2021-03-14T08:58:36Z</time>
      </trkpt>
      <trkpt lat="45.57119" lon="4.83347">
        <ele>149.20122</ele>
        <time>2021-03-14T08:58:39Z</time>
      </trkpt>
      <trkpt lat="45.57121" lon="4.83353">
        <ele>149.43375</ele>
        <time>2021-03-14T08:58:41Z</time>
      </trkpt>
      <trkpt lat="45.57121" lon="4.83362">
        <ele>150.95044</ele>
        <time>2021-03-14T08:58:45Z</time>
      </trkpt>
      <trkpt lat="45.57122" lon="4.83369">
        <ele>151.2041</ele>
        <time>2021-03-14T08:58:47Z</time>
      </trkpt>
      <trkpt lat="45.57122" lon="4.83376">
        <ele>150.64922</ele>
        <time>2021-03-14T08:58:49Z</time>
      </trkpt>
      <trkpt lat="45.57121" lon="4.83382">
        <ele>151.19353</ele>
        <time>2021-03-14T08:58:51Z</time>
      </trkpt>
      <trkpt lat="45.57121" lon="4.83393">
        <ele>151.9968</ele>
        <time>2021-03-14T08:58:55Z</time>
      </trkpt>
      <trkpt lat="45.57119" lon="4.83402">
        <ele>152.32445</ele>
        <time>2021-03-14T08:58:59Z</time>
      </trkpt>
      <trkpt lat="45.57115" lon="4.83405">
        <ele>153.32852</ele>
        <time>2021-03-14T08:59:03Z</time>
      </trkpt>
      <trkpt lat="45.57119" lon="4.83411">
        <ele>155.47409</ele>
        <time>2021-03-14T08:59:06Z</time>
      </trkpt>
      <trkpt lat="45.57115" lon="4.83415">
        <ele>157.12819</ele>
        <time>2021-03-14T08:59:12Z</time>
      </trkpt>
      <trkpt lat="45.5711" lon="4.83421">
        <ele>157.28143</ele>
        <time>2021-03-14T08:59:15Z</time>
      </trkpt>
      <trkpt lat="45.57107" lon="4.83428">
        <ele>157.3237</ele>
        <time>2021-03-14T08:59:18Z</time>
      </trkpt>
      <trkpt lat="45.57105" lon="4.83437">
        <ele>157.98428</ele>
        <time>2021-03-14T08:59:21Z</time>
      </trkpt>
      <trkpt lat="45.57102" lon="4.83445">
        <ele>158.39122</ele>
        <time>2021-03-14T08:59:24Z</time>
      </trkpt>
      <trkpt lat="45.57097" lon="4.8345">
        <ele>158.1851</ele>
        <time>2021-03-14T08:59:26Z</time>
      </trkpt>
      <trkpt lat="45.57093" lon="4.83455">
        <ele>158.36479</ele>
        <time>2021-03-14T08:59:28Z</time>
      </trkpt>
      <trkpt lat="45.5709" lon="4.8346">
        <ele>159.02007</ele>
        <time>2021-03-14T08:59:30Z</time>
      </trkpt>
      <trkpt lat="45.57085" lon="4.83466">
        <ele>159.13106</ele>
        <time>2021-03-14T08:59:32Z</time>
      </trkpt>
      <trkpt lat="45.57079" lon="4.83472">
        <ele>159.44815</ele>
        <time>2021-03-14T08:59:35Z</time>
      </trkpt>
      <trkpt lat="45.57076" lon="4.83477">
        <ele>159.20505</ele>
        <time>2021-03-14T08:59:37Z</time>
      </trkpt>
      <trkpt lat="45.57072" lon="4.83482">
        <ele>159.55383</ele>
        <time>2021-03-14T08:59:39Z</time>
      </trkpt>
      <trkpt lat="45.57067" lon="4.83489">
        <ele>159.31075</ele>
        <time>2021-03-14T08:59:42Z</time>
      </trkpt>
      <trkpt lat="45.57062" lon="4.83496">
        <ele>159.5644</ele>
        <time>2021-03-14T08:59:45Z</time>
      </trkpt>
      <trkpt lat="45.57058" lon="4.83503">
        <ele>159.58554</ele>
        <time>2021-03-14T08:59:47Z</time>
      </trkpt>
      <trkpt lat="45.57053" lon="4.8351">
        <ele>159.88676</ele>
        <time>2021-03-14T08:59:51Z</time>
      </trkpt>
      <trkpt lat="45.57049" lon="4.8352">
        <ele>160.1193</ele>
        <time>2021-03-14T08:59:54Z</time>
      </trkpt>
      <trkpt lat="45.57044" lon="4.83526">
        <ele>160.44165</ele>
        <time>2021-03-14T08:59:57Z</time>
      </trkpt>
      <trkpt lat="45.57039" lon="4.83531">
        <ele>160.36238</ele>
        <time>2021-03-14T08:59:59Z</time>
      </trkpt>
      <trkpt lat="45.57035" lon="4.83536">
        <ele>160.69003</ele>
        <time>2021-03-14T09:00:01Z</time>
      </trkpt>
      <trkpt lat="45.57031" lon="4.8354">
        <ele>160.24611</ele>
        <time>2021-03-14T09:00:03Z</time>
      </trkpt>
      <trkpt lat="45.57028" lon="4.83546">
        <ele>160.64775</ele>
        <time>2021-03-14T09:00:06Z</time>
      </trkpt>
      <trkpt lat="45.57025" lon="4.83553">
        <ele>160.92255</ele>
        <time>2021-03-14T09:00:09Z</time>
      </trkpt>
      <trkpt lat="45.57021" lon="4.83563">
        <ele>160.87498</ele>
        <time>2021-03-14T09:00:12Z</time>
      </trkpt>
      <trkpt lat="45.57018" lon="4.83576">
        <ele>160.88554</ele>
        <time>2021-03-14T09:00:15Z</time>
      </trkpt>
      <trkpt lat="45.57016" lon="4.83582">
        <ele>160.62132</ele>
        <time>2021-03-14T09:00:17Z</time>
      </trkpt>
      <trkpt lat="45.57012" lon="4.8359">
        <ele>161.02295</ele>
        <time>2021-03-14T09:00:20Z</time>
      </trkpt>
      <trkpt lat="45.5701" lon="4.83597">
        <ele>160.91197</ele>
        <time>2021-03-14T09:00:22Z</time>
      </trkpt>
      <trkpt lat="45.57009" lon="4.83606">
        <ele>161.1815</ele>
        <time>2021-03-14T09:00:24Z</time>
      </trkpt>
      <trkpt lat="45.57007" lon="4.83613">
        <ele>161.58313</ele>
        <time>2021-03-14T09:00:26Z</time>
      </trkpt>
      <trkpt lat="45.57002" lon="4.83617">
        <ele>161.5567</ele>
        <time>2021-03-14T09:00:28Z</time>
      </trkpt>
      <trkpt lat="45.56999" lon="4.83625">
        <ele>162.32826</ele>
        <time>2021-03-14T09:00:31Z</time>
      </trkpt>
      <trkpt lat="45.56998" lon="4.83633">
        <ele>162.20673</ele>
        <time>2021-03-14T09:00:33Z</time>
      </trkpt>
      <trkpt lat="45.56999" lon="4.83641">
        <ele>162.89902</ele>
        <time>2021-03-14T09:00:35Z</time>
      </trkpt>
      <trkpt lat="45.57" lon="4.83648">
        <ele>163.15796</ele>
        <time>2021-03-14T09:00:37Z</time>
      </trkpt>
      <trkpt lat="45.57001" lon="4.83656">
        <ele>163.14209</ele>
        <time>2021-03-14T09:00:39Z</time>
      </trkpt>
      <trkpt lat="45.57003" lon="4.83665">
        <ele>163.23193</ele>
        <time>2021-03-14T09:00:42Z</time>
      </trkpt>
      <trkpt lat="45.57005" lon="4.83671">
        <ele>163.33235</ele>
        <time>2021-03-14T09:00:44Z</time>
      </trkpt>
      <trkpt lat="45.57008" lon="4.83678">
        <ele>163.39577</ele>
        <time>2021-03-14T09:00:47Z</time>
      </trkpt>
      <trkpt lat="45.5701" lon="4.83686">
        <ele>163.4169</ele>
        <time>2021-03-14T09:00:51Z</time>
      </trkpt>
      <trkpt lat="45.57011" lon="4.83693">
        <ele>163.28479</ele>
        <time>2021-03-14T09:00:53Z</time>
      </trkpt>
      <trkpt lat="45.57013" lon="4.83699">
        <ele>163.67586</ele>
        <time>2021-03-14T09:00:55Z</time>
      </trkpt>
      <trkpt lat="45.57015" lon="4.83707">
        <ele>164.02464</ele>
        <time>2021-03-14T09:00:57Z</time>
      </trkpt>
      <trkpt lat="45.57015" lon="4.83716">
        <ele>164.0352</ele>
        <time>2021-03-14T09:00:59Z</time>
      </trkpt>
      <trkpt lat="45.57016" lon="4.83723">
        <ele>163.86609</ele>
        <time>2021-03-14T09:01:01Z</time>
      </trkpt>
      <trkpt lat="45.57017" lon="4.83732">
        <ele>163.91365</ele>
        <time>2021-03-14T09:01:04Z</time>
      </trkpt>
      <trkpt lat="45.57018" lon="4.83743">
        <ele>163.78683</ele>
        <time>2021-03-14T09:01:07Z</time>
      </trkpt>
      <trkpt lat="45.57016" lon="4.8375">
        <ele>164.38928</ele>
        <time>2021-03-14T09:01:10Z</time>
      </trkpt>
      <trkpt lat="45.57017" lon="4.83757">
        <ele>164.04578</ele>
        <time>2021-03-14T09:01:12Z</time>
      </trkpt>
      <trkpt lat="45.57022" lon="4.83768">
        <ele>164.5531</ele>
        <time>2021-03-14T09:01:16Z</time>
      </trkpt>
      <trkpt lat="45.57025" lon="4.83774">
        <ele>163.51202</ele>
        <time>2021-03-14T09:01:20Z</time>
      </trkpt>
      <trkpt lat="45.57028" lon="4.83781">
        <ele>163.05754</ele>
        <time>2021-03-14T09:01:21Z</time>
      </trkpt>
      <trkpt lat="45.57032" lon="4.8379">
        <ele>161.6994</ele>
        <time>2021-03-14T09:01:26Z</time>
      </trkpt>
      <trkpt lat="45.57032" lon="4.83799">
        <ele>162.78275</ele>
        <time>2021-03-14T09:01:31Z</time>
      </trkpt>
      <trkpt lat="45.57032" lon="4.83806">
        <ele>165.81084</ele>
        <time>2021-03-14T09:01:37Z</time>
      </trkpt>
      <trkpt lat="45.57034" lon="4.83816">
        <ele>169.53651</ele>
        <time>2021-03-14T09:01:44Z</time>
      </trkpt>
      <trkpt lat="45.57035" lon="4.83823">
        <ele>170.14424</ele>
        <time>2021-03-14T09:01:46Z</time>
      </trkpt>
      <trkpt lat="45.57036" lon="4.83832">
        <ele>169.84303</ele>
        <time>2021-03-14T09:01:48Z</time>
      </trkpt>
      <trkpt lat="45.57038" lon="4.83839">
        <ele>169.00276</ele>
        <time>2021-03-14T09:01:50Z</time>
      </trkpt>
      <trkpt lat="45.57041" lon="4.8385">
        <ele>168.93935</ele>
        <time>2021-03-14T09:01:53Z</time>
      </trkpt>
      <trkpt lat="45.57044" lon="4.83857">
        <ele>168.87593</ele>
        <time>2021-03-14T09:01:55Z</time>
      </trkpt>
      <trkpt lat="45.57047" lon="4.83864">
        <ele>168.38446</ele>
        <time>2021-03-14T09:01:57Z</time>
      </trkpt>
      <trkpt lat="45.57048" lon="4.83871">
        <ele>169.08203</ele>
        <time>2021-03-14T09:01:59Z</time>
      </trkpt>
      <trkpt lat="45.57051" lon="4.83877">
        <ele>168.65926</ele>
        <time>2021-03-14T09:02:01Z</time>
      </trkpt>
      <trkpt lat="45.57053" lon="4.83885">
        <ele>168.82309</ele>
        <time>2021-03-14T09:02:04Z</time>
      </trkpt>
      <trkpt lat="45.57053" lon="4.83895">
        <ele>168.68568</ele>
        <time>2021-03-14T09:02:07Z</time>
      </trkpt>
      <trkpt lat="45.57054" lon="4.83904">
        <ele>168.87593</ele>
        <time>2021-03-14T09:02:09Z</time>
      </trkpt>
      <trkpt lat="45.57054" lon="4.83913">
        <ele>169.05032</ele>
        <time>2021-03-14T09:02:11Z</time>
      </trkpt>
      <trkpt lat="45.57055" lon="4.83924">
        <ele>168.7438</ele>
        <time>2021-03-14T09:02:13Z</time>
      </trkpt>
      <trkpt lat="45.57054" lon="4.83934">
        <ele>168.543</ele>
        <time>2021-03-14T09:02:15Z</time>
      </trkpt>
      <trkpt lat="45.57055" lon="4.83941">
        <ele>168.70154</ele>
        <time>2021-03-14T09:02:17Z</time>
      </trkpt>
      <trkpt lat="45.57055" lon="4.83948">
        <ele>169.08203</ele>
        <time>2021-03-14T09:02:19Z</time>
      </trkpt>
      <trkpt lat="45.57056" lon="4.83955">
        <ele>169.27228</ele>
        <time>2021-03-14T09:02:22Z</time>
      </trkpt>
      <trkpt lat="45.57055" lon="4.83963">
        <ele>169.93814</ele>
        <time>2021-03-14T09:02:26Z</time>
      </trkpt>
      <trkpt lat="45.57056" lon="4.83972">
        <ele>170.29752</ele>
        <time>2021-03-14T09:02:29Z</time>
      </trkpt>
      <trkpt lat="45.57058" lon="4.8398">
        <ele>171.54996</ele>
        <time>2021-03-14T09:02:32Z</time>
      </trkpt>
      <trkpt lat="45.5706" lon="4.83987">
        <ele>172.61745</ele>
        <time>2021-03-14T09:02:35Z</time>
      </trkpt>
      <trkpt lat="45.57061" lon="4.83994">
        <ele>173.19878</ele>
        <time>2021-03-14T09:02:37Z</time>
      </trkpt>
      <trkpt lat="45.57061" lon="4.84002">
        <ele>174.23984</ele>
        <time>2021-03-14T09:02:39Z</time>
      </trkpt>
      <trkpt lat="45.57061" lon="4.84009">
        <ele>175.21222</ele>
        <time>2021-03-14T09:02:42Z</time>
      </trkpt>
      <trkpt lat="45.57063" lon="4.84017">
        <ele>176.16873</ele>
        <time>2021-03-14T09:02:45Z</time>
      </trkpt>
      <trkpt lat="45.57065" lon="4.84025">
        <ele>176.57037</ele>
        <time>2021-03-14T09:02:47Z</time>
      </trkpt>
      <trkpt lat="45.57068" lon="4.84032">
        <ele>177.4212</ele>
        <time>2021-03-14T09:02:49Z</time>
      </trkpt>
      <trkpt lat="45.57069" lon="4.84039">
        <ele>178.64194</ele>
        <time>2021-03-14T09:02:53Z</time>
      </trkpt>
      <trkpt lat="45.57072" lon="4.84047">
        <ele>179.95255</ele>
        <time>2021-03-14T09:02:56Z</time>
      </trkpt>
      <trkpt lat="45.57075" lon="4.84053">
        <ele>180.54971</ele>
        <time>2021-03-14T09:02:58Z</time>
      </trkpt>
      <trkpt lat="45.57079" lon="4.84059">
        <ele>181.25784</ele>
        <time>2021-03-14T09:03:00Z</time>
      </trkpt>
      <trkpt lat="45.57081" lon="4.84065">
        <ele>181.90785</ele>
        <time>2021-03-14T09:03:02Z</time>
      </trkpt>
      <trkpt lat="45.57084" lon="4.84072">
        <ele>182.38876</ele>
        <time>2021-03-14T09:03:04Z</time>
      </trkpt>
      <trkpt lat="45.57089" lon="4.84081">
        <ele>182.72696</ele>
        <time>2021-03-14T09:03:06Z</time>
      </trkpt>
      <trkpt lat="45.57093" lon="4.84088">
        <ele>183.72577</ele>
        <time>2021-03-14T09:03:08Z</time>
      </trkpt>
      <trkpt lat="45.57097" lon="4.84095">
        <ele>184.3705</ele>
        <time>2021-03-14T09:03:11Z</time>
      </trkpt>
      <trkpt lat="45.57103" lon="4.84101">
        <ele>185.24246</ele>
        <time>2021-03-14T09:03:13Z</time>
      </trkpt>
      <trkpt lat="45.57106" lon="4.84106">
        <ele>185.9189</ele>
        <time>2021-03-14T09:03:15Z</time>
      </trkpt>
      <trkpt lat="45.57112" lon="4.8411">
        <ele>186.85426</ele>
        <time>2021-03-14T09:03:18Z</time>
      </trkpt>
      <trkpt lat="45.57118" lon="4.84112">
        <ele>187.86363</ele>
        <time>2021-03-14T09:03:21Z</time>
      </trkpt>
      <trkpt lat="45.57123" lon="4.84115">
        <ele>188.51894</ele>
        <time>2021-03-14T09:03:23Z</time>
      </trkpt>
      <trkpt lat="45.57128" lon="4.84117">
        <ele>189.34334</ele>
        <time>2021-03-14T09:03:26Z</time>
      </trkpt>
      <trkpt lat="45.57134" lon="4.84119">
        <ele>190.30513</ele>
        <time>2021-03-14T09:03:29Z</time>
      </trkpt>
      <trkpt lat="45.57138" lon="4.84119">
        <ele>190.78604</ele>
        <time>2021-03-14T09:03:31Z</time>
      </trkpt>
      <trkpt lat="45.57144" lon="4.84119">
        <ele>191.39906</ele>
        <time>2021-03-14T09:03:34Z</time>
      </trkpt>
      <trkpt lat="45.5715" lon="4.8412">
        <ele>191.75314</ele>
        <time>2021-03-14T09:03:37Z</time>
      </trkpt>
      <trkpt lat="45.57155" lon="4.84119">
        <ele>192.77837</ele>
        <time>2021-03-14T09:03:40Z</time>
      </trkpt>
      <trkpt lat="45.5716" lon="4.8412">
        <ele>193.3174</ele>
        <time>2021-03-14T09:03:43Z</time>
      </trkpt>
      <trkpt lat="45.57166" lon="4.84121">
        <ele>193.9991</ele>
        <time>2021-03-14T09:03:47Z</time>
      </trkpt>
      <trkpt lat="45.57171" lon="4.8412">
        <ele>194.52757</ele>
        <time>2021-03-14T09:03:49Z</time>
      </trkpt>
      <trkpt lat="45.57176" lon="4.8412">
        <ele>194.94505</ele>
        <time>2021-03-14T09:03:51Z</time>
      </trkpt>
      <trkpt lat="45.57183" lon="4.84123">
        <ele>195.49466</ele>
        <time>2021-03-14T09:03:53Z</time>
      </trkpt>
      <trkpt lat="45.57188" lon="4.84124">
        <ele>195.57393</ele>
        <time>2021-03-14T09:03:55Z</time>
      </trkpt>
      <trkpt lat="45.57193" lon="4.84125">
        <ele>196.04425</ele>
        <time>2021-03-14T09:03:57Z</time>
      </trkpt>
      <trkpt lat="45.57199" lon="4.84125">
        <ele>196.25565</ele>
        <time>2021-03-14T09:03:59Z</time>
      </trkpt>
      <trkpt lat="45.57204" lon="4.84127">
        <ele>196.8264</ele>
        <time>2021-03-14T09:04:01Z</time>
      </trkpt>
      <trkpt lat="45.57209" lon="4.84128">
        <ele>197.36543</ele>
        <time>2021-03-14T09:04:03Z</time>
      </trkpt>
      <trkpt lat="45.57215" lon="4.8413">
        <ele>197.16461</ele>
        <time>2021-03-14T09:04:05Z</time>
      </trkpt>
      <trkpt lat="45.57221" lon="4.84132">
        <ele>197.6508</ele>
        <time>2021-03-14T09:04:07Z</time>
      </trkpt>
      <trkpt lat="45.57226" lon="4.84133">
        <ele>197.12761</ele>
        <time>2021-03-14T09:04:09Z</time>
      </trkpt>
      <trkpt lat="45.57232" lon="4.84135">
        <ele>197.56094</ele>
        <time>2021-03-14T09:04:11Z</time>
      </trkpt>
      <trkpt lat="45.57238" lon="4.84136">
        <ele>197.69307</ele>
        <time>2021-03-14T09:04:13Z</time>
      </trkpt>
      <trkpt lat="45.57243" lon="4.84136">
        <ele>197.339</ele>
        <time>2021-03-14T09:04:15Z</time>
      </trkpt>
      <trkpt lat="45.57249" lon="4.84136">
        <ele>197.70363</ele>
        <time>2021-03-14T09:04:18Z</time>
      </trkpt>
      <trkpt lat="45.57254" lon="4.84134">
        <ele>197.38655</ele>
        <time>2021-03-14T09:04:20Z</time>
      </trkpt>
      <trkpt lat="45.57259" lon="4.84133">
        <ele>197.63493</ele>
        <time>2021-03-14T09:04:22Z</time>
      </trkpt>
      <trkpt lat="45.57265" lon="4.84134">
        <ele>197.90445</ele>
        <time>2021-03-14T09:04:24Z</time>
      </trkpt>
      <trkpt lat="45.5727" lon="4.84133">
        <ele>197.339</ele>
        <time>2021-03-14T09:04:26Z</time>
      </trkpt>
      <trkpt lat="45.57277" lon="4.84133">
        <ele>197.77763</ele>
        <time>2021-03-14T09:04:28Z</time>
      </trkpt>
      <trkpt lat="45.57282" lon="4.84135">
        <ele>198.34837</ele>
        <time>2021-03-14T09:04:30Z</time>
      </trkpt>
      <trkpt lat="45.57287" lon="4.84136">
        <ele>198.21625</ele>
        <time>2021-03-14T09:04:32Z</time>
      </trkpt>
      <trkpt lat="45.57291" lon="4.84137">
        <ele>198.16339</ele>
        <time>2021-03-14T09:04:34Z</time>
      </trkpt>
      <trkpt lat="45.57296" lon="4.84138">
        <ele>198.15283</ele>
        <time>2021-03-14T09:04:36Z</time>
      </trkpt>
      <trkpt lat="45.57302" lon="4.8414">
        <ele>198.77115</ele>
        <time>2021-03-14T09:04:39Z</time>
      </trkpt>
      <trkpt lat="45.57307" lon="4.84143">
        <ele>198.84512</ele>
        <time>2021-03-14T09:04:42Z</time>
      </trkpt>
      <trkpt lat="45.57312" lon="4.84145">
        <ele>198.69186</ele>
        <time>2021-03-14T09:04:45Z</time>
      </trkpt>
      <trkpt lat="45.57318" lon="4.84148">
        <ele>198.87155</ele>
        <time>2021-03-14T09:04:47Z</time>
      </trkpt>
      <trkpt lat="45.57323" lon="4.8415">
        <ele>199.08293</ele>
        <time>2021-03-14T09:04:49Z</time>
      </trkpt>
      <trkpt lat="45.57328" lon="4.84152">
        <ele>199.42114</ele>
        <time>2021-03-14T09:04:51Z</time>
      </trkpt>
      <trkpt lat="45.57334" lon="4.84154">
        <ele>199.62724</ele>
        <time>2021-03-14T09:04:53Z</time>
      </trkpt>
      <trkpt lat="45.5734" lon="4.84155">
        <ele>199.76465</ele>
        <time>2021-03-14T09:04:55Z</time>
      </trkpt>
      <trkpt lat="45.57346" lon="4.84157">
        <ele>200.21913</ele>
        <time>2021-03-14T09:04:57Z</time>
      </trkpt>
      <trkpt lat="45.57352" lon="4.84158">
        <ele>200.47807</ele>
        <time>2021-03-14T09:04:59Z</time>
      </trkpt>
      <trkpt lat="45.57357" lon="4.8416">
        <ele>200.83742</ele>
        <time>2021-03-14T09:05:01Z</time>
      </trkpt>
      <trkpt lat="45.57362" lon="4.84162">
        <ele>201.24435</ele>
        <time>2021-03-14T09:05:03Z</time>
      </trkpt>
      <trkpt lat="45.57367" lon="4.84163">
        <ele>201.45573</ele>
        <time>2021-03-14T09:05:05Z</time>
      </trkpt>
      <trkpt lat="45.57373" lon="4.84163">
        <ele>202.42282</ele>
        <time>2021-03-14T09:05:07Z</time>
      </trkpt>
      <trkpt lat="45.57377" lon="4.8416">
        <ele>202.29071</ele>
        <time>2021-03-14T09:05:09Z</time>
      </trkpt>
      <trkpt lat="45.57379" lon="4.84154">
        <ele>203.58543</ele>
        <time>2021-03-14T09:05:11Z</time>
      </trkpt>
      <trkpt lat="45.57378" lon="4.84147">
        <ele>203.54845</ele>
        <time>2021-03-14T09:05:13Z</time>
      </trkpt>
      <trkpt lat="45.57376" lon="4.8414">
        <ele>203.63829</ele>
        <time>2021-03-14T09:05:15Z</time>
      </trkpt>
      <trkpt lat="45.57374" lon="4.84133">
        <ele>203.50616</ele>
        <time>2021-03-14T09:05:17Z</time>
      </trkpt>
      <trkpt lat="45.57372" lon="4.84125">
        <ele>203.8761</ele>
        <time>2021-03-14T09:05:19Z</time>
      </trkpt>
      <trkpt lat="45.5737" lon="4.84118">
        <ele>204.21959</ele>
        <time>2021-03-14T09:05:21Z</time>
      </trkpt>
      <trkpt lat="45.57367" lon="4.84111">
        <ele>204.12976</ele>
        <time>2021-03-14T09:05:23Z</time>
      </trkpt>
      <trkpt lat="45.57366" lon="4.84104">
        <ele>204.81676</ele>
        <time>2021-03-14T09:05:25Z</time>
      </trkpt>
      <trkpt lat="45.57364" lon="4.84097">
        <ele>204.47855</ele>
        <time>2021-03-14T09:05:27Z</time>
      </trkpt>
      <trkpt lat="45.57362" lon="4.8409">
        <ele>205.11272</ele>
        <time>2021-03-14T09:05:29Z</time>
      </trkpt>
      <trkpt lat="45.57361" lon="4.84081">
        <ele>206.16963</ele>
        <time>2021-03-14T09:05:32Z</time>
      </trkpt>
      <trkpt lat="45.57359" lon="4.84074">
        <ele>206.29646</ele>
        <time>2021-03-14T09:05:34Z</time>
      </trkpt>
      <trkpt lat="45.57357" lon="4.84067">
        <ele>206.68224</ele>
        <time>2021-03-14T09:05:36Z</time>
      </trkpt>
      <trkpt lat="45.57356" lon="4.84061">
        <ele>206.94647</ele>
        <time>2021-03-14T09:05:38Z</time>
      </trkpt>
      <trkpt lat="45.57354" lon="4.84051">
        <ele>207.67575</ele>
        <time>2021-03-14T09:05:41Z</time>
      </trkpt>
      <trkpt lat="45.57352" lon="4.84045">
        <ele>207.88713</ele>
        <time>2021-03-14T09:05:43Z</time>
      </trkpt>
      <trkpt lat="45.57351" lon="4.84038">
        <ele>208.64285</ele>
        <time>2021-03-14T09:05:45Z</time>
      </trkpt>
      <trkpt lat="45.57349" lon="4.84032">
        <ele>209.07089</ele>
        <time>2021-03-14T09:05:47Z</time>
      </trkpt>
      <trkpt lat="45.57348" lon="4.84025">
        <ele>209.62051</ele>
        <time>2021-03-14T09:05:49Z</time>
      </trkpt>
      <trkpt lat="45.57347" lon="4.84018">
        <ele>209.78432</ele>
        <time>2021-03-14T09:05:51Z</time>
      </trkpt>
      <trkpt lat="45.57347" lon="4.84011">
        <ele>210.26523</ele>
        <time>2021-03-14T09:05:53Z</time>
      </trkpt>
      <trkpt lat="45.57346" lon="4.84003">
        <ele>211.24289</ele>
        <time>2021-03-14T09:05:55Z</time>
      </trkpt>
      <trkpt lat="45.57346" lon="4.83994">
        <ele>210.80426</ele>
        <time>2021-03-14T09:05:58Z</time>
      </trkpt>
      <trkpt lat="45.57347" lon="4.83985">
        <ele>211.03151</ele>
        <time>2021-03-14T09:06:01Z</time>
      </trkpt>
      <trkpt lat="45.57348" lon="4.83978">
        <ele>210.48718</ele>
        <time>2021-03-14T09:06:03Z</time>
      </trkpt>
      <trkpt lat="45.57349" lon="4.83972">
        <ele>210.88354</ele>
        <time>2021-03-14T09:06:05Z</time>
      </trkpt>
      <trkpt lat="45.5735" lon="4.83962">
        <ele>210.87823</ele>
        <time>2021-03-14T09:06:08Z</time>
      </trkpt>
      <trkpt lat="45.57351" lon="4.83955">
        <ele>211.04735</ele>
        <time>2021-03-14T09:06:10Z</time>
      </trkpt>
      <trkpt lat="45.57352" lon="4.83949">
        <ele>210.83069</ele>
        <time>2021-03-14T09:06:12Z</time>
      </trkpt>
      <trkpt lat="45.57353" lon="4.83941">
        <ele>210.83069</ele>
        <time>2021-03-14T09:06:14Z</time>
      </trkpt>
      <trkpt lat="45.57354" lon="4.83934">
        <ele>211.29573</ele>
        <time>2021-03-14T09:06:16Z</time>
      </trkpt>
      <trkpt lat="45.57355" lon="4.83925">
        <ele>210.3445</ele>
        <time>2021-03-14T09:06:19Z</time>
      </trkpt>
      <trkpt lat="45.57356" lon="4.83918">
        <ele>210.05913</ele>
        <time>2021-03-14T09:06:21Z</time>
      </trkpt>
      <trkpt lat="45.57358" lon="4.83909">
        <ele>210.09084</ele>
        <time>2021-03-14T09:06:24Z</time>
      </trkpt>
      <trkpt lat="45.57359" lon="4.839">
        <ele>209.7949</ele>
        <time>2021-03-14T09:06:27Z</time>
      </trkpt>
      <trkpt lat="45.57361" lon="4.83893">
        <ele>209.48839</ele>
        <time>2021-03-14T09:06:29Z</time>
      </trkpt>
      <trkpt lat="45.57362" lon="4.83886">
        <ele>207.92415</ele>
        <time>2021-03-14T09:06:31Z</time>
      </trkpt>
      <trkpt lat="45.57364" lon="4.83878">
        <ele>208.3099</ele>
        <time>2021-03-14T09:06:33Z</time>
      </trkpt>
      <trkpt lat="45.57365" lon="4.83872">
        <ele>208.2465</ele>
        <time>2021-03-14T09:06:35Z</time>
      </trkpt>
      <trkpt lat="45.57367" lon="4.83864">
        <ele>207.2794</ele>
        <time>2021-03-14T09:06:37Z</time>
      </trkpt>
      <trkpt lat="45.57369" lon="4.83857">
        <ele>207.58592</ele>
        <time>2021-03-14T09:06:39Z</time>
      </trkpt>
      <trkpt lat="45.57371" lon="4.8385">
        <ele>207.39038</ele>
        <time>2021-03-14T09:06:41Z</time>
      </trkpt>
      <trkpt lat="45.57373" lon="4.83842">
        <ele>206.71922</ele>
        <time>2021-03-14T09:06:43Z</time>
      </trkpt>
      <trkpt lat="45.57374" lon="4.83835">
        <ele>206.8725</ele>
        <time>2021-03-14T09:06:45Z</time>
      </trkpt>
      <trkpt lat="45.57376" lon="4.83828">
        <ele>206.29118</ele>
        <time>2021-03-14T09:06:47Z</time>
      </trkpt>
      <trkpt lat="45.57378" lon="4.83822">
        <ele>205.71516</ele>
        <time>2021-03-14T09:06:49Z</time>
      </trkpt>
      <trkpt lat="45.5738" lon="4.83816">
        <ele>205.93182</ele>
        <time>2021-03-14T09:06:51Z</time>
      </trkpt>
      <trkpt lat="45.57381" lon="4.83809">
        <ele>205.87369</ele>
        <time>2021-03-14T09:06:53Z</time>
      </trkpt>
      <trkpt lat="45.57383" lon="4.83802">
        <ele>205.13911</ele>
        <time>2021-03-14T09:06:55Z</time>
      </trkpt>
      <trkpt lat="45.57385" lon="4.83795">
        <ele>205.36636</ele>
        <time>2021-03-14T09:06:57Z</time>
      </trkpt>
      <trkpt lat="45.57387" lon="4.83788">
        <ele>205.12328</ele>
        <time>2021-03-14T09:06:59Z</time>
      </trkpt>
      <trkpt lat="45.57389" lon="4.8378">
        <ele>204.6001</ele>
        <time>2021-03-14T09:07:01Z</time>
      </trkpt>
      <trkpt lat="45.5739" lon="4.83773">
        <ele>204.91718</ele>
        <time>2021-03-14T09:07:03Z</time>
      </trkpt>
      <trkpt lat="45.57393" lon="4.83766">
        <ele>204.09805</ele>
        <time>2021-03-14T09:07:05Z</time>
      </trkpt>
      <trkpt lat="45.57394" lon="4.83759">
        <ele>203.38992</ele>
        <time>2021-03-14T09:07:07Z</time>
      </trkpt>
      <trkpt lat="45.57397" lon="4.8375">
        <ele>202.71349</ele>
        <time>2021-03-14T09:07:09Z</time>
      </trkpt>
      <trkpt lat="45.57399" lon="4.83743">
        <ele>202.82446</ele>
        <time>2021-03-14T09:07:11Z</time>
      </trkpt>
      <trkpt lat="45.57401" lon="4.83735">
        <ele>202.69762</ele>
        <time>2021-03-14T09:07:13Z</time>
      </trkpt>
      <trkpt lat="45.57403" lon="4.83727">
        <ele>202.30128</ele>
        <time>2021-03-14T09:07:15Z</time>
      </trkpt>
      <trkpt lat="45.57405" lon="4.8372">
        <ele>201.71468</ele>
        <time>2021-03-14T09:07:17Z</time>
      </trkpt>
      <trkpt lat="45.57406" lon="4.83713">
        <ele>202.03703</ele>
        <time>2021-03-14T09:07:19Z</time>
      </trkpt>
      <trkpt lat="45.57408" lon="4.83706">
        <ele>201.59842</ele>
        <time>2021-03-14T09:07:21Z</time>
      </trkpt>
      <trkpt lat="45.5741" lon="4.837">
        <ele>201.04881</ele>
        <time>2021-03-14T09:07:23Z</time>
      </trkpt>
      <trkpt lat="45.57412" lon="4.83693">
        <ele>200.2984</ele>
        <time>2021-03-14T09:07:25Z</time>
      </trkpt>
      <trkpt lat="45.57414" lon="4.83687">
        <ele>200.10815</ele>
        <time>2021-03-14T09:07:27Z</time>
      </trkpt>
      <trkpt lat="45.57415" lon="4.83681">
        <ele>199.51628</ele>
        <time>2021-03-14T09:07:29Z</time>
      </trkpt>
      <trkpt lat="45.57416" lon="4.83674">
        <ele>199.31544</ele>
        <time>2021-03-14T09:07:31Z</time>
      </trkpt>
      <trkpt lat="45.57418" lon="4.83668">
        <ele>198.20041</ele>
        <time>2021-03-14T09:07:33Z</time>
      </trkpt>
      <trkpt lat="45.57419" lon="4.83661">
        <ele>197.83575</ele>
        <time>2021-03-14T09:07:35Z</time>
      </trkpt>
      <trkpt lat="45.57421" lon="4.83655">
        <ele>197.44469</ele>
        <time>2021-03-14T09:07:37Z</time>
      </trkpt>
      <trkpt lat="45.57423" lon="4.83648">
        <ele>197.4394</ele>
        <time>2021-03-14T09:07:39Z</time>
      </trkpt>
      <trkpt lat="45.57425" lon="4.8364">
        <ele>196.81053</ele>
        <time>2021-03-14T09:07:41Z</time>
      </trkpt>
      <trkpt lat="45.57427" lon="4.83633">
        <ele>196.31378</ele>
        <time>2021-03-14T09:07:43Z</time>
      </trkpt>
      <trkpt lat="45.57429" lon="4.83626">
        <ele>194.82352</ele>
        <time>2021-03-14T09:07:45Z</time>
      </trkpt>
      <trkpt lat="45.57431" lon="4.83619">
        <ele>195.21986</ele>
        <time>2021-03-14T09:07:47Z</time>
      </trkpt>
      <trkpt lat="45.57433" lon="4.83613">
        <ele>194.68611</ele>
        <time>2021-03-14T09:07:49Z</time>
      </trkpt>
      <trkpt lat="45.57435" lon="4.83606">
        <ele>194.23692</ele>
        <time>2021-03-14T09:07:51Z</time>
      </trkpt>
      <trkpt lat="45.57437" lon="4.83599">
        <ele>193.65031</ele>
        <time>2021-03-14T09:07:53Z</time>
      </trkpt>
      <trkpt lat="45.57439" lon="4.83591">
        <ele>192.98445</ele>
        <time>2021-03-14T09:07:55Z</time>
      </trkpt>
      <trkpt lat="45.57441" lon="4.83584">
        <ele>192.92633</ele>
        <time>2021-03-14T09:07:57Z</time>
      </trkpt>
      <trkpt lat="45.57443" lon="4.83576">
        <ele>191.83769</ele>
        <time>2021-03-14T09:07:59Z</time>
      </trkpt>
      <trkpt lat="45.57444" lon="4.83569">
        <ele>191.43607</ele>
        <time>2021-03-14T09:08:01Z</time>
      </trkpt>
      <trkpt lat="45.57447" lon="4.83561">
        <ele>190.69621</ele>
        <time>2021-03-14T09:08:03Z</time>
      </trkpt>
      <trkpt lat="45.57449" lon="4.83553">
        <ele>190.321</ele>
        <time>2021-03-14T09:08:05Z</time>
      </trkpt>
      <trkpt lat="45.57451" lon="4.83546">
        <ele>189.3222</ele>
        <time>2021-03-14T09:08:07Z</time>
      </trkpt>
      <trkpt lat="45.57454" lon="4.8354">
        <ele>188.90472</ele>
        <time>2021-03-14T09:08:09Z</time>
      </trkpt>
      <trkpt lat="45.57456" lon="4.83531">
        <ele>187.85307</ele>
        <time>2021-03-14T09:08:12Z</time>
      </trkpt>
      <trkpt lat="45.57459" lon="4.83525">
        <ele>187.39331</ele>
        <time>2021-03-14T09:08:14Z</time>
      </trkpt>
      <trkpt lat="45.57464" lon="4.8352">
        <ele>186.83315</ele>
        <time>2021-03-14T09:08:16Z</time>
      </trkpt>
      <trkpt lat="45.5747" lon="4.83517">
        <ele>186.27296</ele>
        <time>2021-03-14T09:08:18Z</time>
      </trkpt>
      <trkpt lat="45.57475" lon="4.83515">
        <ele>185.89775</ele>
        <time>2021-03-14T09:08:20Z</time>
      </trkpt>
      <trkpt lat="45.57482" lon="4.83513">
        <ele>185.79205</ele>
        <time>2021-03-14T09:08:23Z</time>
      </trkpt>
      <trkpt lat="45.57487" lon="4.83511">
        <ele>185.76035</ele>
        <time>2021-03-14T09:08:25Z</time>
      </trkpt>
      <trkpt lat="45.57491" lon="4.83506">
        <ele>186.16199</ele>
        <time>2021-03-14T09:08:27Z</time>
      </trkpt>
      <trkpt lat="45.57496" lon="4.83501">
        <ele>185.76564</ele>
        <time>2021-03-14T09:08:29Z</time>
      </trkpt>
      <trkpt lat="45.575" lon="4.83495">
        <ele>186.6006</ele>
        <time>2021-03-14T09:08:31Z</time>
      </trkpt>
      <trkpt lat="45.57503" lon="4.83489">
        <ele>186.7063</ele>
        <time>2021-03-14T09:08:33Z</time>
      </trkpt>
      <trkpt lat="45.57505" lon="4.83483">
        <ele>186.34166</ele>
        <time>2021-03-14T09:08:35Z</time>
      </trkpt>
      <trkpt lat="45.57508" lon="4.83477">
        <ele>186.68518</ele>
        <time>2021-03-14T09:08:37Z</time>
      </trkpt>
      <trkpt lat="45.5751" lon="4.83471">
        <ele>186.4315</ele>
        <time>2021-03-14T09:08:39Z</time>
      </trkpt>
      <trkpt lat="45.57512" lon="4.83465">
        <ele>187.02866</ele>
        <time>2021-03-14T09:08:41Z</time>
      </trkpt>
      <trkpt lat="45.57514" lon="4.83458">
        <ele>187.1555</ele>
        <time>2021-03-14T09:08:43Z</time>
      </trkpt>
      <trkpt lat="45.57515" lon="4.83449">
        <ele>187.80022</ele>
        <time>2021-03-14T09:08:46Z</time>
      </trkpt>
      <trkpt lat="45.57515" lon="4.83442">
        <ele>188.00104</ele>
        <time>2021-03-14T09:08:48Z</time>
      </trkpt>
      <trkpt lat="45.57515" lon="4.83435">
        <ele>188.46608</ele>
        <time>2021-03-14T09:08:50Z</time>
      </trkpt>
      <trkpt lat="45.57515" lon="4.83428">
        <ele>188.57178</ele>
        <time>2021-03-14T09:08:52Z</time>
      </trkpt>
      <trkpt lat="45.57515" lon="4.8342">
        <ele>188.77788</ele>
        <time>2021-03-14T09:08:54Z</time>
      </trkpt>
      <trkpt lat="45.57515" lon="4.83412">
        <ele>188.76732</ele>
        <time>2021-03-14T09:08:56Z</time>
      </trkpt>
      <trkpt lat="45.57515" lon="4.83405">
        <ele>189.20593</ele>
        <time>2021-03-14T09:08:58Z</time>
      </trkpt>
      <trkpt lat="45.57515" lon="4.83398">
        <ele>189.3962</ele>
        <time>2021-03-14T09:09:00Z</time>
      </trkpt>
      <trkpt lat="45.57515" lon="4.83391">
        <ele>189.88766</ele>
        <time>2021-03-14T09:09:02Z</time>
      </trkpt>
      <trkpt lat="45.57515" lon="4.83384">
        <ele>190.35799</ele>
        <time>2021-03-14T09:09:04Z</time>
      </trkpt>
      <trkpt lat="45.57514" lon="4.83376">
        <ele>191.20882</ele>
        <time>2021-03-14T09:09:07Z</time>
      </trkpt>
      <trkpt lat="45.57514" lon="4.83368">
        <ele>191.90111</ele>
        <time>2021-03-14T09:09:10Z</time>
      </trkpt>
      <trkpt lat="45.57512" lon="4.83361">
        <ele>192.46657</ele>
        <time>2021-03-14T09:09:13Z</time>
      </trkpt>
      <trkpt lat="45.57513" lon="4.83351">
        <ele>193.56049</ele>
        <time>2021-03-14T09:09:16Z</time>
      </trkpt>
      <trkpt lat="45.57512" lon="4.83345">
        <ele>194.68611</ele>
        <time>2021-03-14T09:09:18Z</time>
      </trkpt>
      <trkpt lat="45.57512" lon="4.83337">
        <ele>194.95563</ele>
        <time>2021-03-14T09:09:20Z</time>
      </trkpt>
      <trkpt lat="45.57512" lon="4.8333">
        <ele>195.4524</ele>
        <time>2021-03-14T09:09:22Z</time>
      </trkpt>
      <trkpt lat="45.57512" lon="4.83323">
        <ele>196.07597</ele>
        <time>2021-03-14T09:09:24Z</time>
      </trkpt>
      <trkpt lat="45.57513" lon="4.83316">
        <ele>195.928</ele>
        <time>2021-03-14T09:09:26Z</time>
      </trkpt>
      <trkpt lat="45.57514" lon="4.83307">
        <ele>196.44061</ele>
        <time>2021-03-14T09:09:29Z</time>
      </trkpt>
      <trkpt lat="45.57515" lon="4.83299">
        <ele>196.19225</ele>
        <time>2021-03-14T09:09:31Z</time>
      </trkpt>
      <trkpt lat="45.57516" lon="4.83291">
        <ele>197.12761</ele>
        <time>2021-03-14T09:09:32Z</time>
      </trkpt>
      <trkpt lat="45.57521" lon="4.83276">
        <ele>195.89629</ele>
        <time>2021-03-14T09:09:33Z</time>
      </trkpt>
      <trkpt lat="45.57526" lon="4.83269">
        <ele>195.90158</ele>
        <time>2021-03-14T09:09:34Z</time>
      </trkpt>
      <trkpt lat="45.57527" lon="4.83259">
        <ele>194.26863</ele>
        <time>2021-03-14T09:09:36Z</time>
      </trkpt>
      <trkpt lat="45.57528" lon="4.83251">
        <ele>194.67554</ele>
        <time>2021-03-14T09:09:38Z</time>
      </trkpt>
      <trkpt lat="45.57528" lon="4.83243">
        <ele>195.37311</ele>
        <time>2021-03-14T09:09:40Z</time>
      </trkpt>
      <trkpt lat="45.57527" lon="4.83235">
        <ele>195.42068</ele>
        <time>2021-03-14T09:09:42Z</time>
      </trkpt>
      <trkpt lat="45.57526" lon="4.83227">
        <ele>196.11296</ele>
        <time>2021-03-14T09:09:44Z</time>
      </trkpt>
      <trkpt lat="45.57526" lon="4.83219">
        <ele>195.97556</ele>
        <time>2021-03-14T09:09:46Z</time>
      </trkpt>
      <trkpt lat="45.57524" lon="4.83213">
        <ele>196.67842</ele>
        <time>2021-03-14T09:09:48Z</time>
      </trkpt>
      <trkpt lat="45.57524" lon="4.83206">
        <ele>197.53983</ele>
        <time>2021-03-14T09:09:50Z</time>
      </trkpt>
      <trkpt lat="45.57523" lon="4.83199">
        <ele>198.07356</ele>
        <time>2021-03-14T09:09:52Z</time>
      </trkpt>
      <trkpt lat="45.57523" lon="4.83192">
        <ele>198.24796</ele>
        <time>2021-03-14T09:09:54Z</time>
      </trkpt>
      <trkpt lat="45.57522" lon="4.83185">
        <ele>198.39592</ele>
        <time>2021-03-14T09:09:56Z</time>
      </trkpt>
      <trkpt lat="45.57521" lon="4.83177">
        <ele>198.89268</ele>
        <time>2021-03-14T09:09:58Z</time>
      </trkpt>
      <trkpt lat="45.57519" lon="4.83169">
        <ele>199.94432</ele>
        <time>2021-03-14T09:10:00Z</time>
      </trkpt>
      <trkpt lat="45.57519" lon="4.83161">
        <ele>199.29433</ele>
        <time>2021-03-14T09:10:02Z</time>
      </trkpt>
      <trkpt lat="45.57518" lon="4.83154">
        <ele>199.45813</ele>
        <time>2021-03-14T09:10:04Z</time>
      </trkpt>
      <trkpt lat="45.57518" lon="4.83146">
        <ele>199.61668</ele>
        <time>2021-03-14T09:10:06Z</time>
      </trkpt>
      <trkpt lat="45.57518" lon="4.83138">
        <ele>199.83864</ele>
        <time>2021-03-14T09:10:08Z</time>
      </trkpt>
      <trkpt lat="45.57519" lon="4.83125">
        <ele>199.5427</ele>
        <time>2021-03-14T09:10:11Z</time>
      </trkpt>
      <trkpt lat="45.57521" lon="4.83117">
        <ele>199.36302</ele>
        <time>2021-03-14T09:10:13Z</time>
      </trkpt>
      <trkpt lat="45.57522" lon="4.8311">
        <ele>199.43701</ele>
        <time>2021-03-14T09:10:15Z</time>
      </trkpt>
      <trkpt lat="45.57523" lon="4.83101">
        <ele>199.46872</ele>
        <time>2021-03-14T09:10:17Z</time>
      </trkpt>
      <trkpt lat="45.57525" lon="4.83093">
        <ele>198.98253</ele>
        <time>2021-03-14T09:10:19Z</time>
      </trkpt>
      <trkpt lat="45.57526" lon="4.83085">
        <ele>198.52277</ele>
        <time>2021-03-14T09:10:21Z</time>
      </trkpt>
      <trkpt lat="45.57528" lon="4.83078">
        <ele>198.54918</ele>
        <time>2021-03-14T09:10:23Z</time>
      </trkpt>
      <trkpt lat="45.5753" lon="4.8307">
        <ele>198.68129</ele>
        <time>2021-03-14T09:10:25Z</time>
      </trkpt>
      <trkpt lat="45.57533" lon="4.83062">
        <ele>198.6443</ele>
        <time>2021-03-14T09:10:27Z</time>
      </trkpt>
      <trkpt lat="45.57535" lon="4.83055">
        <ele>198.33778</ele>
        <time>2021-03-14T09:10:29Z</time>
      </trkpt>
      <trkpt lat="45.57537" lon="4.83048">
        <ele>199.01424</ele>
        <time>2021-03-14T09:10:31Z</time>
      </trkpt>
      <trkpt lat="45.57538" lon="4.8304">
        <ele>198.4065</ele>
        <time>2021-03-14T09:10:33Z</time>
      </trkpt>
      <trkpt lat="45.5754" lon="4.83033">
        <ele>197.84103</ele>
        <time>2021-03-14T09:10:35Z</time>
      </trkpt>
      <trkpt lat="45.57542" lon="4.83025">
        <ele>198.3431</ele>
        <time>2021-03-14T09:10:37Z</time>
      </trkpt>
      <trkpt lat="45.57545" lon="4.83017">
        <ele>197.9573</ele>
        <time>2021-03-14T09:10:39Z</time>
      </trkpt>
      <trkpt lat="45.57546" lon="4.8301">
        <ele>198.29552</ele>
        <time>2021-03-14T09:10:41Z</time>
      </trkpt>
      <trkpt lat="45.57546" lon="4.83003">
        <ele>198.49634</ele>
        <time>2021-03-14T09:10:43Z</time>
      </trkpt>
      <trkpt lat="45.5755" lon="4.82997">
        <ele>198.1687</ele>
        <time>2021-03-14T09:10:46Z</time>
      </trkpt>
      <trkpt lat="45.57554" lon="4.83004">
        <ele>197.94673</ele>
        <time>2021-03-14T09:10:49Z</time>
      </trkpt>
      <trkpt lat="45.57558" lon="4.83009">
        <ele>198.1317</ele>
        <time>2021-03-14T09:10:51Z</time>
      </trkpt>
      <trkpt lat="45.57563" lon="4.83015">
        <ele>199.0618</ele>
        <time>2021-03-14T09:10:53Z</time>
      </trkpt>
      <trkpt lat="45.57567" lon="4.8302">
        <ele>199.10406</ele>
        <time>2021-03-14T09:10:55Z</time>
      </trkpt>
      <trkpt lat="45.57571" lon="4.83024">
        <ele>198.82397</ele>
        <time>2021-03-14T09:10:57Z</time>
      </trkpt>
      <trkpt lat="45.57577" lon="4.83028">
        <ele>198.63902</ele>
        <time>2021-03-14T09:10:59Z</time>
      </trkpt>
      <trkpt lat="45.57581" lon="4.83032">
        <ele>199.24675</ele>
        <time>2021-03-14T09:11:01Z</time>
      </trkpt>
      <trkpt lat="45.57586" lon="4.83038">
        <ele>199.42114</ele>
        <time>2021-03-14T09:11:04Z</time>
      </trkpt>
      <trkpt lat="45.5759" lon="4.83042">
        <ele>199.34187</ele>
        <time>2021-03-14T09:11:06Z</time>
      </trkpt>
      <trkpt lat="45.57595" lon="4.83046">
        <ele>199.52684</ele>
        <time>2021-03-14T09:11:08Z</time>
      </trkpt>
      <trkpt lat="45.576" lon="4.83049">
        <ele>200.15572</ele>
        <time>2021-03-14T09:11:10Z</time>
      </trkpt>
      <trkpt lat="45.57605" lon="4.83052">
        <ele>199.44757</ele>
        <time>2021-03-14T09:11:12Z</time>
      </trkpt>
      <trkpt lat="45.5761" lon="4.83055">
        <ele>199.75937</ele>
        <time>2021-03-14T09:11:14Z</time>
      </trkpt>
      <trkpt lat="45.57615" lon="4.83057">
        <ele>200.11871</ele>
        <time>2021-03-14T09:11:16Z</time>
      </trkpt>
      <trkpt lat="45.57619" lon="4.83058">
        <ele>201.08052</ele>
        <time>2021-03-14T09:11:18Z</time>
      </trkpt>
      <trkpt lat="45.57624" lon="4.83059">
        <ele>201.2655</ele>
        <time>2021-03-14T09:11:20Z</time>
      </trkpt>
      <trkpt lat="45.57629" lon="4.83061">
        <ele>201.29718</ele>
        <time>2021-03-14T09:11:22Z</time>
      </trkpt>
      <trkpt lat="45.57634" lon="4.83061">
        <ele>201.15451</ele>
        <time>2021-03-14T09:11:24Z</time>
      </trkpt>
      <trkpt lat="45.5764" lon="4.8306">
        <ele>201.4663</ele>
        <time>2021-03-14T09:11:26Z</time>
      </trkpt>
      <trkpt lat="45.57645" lon="4.83061">
        <ele>201.61427</ele>
        <time>2021-03-14T09:11:28Z</time>
      </trkpt>
      <trkpt lat="45.57651" lon="4.83063">
        <ele>201.57199</ele>
        <time>2021-03-14T09:11:30Z</time>
      </trkpt>
      <trkpt lat="45.57657" lon="4.83065">
        <ele>201.58258</ele>
        <time>2021-03-14T09:11:32Z</time>
      </trkpt>
      <trkpt lat="45.57661" lon="4.8307">
        <ele>201.99477</ele>
        <time>2021-03-14T09:11:34Z</time>
      </trkpt>
      <trkpt lat="45.57664" lon="4.83075">
        <ele>202.29071</ele>
        <time>2021-03-14T09:11:36Z</time>
      </trkpt>
      <trkpt lat="45.57668" lon="4.8308">
        <ele>202.333</ele>
        <time>2021-03-14T09:11:38Z</time>
      </trkpt>
      <trkpt lat="45.5767" lon="4.83088">
        <ele>203.30534</ele>
        <time>2021-03-14T09:11:40Z</time>
      </trkpt>
      <trkpt lat="45.57672" lon="4.83094">
        <ele>202.87201</ele>
        <time>2021-03-14T09:11:42Z</time>
      </trkpt>
      <trkpt lat="45.57674" lon="4.831">
        <ele>202.87201</ele>
        <time>2021-03-14T09:11:44Z</time>
      </trkpt>
      <trkpt lat="45.57675" lon="4.83106">
        <ele>202.79276</ele>
        <time>2021-03-14T09:11:46Z</time>
      </trkpt>
      <trkpt lat="45.57678" lon="4.83115">
        <ele>203.85497</ele>
        <time>2021-03-14T09:11:49Z</time>
      </trkpt>
      <trkpt lat="45.57679" lon="4.83122">
        <ele>203.7017</ele>
        <time>2021-03-14T09:11:51Z</time>
      </trkpt>
      <trkpt lat="45.57681" lon="4.8313">
        <ele>203.64357</ele>
        <time>2021-03-14T09:11:53Z</time>
      </trkpt>
      <trkpt lat="45.57684" lon="4.83138">
        <ele>204.03464</ele>
        <time>2021-03-14T09:11:56Z</time>
      </trkpt>
      <trkpt lat="45.57686" lon="4.83145">
        <ele>203.77042</ele>
        <time>2021-03-14T09:11:58Z</time>
      </trkpt>
      <trkpt lat="45.57687" lon="4.83152">
        <ele>204.49968</ele>
        <time>2021-03-14T09:12:00Z</time>
      </trkpt>
      <trkpt lat="45.5769" lon="4.83158">
        <ele>204.55254</ele>
        <time>2021-03-14T09:12:02Z</time>
      </trkpt>
      <trkpt lat="45.57692" lon="4.83165">
        <ele>204.68466</ele>
        <time>2021-03-14T09:12:04Z</time>
      </trkpt>
      <trkpt lat="45.57694" lon="4.83172">
        <ele>204.26717</ele>
        <time>2021-03-14T09:12:06Z</time>
      </trkpt>
      <trkpt lat="45.57695" lon="4.8318">
        <ele>204.5631</ele>
        <time>2021-03-14T09:12:08Z</time>
      </trkpt>
      <trkpt lat="45.57698" lon="4.83186">
        <ele>205.1497</ele>
        <time>2021-03-14T09:12:10Z</time>
      </trkpt>
      <trkpt lat="45.57699" lon="4.83193">
        <ele>204.99643</ele>
        <time>2021-03-14T09:12:12Z</time>
      </trkpt>
      <trkpt lat="45.57701" lon="4.832">
        <ele>204.84319</ele>
        <time>2021-03-14T09:12:14Z</time>
      </trkpt>
      <trkpt lat="45.57703" lon="4.83207">
        <ele>205.13383</ele>
        <time>2021-03-14T09:12:16Z</time>
      </trkpt>
      <trkpt lat="45.57705" lon="4.83214">
        <ele>205.3558</ele>
        <time>2021-03-14T09:12:18Z</time>
      </trkpt>
      <trkpt lat="45.57707" lon="4.8322">
        <ele>205.33466</ele>
        <time>2021-03-14T09:12:20Z</time>
      </trkpt>
      <trkpt lat="45.57708" lon="4.83227">
        <ele>205.5249</ele>
        <time>2021-03-14T09:12:22Z</time>
      </trkpt>
      <trkpt lat="45.5771" lon="4.83234">
        <ele>205.82613</ele>
        <time>2021-03-14T09:12:24Z</time>
      </trkpt>
      <trkpt lat="45.57713" lon="4.8324">
        <ele>205.67288</ele>
        <time>2021-03-14T09:12:26Z</time>
      </trkpt>
      <trkpt lat="45.57715" lon="4.83246">
        <ele>205.7997</ele>
        <time>2021-03-14T09:12:28Z</time>
      </trkpt>
      <trkpt lat="45.57718" lon="4.83253">
        <ele>205.76271</ele>
        <time>2021-03-14T09:12:30Z</time>
      </trkpt>
      <trkpt lat="45.57721" lon="4.83258">
        <ele>205.87897</ele>
        <time>2021-03-14T09:12:32Z</time>
      </trkpt>
      <trkpt lat="45.57725" lon="4.83266">
        <ele>206.51843</ele>
        <time>2021-03-14T09:12:35Z</time>
      </trkpt>
      <trkpt lat="45.5773" lon="4.83273">
        <ele>206.68224</ele>
        <time>2021-03-14T09:12:38Z</time>
      </trkpt>
      <trkpt lat="45.57732" lon="4.83279">
        <ele>207.36925</ele>
        <time>2021-03-14T09:12:40Z</time>
      </trkpt>
      <trkpt lat="45.57735" lon="4.83284">
        <ele>207.59648</ele>
        <time>2021-03-14T09:12:42Z</time>
      </trkpt>
      <trkpt lat="45.57739" lon="4.83289">
        <ele>207.0786</ele>
        <time>2021-03-14T09:12:44Z</time>
      </trkpt>
      <trkpt lat="45.57742" lon="4.83295">
        <ele>207.74974</ele>
        <time>2021-03-14T09:12:46Z</time>
      </trkpt>
      <trkpt lat="45.57745" lon="4.833">
        <ele>208.02983</ele>
        <time>2021-03-14T09:12:48Z</time>
      </trkpt>
      <trkpt lat="45.57747" lon="4.83307">
        <ele>207.67047</ele>
        <time>2021-03-14T09:12:50Z</time>
      </trkpt>
      <trkpt lat="45.5775" lon="4.83315">
        <ele>208.29933</ele>
        <time>2021-03-14T09:12:52Z</time>
      </trkpt>
      <trkpt lat="45.57752" lon="4.83322">
        <ele>207.53307</ele>
        <time>2021-03-14T09:12:54Z</time>
      </trkpt>
      <trkpt lat="45.57753" lon="4.8333">
        <ele>208.74326</ele>
        <time>2021-03-14T09:12:56Z</time>
      </trkpt>
      <trkpt lat="45.57754" lon="4.83337">
        <ele>208.88594</ele>
        <time>2021-03-14T09:12:58Z</time>
      </trkpt>
      <trkpt lat="45.57753" lon="4.83345">
        <ele>209.83717</ele>
        <time>2021-03-14T09:13:00Z</time>
      </trkpt>
      <trkpt lat="45.57753" lon="4.83352">
        <ele>209.68921</ele>
        <time>2021-03-14T09:13:02Z</time>
      </trkpt>
      <trkpt lat="45.57752" lon="4.83359">
        <ele>209.59409</ele>
        <time>2021-03-14T09:13:04Z</time>
      </trkpt>
      <trkpt lat="45.57752" lon="4.83367">
        <ele>210.18068</ele>
        <time>2021-03-14T09:13:06Z</time>
      </trkpt>
      <trkpt lat="45.57752" lon="4.83375">
        <ele>210.40263</ele>
        <time>2021-03-14T09:13:08Z</time>
      </trkpt>
      <trkpt lat="45.57752" lon="4.83383">
        <ele>210.95752</ele>
        <time>2021-03-14T09:13:10Z</time>
      </trkpt>
      <trkpt lat="45.57751" lon="4.83391">
        <ele>210.9628</ele>
        <time>2021-03-14T09:13:12Z</time>
      </trkpt>
      <trkpt lat="45.5775" lon="4.83398">
        <ele>211.52298</ele>
        <time>2021-03-14T09:13:14Z</time>
      </trkpt>
      <trkpt lat="45.5775" lon="4.83405">
        <ele>211.9933</ele>
        <time>2021-03-14T09:13:16Z</time>
      </trkpt>
      <trkpt lat="45.5775" lon="4.83412">
        <ele>212.40552</ele>
        <time>2021-03-14T09:13:18Z</time>
      </trkpt>
      <trkpt lat="45.57749" lon="4.83419">
        <ele>213.05023</ele>
        <time>2021-03-14T09:13:20Z</time>
      </trkpt>
      <trkpt lat="45.57748" lon="4.83425">
        <ele>213.11365</ele>
        <time>2021-03-14T09:13:22Z</time>
      </trkpt>
      <trkpt lat="45.57747" lon="4.83433">
        <ele>213.57869</ele>
        <time>2021-03-14T09:13:24Z</time>
      </trkpt>
      <trkpt lat="45.57746" lon="4.83443">
        <ele>213.85878</ele>
        <time>2021-03-14T09:13:26Z</time>
      </trkpt>
      <trkpt lat="45.57747" lon="4.83451">
        <ele>213.96976</ele>
        <time>2021-03-14T09:13:28Z</time>
      </trkpt>
      <trkpt lat="45.57748" lon="4.83459">
        <ele>214.4718</ele>
        <time>2021-03-14T09:13:30Z</time>
      </trkpt>
      <trkpt lat="45.57749" lon="4.83467">
        <ele>214.10716</ele>
        <time>2021-03-14T09:13:32Z</time>
      </trkpt>
      <trkpt lat="45.5775" lon="4.83475">
        <ele>214.60391</ele>
        <time>2021-03-14T09:13:34Z</time>
      </trkpt>
      <trkpt lat="45.57752" lon="4.83482">
        <ele>214.39781</ele>
        <time>2021-03-14T09:13:36Z</time>
      </trkpt>
      <trkpt lat="45.57753" lon="4.83489">
        <ele>214.69905</ele>
        <time>2021-03-14T09:13:38Z</time>
      </trkpt>
      <trkpt lat="45.57755" lon="4.83496">
        <ele>214.86285</ele>
        <time>2021-03-14T09:13:40Z</time>
      </trkpt>
      <trkpt lat="45.57756" lon="4.83504">
        <ele>215.35963</ele>
        <time>2021-03-14T09:13:42Z</time>
      </trkpt>
      <trkpt lat="45.57759" lon="4.83511">
        <ele>215.52872</ele>
        <time>2021-03-14T09:13:44Z</time>
      </trkpt>
      <trkpt lat="45.57761" lon="4.83517">
        <ele>215.90923</ele>
        <time>2021-03-14T09:13:46Z</time>
      </trkpt>
      <trkpt lat="45.57764" lon="4.83523">
        <ele>216.0889</ele>
        <time>2021-03-14T09:13:48Z</time>
      </trkpt>
      <trkpt lat="45.57766" lon="4.8353">
        <ele>216.0889</ele>
        <time>2021-03-14T09:13:50Z</time>
      </trkpt>
      <trkpt lat="45.57768" lon="4.83537">
        <ele>215.99379</ele>
        <time>2021-03-14T09:13:52Z</time>
      </trkpt>
      <trkpt lat="45.5777" lon="4.83543">
        <ele>216.1946</ele>
        <time>2021-03-14T09:13:54Z</time>
      </trkpt>
      <trkpt lat="45.57772" lon="4.83549">
        <ele>216.21573</ele>
        <time>2021-03-14T09:13:56Z</time>
      </trkpt>
      <trkpt lat="45.57774" lon="4.83558">
        <ele>215.97264</ele>
        <time>2021-03-14T09:13:59Z</time>
      </trkpt>
      <trkpt lat="45.57776" lon="4.83565">
        <ele>216.13116</ele>
        <time>2021-03-14T09:14:01Z</time>
      </trkpt>
      <trkpt lat="45.57777" lon="4.83571">
        <ele>215.6027</ele>
        <time>2021-03-14T09:14:03Z</time>
      </trkpt>
      <trkpt lat="45.5778" lon="4.83578">
        <ele>215.15881</ele>
        <time>2021-03-14T09:14:05Z</time>
      </trkpt>
      <trkpt lat="45.57782" lon="4.83584">
        <ele>215.51288</ele>
        <time>2021-03-14T09:14:07Z</time>
      </trkpt>
      <trkpt lat="45.57784" lon="4.83591">
        <ele>215.08482</ele>
        <time>2021-03-14T09:14:09Z</time>
      </trkpt>
      <trkpt lat="45.57785" lon="4.83597">
        <ele>214.31326</ele>
        <time>2021-03-14T09:14:11Z</time>
      </trkpt>
      <trkpt lat="45.57787" lon="4.83604">
        <ele>214.84702</ele>
        <time>2021-03-14T09:14:13Z</time>
      </trkpt>
      <trkpt lat="45.57789" lon="4.83612">
        <ele>214.884</ele>
        <time>2021-03-14T09:14:15Z</time>
      </trkpt>
      <trkpt lat="45.57791" lon="4.83618">
        <ele>214.03317</ele>
        <time>2021-03-14T09:14:17Z</time>
      </trkpt>
      <trkpt lat="45.57792" lon="4.83624">
        <ele>214.03317</ele>
        <time>2021-03-14T09:14:19Z</time>
      </trkpt>
      <trkpt lat="45.57794" lon="4.83632">
        <ele>213.61569</ele>
        <time>2021-03-14T09:14:21Z</time>
      </trkpt>
      <trkpt lat="45.57796" lon="4.83641">
        <ele>213.65796</ele>
        <time>2021-03-14T09:14:23Z</time>
      </trkpt>
      <trkpt lat="45.57798" lon="4.83648">
        <ele>212.6856</ele>
        <time>2021-03-14T09:14:25Z</time>
      </trkpt>
      <trkpt lat="45.578" lon="4.83656">
        <ele>213.17708</ele>
        <time>2021-03-14T09:14:27Z</time>
      </trkpt>
      <trkpt lat="45.57801" lon="4.83664">
        <ele>212.59047</ele>
        <time>2021-03-14T09:14:29Z</time>
      </trkpt>
      <trkpt lat="45.57803" lon="4.83671">
        <ele>212.6486</ele>
        <time>2021-03-14T09:14:31Z</time>
      </trkpt>
      <trkpt lat="45.57805" lon="4.83678">
        <ele>212.66446</ele>
        <time>2021-03-14T09:14:33Z</time>
      </trkpt>
      <trkpt lat="45.57806" lon="4.83684">
        <ele>212.11484</ele>
        <time>2021-03-14T09:14:35Z</time>
      </trkpt>
      <trkpt lat="45.57808" lon="4.83691">
        <ele>212.39493</ele>
        <time>2021-03-14T09:14:37Z</time>
      </trkpt>
      <trkpt lat="45.57809" lon="4.83699">
        <ele>212.14655</ele>
        <time>2021-03-14T09:14:39Z</time>
      </trkpt>
      <trkpt lat="45.57811" lon="4.83706">
        <ele>211.5177</ele>
        <time>2021-03-14T09:14:41Z</time>
      </trkpt>
      <trkpt lat="45.57813" lon="4.83715">
        <ele>212.04616</ele>
        <time>2021-03-14T09:14:43Z</time>
      </trkpt>
      <trkpt lat="45.57814" lon="4.83722">
        <ele>211.98274</ele>
        <time>2021-03-14T09:14:45Z</time>
      </trkpt>
      <trkpt lat="45.57814" lon="4.8373">
        <ele>211.43842</ele>
        <time>2021-03-14T09:14:47Z</time>
      </trkpt>
      <trkpt lat="45.57816" lon="4.83739">
        <ele>211.5177</ele>
        <time>2021-03-14T09:14:49Z</time>
      </trkpt>
      <trkpt lat="45.57816" lon="4.83746">
        <ele>211.55997</ele>
        <time>2021-03-14T09:14:51Z</time>
      </trkpt>
      <trkpt lat="45.57816" lon="4.83753">
        <ele>211.56525</ele>
        <time>2021-03-14T09:14:53Z</time>
      </trkpt>
      <trkpt lat="45.57817" lon="4.83759">
        <ele>211.13719</ele>
        <time>2021-03-14T09:14:55Z</time>
      </trkpt>
      <trkpt lat="45.57818" lon="4.83767">
        <ele>211.4754</ele>
        <time>2021-03-14T09:14:57Z</time>
      </trkpt>
      <trkpt lat="45.57819" lon="4.83774">
        <ele>211.56525</ele>
        <time>2021-03-14T09:14:59Z</time>
      </trkpt>
      <trkpt lat="45.57819" lon="4.83782">
        <ele>211.486</ele>
        <time>2021-03-14T09:15:01Z</time>
      </trkpt>
      <trkpt lat="45.57819" lon="4.83791">
        <ele>211.41728</ele>
        <time>2021-03-14T09:15:03Z</time>
      </trkpt>
      <trkpt lat="45.57819" lon="4.838">
        <ele>211.24817</ele>
        <time>2021-03-14T09:15:05Z</time>
      </trkpt>
      <trkpt lat="45.57819" lon="4.83809">
        <ele>211.18475</ele>
        <time>2021-03-14T09:15:07Z</time>
      </trkpt>
      <trkpt lat="45.57818" lon="4.83817">
        <ele>210.91524</ele>
        <time>2021-03-14T09:15:09Z</time>
      </trkpt>
      <trkpt lat="45.57817" lon="4.83825">
        <ele>210.73555</ele>
        <time>2021-03-14T09:15:11Z</time>
      </trkpt>
      <trkpt lat="45.57816" lon="4.83832">
        <ele>210.4819</ele>
        <time>2021-03-14T09:15:13Z</time>
      </trkpt>
      <trkpt lat="45.57816" lon="4.8384">
        <ele>210.63515</ele>
        <time>2021-03-14T09:15:15Z</time>
      </trkpt>
      <trkpt lat="45.57816" lon="4.83847">
        <ele>210.50833</ele>
        <time>2021-03-14T09:15:17Z</time>
      </trkpt>
      <trkpt lat="45.57817" lon="4.83855">
        <ele>210.25467</ele>
        <time>2021-03-14T09:15:19Z</time>
      </trkpt>
      <trkpt lat="45.57818" lon="4.83865">
        <ele>210.19124</ele>
        <time>2021-03-14T09:15:21Z</time>
      </trkpt>
      <trkpt lat="45.57819" lon="4.83872">
        <ele>209.76848</ele>
        <time>2021-03-14T09:15:23Z</time>
      </trkpt>
      <trkpt lat="45.57818" lon="4.8388">
        <ele>210.62459</ele>
        <time>2021-03-14T09:15:25Z</time>
      </trkpt>
      <trkpt lat="45.57818" lon="4.83887">
        <ele>209.91116</ele>
        <time>2021-03-14T09:15:27Z</time>
      </trkpt>
      <trkpt lat="45.57818" lon="4.83895">
        <ele>210.46077</ele>
        <time>2021-03-14T09:15:29Z</time>
      </trkpt>
      <trkpt lat="45.57818" lon="4.83903">
        <ele>210.57175</ele>
        <time>2021-03-14T09:15:31Z</time>
      </trkpt>
      <trkpt lat="45.57818" lon="4.83912">
        <ele>210.11198</ele>
        <time>2021-03-14T09:15:33Z</time>
      </trkpt>
      <trkpt lat="45.57818" lon="4.83922">
        <ele>210.00629</ele>
        <time>2021-03-14T09:15:35Z</time>
      </trkpt>
      <trkpt lat="45.57818" lon="4.83933">
        <ele>210.16481</ele>
        <time>2021-03-14T09:15:37Z</time>
      </trkpt>
      <trkpt lat="45.57818" lon="4.8394">
        <ele>210.27051</ele>
        <time>2021-03-14T09:15:39Z</time>
      </trkpt>
      <trkpt lat="45.57818" lon="4.83948">
        <ele>210.07498</ele>
        <time>2021-03-14T09:15:41Z</time>
      </trkpt>
      <trkpt lat="45.57818" lon="4.83958">
        <ele>209.25586</ele>
        <time>2021-03-14T09:15:44Z</time>
      </trkpt>
      <trkpt lat="45.57819" lon="4.83968">
        <ele>210.04857</ele>
        <time>2021-03-14T09:15:47Z</time>
      </trkpt>
      <trkpt lat="45.5782" lon="4.83977">
        <ele>210.1331</ele>
        <time>2021-03-14T09:15:50Z</time>
      </trkpt>
      <trkpt lat="45.57821" lon="4.83986">
        <ele>210.21767</ele>
        <time>2021-03-14T09:15:53Z</time>
      </trkpt>
      <trkpt lat="45.57823" lon="4.83995">
        <ele>210.83069</ele>
        <time>2021-03-14T09:15:56Z</time>
      </trkpt>
      <trkpt lat="45.57825" lon="4.84002">
        <ele>210.66685</ele>
        <time>2021-03-14T09:15:59Z</time>
      </trkpt>
      <trkpt lat="45.57828" lon="4.8401">
        <ele>211.49655</ele>
        <time>2021-03-14T09:16:02Z</time>
      </trkpt>
      <trkpt lat="45.57831" lon="4.84017">
        <ele>211.95631</ele>
        <time>2021-03-14T09:16:05Z</time>
      </trkpt>
      <trkpt lat="45.57834" lon="4.84023">
        <ele>211.92989</ele>
        <time>2021-03-14T09:16:07Z</time>
      </trkpt>
      <trkpt lat="45.57838" lon="4.84029">
        <ele>212.21526</ele>
        <time>2021-03-14T09:16:09Z</time>
      </trkpt>
      <trkpt lat="45.57842" lon="4.84035">
        <ele>212.64331</ele>
        <time>2021-03-14T09:16:11Z</time>
      </trkpt>
      <trkpt lat="45.57845" lon="4.8404">
        <ele>212.84413</ele>
        <time>2021-03-14T09:16:13Z</time>
      </trkpt>
      <trkpt lat="45.57849" lon="4.84046">
        <ele>213.08194</ele>
        <time>2021-03-14T09:16:15Z</time>
      </trkpt>
      <trkpt lat="45.57852" lon="4.84051">
        <ele>213.52055</ele>
        <time>2021-03-14T09:16:17Z</time>
      </trkpt>
      <trkpt lat="45.57855" lon="4.84058">
        <ele>214.03845</ele>
        <time>2021-03-14T09:16:19Z</time>
      </trkpt>
      <trkpt lat="45.57859" lon="4.84064">
        <ele>214.35025</ele>
        <time>2021-03-14T09:16:21Z</time>
      </trkpt>
      <trkpt lat="45.57863" lon="4.84069">
        <ele>214.52994</ele>
        <time>2021-03-14T09:16:23Z</time>
      </trkpt>
      <trkpt lat="45.57866" lon="4.84075">
        <ele>214.67262</ele>
        <time>2021-03-14T09:16:25Z</time>
      </trkpt>
      <trkpt lat="45.57869" lon="4.84081">
        <ele>214.83644</ele>
        <time>2021-03-14T09:16:27Z</time>
      </trkpt>
      <trkpt lat="45.57872" lon="4.84088">
        <ele>214.84172</ele>
        <time>2021-03-14T09:16:29Z</time>
      </trkpt>
      <trkpt lat="45.57875" lon="4.84094">
        <ele>214.83644</ele>
        <time>2021-03-14T09:16:31Z</time>
      </trkpt>
      <trkpt lat="45.57879" lon="4.841">
        <ele>214.68318</ele>
        <time>2021-03-14T09:16:33Z</time>
      </trkpt>
      <trkpt lat="45.57882" lon="4.84106">
        <ele>214.75188</ele>
        <time>2021-03-14T09:16:35Z</time>
      </trkpt>
      <trkpt lat="45.57886" lon="4.84111">
        <ele>215.01613</ele>
        <time>2021-03-14T09:16:37Z</time>
      </trkpt>
      <trkpt lat="45.5789" lon="4.84116">
        <ele>214.4348</ele>
        <time>2021-03-14T09:16:39Z</time>
      </trkpt>
      <trkpt lat="45.57894" lon="4.84122">
        <ele>214.13887</ele>
        <time>2021-03-14T09:16:41Z</time>
      </trkpt>
      <trkpt lat="45.57897" lon="4.84128">
        <ele>213.94862</ele>
        <time>2021-03-14T09:16:43Z</time>
      </trkpt>
      <trkpt lat="45.579" lon="4.84134">
        <ele>213.7478</ele>
        <time>2021-03-14T09:16:45Z</time>
      </trkpt>
      <trkpt lat="45.57904" lon="4.84141">
        <ele>213.98032</ele>
        <time>2021-03-14T09:16:47Z</time>
      </trkpt>
      <trkpt lat="45.57906" lon="4.84147">
        <ele>213.38316</ele>
        <time>2021-03-14T09:16:49Z</time>
      </trkpt>
      <trkpt lat="45.57908" lon="4.84153">
        <ele>213.46243</ele>
        <time>2021-03-14T09:16:51Z</time>
      </trkpt>
      <trkpt lat="45.57911" lon="4.84159">
        <ele>213.65796</ele>
        <time>2021-03-14T09:16:53Z</time>
      </trkpt>
      <trkpt lat="45.57914" lon="4.84165">
        <ele>213.60512</ele>
        <time>2021-03-14T09:16:55Z</time>
      </trkpt>
      <trkpt lat="45.57918" lon="4.84172">
        <ele>213.61041</ele>
        <time>2021-03-14T09:16:57Z</time>
      </trkpt>
      <trkpt lat="45.57921" lon="4.84178">
        <ele>213.07666</ele>
        <time>2021-03-14T09:16:59Z</time>
      </trkpt>
      <trkpt lat="45.57924" lon="4.84183">
        <ele>212.98682</ele>
        <time>2021-03-14T09:17:01Z</time>
      </trkpt>
      <trkpt lat="45.57927" lon="4.84189">
        <ele>213.43073</ele>
        <time>2021-03-14T09:17:03Z</time>
      </trkpt>
      <trkpt lat="45.57929" lon="4.84194">
        <ele>213.65796</ele>
        <time>2021-03-14T09:17:05Z</time>
      </trkpt>
      <trkpt lat="45.57932" lon="4.842">
        <ele>213.7161</ele>
        <time>2021-03-14T09:17:07Z</time>
      </trkpt>
      <trkpt lat="45.57934" lon="4.84206">
        <ele>213.93805</ele>
        <time>2021-03-14T09:17:09Z</time>
      </trkpt>
      <trkpt lat="45.57936" lon="4.84213">
        <ele>213.31976</ele>
        <time>2021-03-14T09:17:11Z</time>
      </trkpt>
      <trkpt lat="45.57939" lon="4.8422">
        <ele>213.49944</ele>
        <time>2021-03-14T09:17:13Z</time>
      </trkpt>
      <trkpt lat="45.57943" lon="4.84226">
        <ele>213.473</ele>
        <time>2021-03-14T09:17:15Z</time>
      </trkpt>
      <trkpt lat="45.57946" lon="4.84233">
        <ele>213.72667</ele>
        <time>2021-03-14T09:17:17Z</time>
      </trkpt>
      <trkpt lat="45.5795" lon="4.84241">
        <ele>213.8218</ele>
        <time>2021-03-14T09:17:20Z</time>
      </trkpt>
      <trkpt lat="45.57953" lon="4.84248">
        <ele>214.49821</ele>
        <time>2021-03-14T09:17:22Z</time>
      </trkpt>
      <trkpt lat="45.57956" lon="4.84254">
        <ele>214.65677</ele>
        <time>2021-03-14T09:17:24Z</time>
      </trkpt>
      <trkpt lat="45.57959" lon="4.84261">
        <ele>214.96855</ele>
        <time>2021-03-14T09:17:26Z</time>
      </trkpt>
      <trkpt lat="45.57963" lon="4.84268">
        <ele>215.31206</ele>
        <time>2021-03-14T09:17:28Z</time>
      </trkpt>
      <trkpt lat="45.57967" lon="4.84274">
        <ele>215.71898</ele>
        <time>2021-03-14T09:17:30Z</time>
      </trkpt>
      <trkpt lat="45.5797" lon="4.84279">
        <ele>215.51288</ele>
        <time>2021-03-14T09:17:32Z</time>
      </trkpt>
      <trkpt lat="45.57974" lon="4.84284">
        <ele>214.95798</ele>
        <time>2021-03-14T09:17:34Z</time>
      </trkpt>
      <trkpt lat="45.57978" lon="4.84289">
        <ele>214.86815</ele>
        <time>2021-03-14T09:17:36Z</time>
      </trkpt>
      <trkpt lat="45.57982" lon="4.84294">
        <ele>215.17465</ele>
        <time>2021-03-14T09:17:38Z</time>
      </trkpt>
      <trkpt lat="45.57986" lon="4.84299">
        <ele>214.96327</ele>
        <time>2021-03-14T09:17:40Z</time>
      </trkpt>
      <trkpt lat="45.5799" lon="4.84303">
        <ele>215.10596</ele>
        <time>2021-03-14T09:17:42Z</time>
      </trkpt>
      <trkpt lat="45.57994" lon="4.84308">
        <ele>214.87344</ele>
        <time>2021-03-14T09:17:44Z</time>
      </trkpt>
      <trkpt lat="45.57998" lon="4.84313">
        <ele>215.22223</ele>
        <time>2021-03-14T09:17:46Z</time>
      </trkpt>
      <trkpt lat="45.58002" lon="4.84318">
        <ele>215.25394</ele>
        <time>2021-03-14T09:17:48Z</time>
      </trkpt>
      <trkpt lat="45.58006" lon="4.84324">
        <ele>215.47589</ele>
        <time>2021-03-14T09:17:50Z</time>
      </trkpt>
      <trkpt lat="45.5801" lon="4.84328">
        <ele>215.21695</ele>
        <time>2021-03-14T09:17:52Z</time>
      </trkpt>
      <trkpt lat="45.58014" lon="4.84333">
        <ele>215.23807</ele>
        <time>2021-03-14T09:17:54Z</time>
      </trkpt>
      <trkpt lat="45.58017" lon="4.84338">
        <ele>214.92099</ele>
        <time>2021-03-14T09:17:56Z</time>
      </trkpt>
      <trkpt lat="45.58021" lon="4.84342">
        <ele>214.76247</ele>
        <time>2021-03-14T09:17:58Z</time>
      </trkpt>
      <trkpt lat="45.58027" lon="4.84348">
        <ele>215.5076</ele>
        <time>2021-03-14T09:18:01Z</time>
      </trkpt>
      <trkpt lat="45.5803" lon="4.84353">
        <ele>215.55515</ele>
        <time>2021-03-14T09:18:03Z</time>
      </trkpt>
      <trkpt lat="45.58034" lon="4.84359">
        <ele>215.65556</ele>
        <time>2021-03-14T09:18:05Z</time>
      </trkpt>
      <trkpt lat="45.58038" lon="4.84364">
        <ele>215.48645</ele>
        <time>2021-03-14T09:18:07Z</time>
      </trkpt>
      <trkpt lat="45.58042" lon="4.84369">
        <ele>215.43361</ele>
        <time>2021-03-14T09:18:09Z</time>
      </trkpt>
      <trkpt lat="45.58045" lon="4.84373">
        <ele>215.2645</ele>
        <time>2021-03-14T09:18:11Z</time>
      </trkpt>
      <trkpt lat="45.58049" lon="4.84379">
        <ele>215.23279</ele>
        <time>2021-03-14T09:18:13Z</time>
      </trkpt>
      <trkpt lat="45.58052" lon="4.84384">
        <ele>215.41774</ele>
        <time>2021-03-14T09:18:15Z</time>
      </trkpt>
      <trkpt lat="45.58056" lon="4.84389">
        <ele>215.6714</ele>
        <time>2021-03-14T09:18:17Z</time>
      </trkpt>
      <trkpt lat="45.58059" lon="4.84393">
        <ele>215.90393</ele>
        <time>2021-03-14T09:18:19Z</time>
      </trkpt>
      <trkpt lat="45.58064" lon="4.84398">
        <ele>215.66084</ele>
        <time>2021-03-14T09:18:21Z</time>
      </trkpt>
      <trkpt lat="45.58067" lon="4.84404">
        <ele>215.95149</ele>
        <time>2021-03-14T09:18:23Z</time>
      </trkpt>
      <trkpt lat="45.58071" lon="4.84408">
        <ele>216.4007</ele>
        <time>2021-03-14T09:18:25Z</time>
      </trkpt>
      <trkpt lat="45.58075" lon="4.84414">
        <ele>216.09418</ele>
        <time>2021-03-14T09:18:27Z</time>
      </trkpt>
      <trkpt lat="45.5808" lon="4.84419">
        <ele>216.31615</ele>
        <time>2021-03-14T09:18:29Z</time>
      </trkpt>
      <trkpt lat="45.58083" lon="4.84424">
        <ele>216.3267</ele>
        <time>2021-03-14T09:18:31Z</time>
      </trkpt>
      <trkpt lat="45.58087" lon="4.84428">
        <ele>216.90273</ele>
        <time>2021-03-14T09:18:33Z</time>
      </trkpt>
      <trkpt lat="45.58092" lon="4.84435">
        <ele>217.59502</ele>
        <time>2021-03-14T09:18:36Z</time>
      </trkpt>
      <trkpt lat="45.58096" lon="4.84441">
        <ele>217.63202</ele>
        <time>2021-03-14T09:18:38Z</time>
      </trkpt>
      <trkpt lat="45.581" lon="4.84445">
        <ele>218.32431</ele>
        <time>2021-03-14T09:18:40Z</time>
      </trkpt>
      <trkpt lat="45.58104" lon="4.84451">
        <ele>219.02716</ele>
        <time>2021-03-14T09:18:42Z</time>
      </trkpt>
      <trkpt lat="45.58108" lon="4.84456">
        <ele>219.34953</ele>
        <time>2021-03-14T09:18:44Z</time>
      </trkpt>
      <trkpt lat="45.58112" lon="4.84461">
        <ele>220.18979</ele>
        <time>2021-03-14T09:18:46Z</time>
      </trkpt>
      <trkpt lat="45.58116" lon="4.84465">
        <ele>220.41702</ele>
        <time>2021-03-14T09:18:48Z</time>
      </trkpt>
      <trkpt lat="45.5812" lon="4.8447">
        <ele>221.06174</ele>
        <time>2021-03-14T09:18:50Z</time>
      </trkpt>
      <trkpt lat="45.58123" lon="4.84475">
        <ele>221.53209</ele>
        <time>2021-03-14T09:18:52Z</time>
      </trkpt>
      <trkpt lat="45.58127" lon="4.8448">
        <ele>222.22966</ele>
        <time>2021-03-14T09:18:54Z</time>
      </trkpt>
      <trkpt lat="45.58131" lon="4.84488">
        <ele>222.92194</ele>
        <time>2021-03-14T09:18:57Z</time>
      </trkpt>
      <trkpt lat="45.58133" lon="4.84494">
        <ele>222.98535</ele>
        <time>2021-03-14T09:18:59Z</time>
      </trkpt>
      <trkpt lat="45.58136" lon="4.845">
        <ele>223.4134</ele>
        <time>2021-03-14T09:19:01Z</time>
      </trkpt>
      <trkpt lat="45.58138" lon="4.84505">
        <ele>223.57196</ele>
        <time>2021-03-14T09:19:03Z</time>
      </trkpt>
      <trkpt lat="45.58139" lon="4.84512">
        <ele>223.92075</ele>
        <time>2021-03-14T09:19:05Z</time>
      </trkpt>
      <trkpt lat="45.58139" lon="4.84519">
        <ele>224.44391</ele>
        <time>2021-03-14T09:19:07Z</time>
      </trkpt>
      <trkpt lat="45.58141" lon="4.84533">
        <ele>223.84146</ele>
        <time>2021-03-14T09:19:09Z</time>
      </trkpt>
      <trkpt lat="45.58143" lon="4.84539">
        <ele>224.01585</ele>
        <time>2021-03-14T09:19:10Z</time>
      </trkpt>
      <trkpt lat="45.58144" lon="4.84546">
        <ele>223.74635</ele>
        <time>2021-03-14T09:19:12Z</time>
      </trkpt>
      <trkpt lat="45.58143" lon="4.84553">
        <ele>223.47154</ele>
        <time>2021-03-14T09:19:14Z</time>
      </trkpt>
      <trkpt lat="45.58144" lon="4.84561">
        <ele>223.08577</ele>
        <time>2021-03-14T09:19:16Z</time>
      </trkpt>
      <trkpt lat="45.58144" lon="4.84569">
        <ele>223.25488</ele>
        <time>2021-03-14T09:19:18Z</time>
      </trkpt>
      <trkpt lat="45.58143" lon="4.84577">
        <ele>222.99593</ele>
        <time>2021-03-14T09:19:20Z</time>
      </trkpt>
      <trkpt lat="45.58143" lon="4.84584">
        <ele>222.13982</ele>
        <time>2021-03-14T09:19:22Z</time>
      </trkpt>
      <trkpt lat="45.58141" lon="4.84594">
        <ele>222.24022</ele>
        <time>2021-03-14T09:19:24Z</time>
      </trkpt>
      <trkpt lat="45.58141" lon="4.84605">
        <ele>222.12396</ele>
        <time>2021-03-14T09:19:26Z</time>
      </trkpt>
      <trkpt lat="45.58139" lon="4.84615">
        <ele>221.80159</ele>
        <time>2021-03-14T09:19:28Z</time>
      </trkpt>
      <trkpt lat="45.58138" lon="4.84624">
        <ele>221.53737</ele>
        <time>2021-03-14T09:19:30Z</time>
      </trkpt>
      <trkpt lat="45.58137" lon="4.84634">
        <ele>221.27843</ele>
        <time>2021-03-14T09:19:32Z</time>
      </trkpt>
      <trkpt lat="45.58136" lon="4.84642">
        <ele>221.08817</ele>
        <time>2021-03-14T09:19:34Z</time>
      </trkpt>
      <trkpt lat="45.58135" lon="4.8465">
        <ele>220.97719</ele>
        <time>2021-03-14T09:19:36Z</time>
      </trkpt>
      <trkpt lat="45.58134" lon="4.84659">
        <ele>220.8028</ele>
        <time>2021-03-14T09:19:38Z</time>
      </trkpt>
      <trkpt lat="45.58133" lon="4.84667">
        <ele>220.85036</ele>
        <time>2021-03-14T09:19:40Z</time>
      </trkpt>
      <trkpt lat="45.58133" lon="4.84676">
        <ele>221.01947</ele>
        <time>2021-03-14T09:19:42Z</time>
      </trkpt>
      <trkpt lat="45.58132" lon="4.84683">
        <ele>221.13573</ele>
        <time>2021-03-14T09:19:44Z</time>
      </trkpt>
      <trkpt lat="45.58132" lon="4.84691">
        <ele>221.06174</ele>
        <time>2021-03-14T09:19:46Z</time>
      </trkpt>
      <trkpt lat="45.5813" lon="4.84699">
        <ele>221.11987</ele>
        <time>2021-03-14T09:19:48Z</time>
      </trkpt>
      <trkpt lat="45.58128" lon="4.84708">
        <ele>221.08817</ele>
        <time>2021-03-14T09:19:50Z</time>
      </trkpt>
      <trkpt lat="45.58125" lon="4.84716">
        <ele>220.72353</ele>
        <time>2021-03-14T09:19:52Z</time>
      </trkpt>
      <trkpt lat="45.58122" lon="4.84723">
        <ele>220.7024</ele>
        <time>2021-03-14T09:19:54Z</time>
      </trkpt>
      <trkpt lat="45.58118" lon="4.84729">
        <ele>221.0776</ele>
        <time>2021-03-14T09:19:56Z</time>
      </trkpt>
      <trkpt lat="45.58115" lon="4.84736">
        <ele>220.48572</ele>
        <time>2021-03-14T09:19:58Z</time>
      </trkpt>
      <trkpt lat="45.58112" lon="4.84745">
        <ele>220.77637</ele>
        <time>2021-03-14T09:20:01Z</time>
      </trkpt>
      <trkpt lat="45.58109" lon="4.84753">
        <ele>220.67067</ele>
        <time>2021-03-14T09:20:03Z</time>
      </trkpt>
      <trkpt lat="45.58104" lon="4.84759">
        <ele>220.0471</ele>
        <time>2021-03-14T09:20:05Z</time>
      </trkpt>
      <trkpt lat="45.58099" lon="4.84767">
        <ele>220.48044</ele>
        <time>2021-03-14T09:20:07Z</time>
      </trkpt>
      <trkpt lat="45.58094" lon="4.84774">
        <ele>220.53857</ele>
        <time>2021-03-14T09:20:10Z</time>
      </trkpt>
      <trkpt lat="45.5809" lon="4.84782">
        <ele>220.36418</ele>
        <time>2021-03-14T09:20:12Z</time>
      </trkpt>
      <trkpt lat="45.58087" lon="4.84788">
        <ele>220.37474</ele>
        <time>2021-03-14T09:20:14Z</time>
      </trkpt>
      <trkpt lat="45.58083" lon="4.84795">
        <ele>220.71825</ele>
        <time>2021-03-14T09:20:16Z</time>
      </trkpt>
      <trkpt lat="45.58078" lon="4.84802">
        <ele>220.55971</ele>
        <time>2021-03-14T09:20:18Z</time>
      </trkpt>
      <trkpt lat="45.58075" lon="4.84807">
        <ele>220.45401</ele>
        <time>2021-03-14T09:20:20Z</time>
      </trkpt>
      <trkpt lat="45.58071" lon="4.84812">
        <ele>220.1528</ele>
        <time>2021-03-14T09:20:22Z</time>
      </trkpt>
      <trkpt lat="45.58065" lon="4.84815">
        <ele>220.4223</ele>
        <time>2021-03-14T09:20:24Z</time>
      </trkpt>
      <trkpt lat="45.58061" lon="4.8482">
        <ele>220.66539</ele>
        <time>2021-03-14T09:20:26Z</time>
      </trkpt>
      <trkpt lat="45.58056" lon="4.84825">
        <ele>220.38531</ele>
        <time>2021-03-14T09:20:28Z</time>
      </trkpt>
      <trkpt lat="45.58052" lon="4.8483">
        <ele>220.58084</ele>
        <time>2021-03-14T09:20:30Z</time>
      </trkpt>
      <trkpt lat="45.58048" lon="4.84835">
        <ele>220.13165</ele>
        <time>2021-03-14T09:20:32Z</time>
      </trkpt>
      <trkpt lat="45.58043" lon="4.8484">
        <ele>220.2215</ele>
        <time>2021-03-14T09:20:34Z</time>
      </trkpt>
      <trkpt lat="45.58039" lon="4.84846">
        <ele>220.30605</ele>
        <time>2021-03-14T09:20:36Z</time>
      </trkpt>
      <trkpt lat="45.58035" lon="4.84852">
        <ele>220.1105</ele>
        <time>2021-03-14T09:20:38Z</time>
      </trkpt>
      <trkpt lat="45.58032" lon="4.84859">
        <ele>220.13165</ele>
        <time>2021-03-14T09:20:40Z</time>
      </trkpt>
      <trkpt lat="45.5803" lon="4.84866">
        <ele>220.45929</ele>
        <time>2021-03-14T09:20:42Z</time>
      </trkpt>
      <trkpt lat="45.58027" lon="4.84873">
        <ele>220.40645</ele>
        <time>2021-03-14T09:20:44Z</time>
      </trkpt>
      <trkpt lat="45.58024" lon="4.84879">
        <ele>220.26376</ele>
        <time>2021-03-14T09:20:46Z</time>
      </trkpt>
      <trkpt lat="45.58021" lon="4.84886">
        <ele>220.02068</ele>
        <time>2021-03-14T09:20:48Z</time>
      </trkpt>
      <trkpt lat="45.58018" lon="4.84892">
        <ele>219.97841</ele>
        <time>2021-03-14T09:20:50Z</time>
      </trkpt>
      <trkpt lat="45.58013" lon="4.84898">
        <ele>220.2215</ele>
        <time>2021-03-14T09:20:53Z</time>
      </trkpt>
      <trkpt lat="45.58007" lon="4.84901">
        <ele>220.53857</ele>
        <time>2021-03-14T09:20:55Z</time>
      </trkpt>
      <trkpt lat="45.58004" lon="4.84906">
        <ele>220.2849</ele>
        <time>2021-03-14T09:20:57Z</time>
      </trkpt>
      <trkpt lat="45.57998" lon="4.84909">
        <ele>220.54913</ele>
        <time>2021-03-14T09:20:59Z</time>
      </trkpt>
      <trkpt lat="45.57993" lon="4.8491">
        <ele>220.01012</ele>
        <time>2021-03-14T09:21:01Z</time>
      </trkpt>
      <trkpt lat="45.57986" lon="4.84911">
        <ele>220.66539</ele>
        <time>2021-03-14T09:21:03Z</time>
      </trkpt>
      <trkpt lat="45.57979" lon="4.84913">
        <ele>220.7341</ele>
        <time>2021-03-14T09:21:05Z</time>
      </trkpt>
      <trkpt lat="45.57974" lon="4.84913">
        <ele>220.51215</ele>
        <time>2021-03-14T09:21:07Z</time>
      </trkpt>
      <trkpt lat="45.57967" lon="4.84914">
        <ele>220.30605</ele>
        <time>2021-03-14T09:21:09Z</time>
      </trkpt>
      <trkpt lat="45.57961" lon="4.84913">
        <ele>220.3906</ele>
        <time>2021-03-14T09:21:11Z</time>
      </trkpt>
      <trkpt lat="45.57955" lon="4.84912">
        <ele>220.66011</ele>
        <time>2021-03-14T09:21:13Z</time>
      </trkpt>
      <trkpt lat="45.57949" lon="4.84911">
        <ele>220.69182</ele>
        <time>2021-03-14T09:21:15Z</time>
      </trkpt>
      <trkpt lat="45.57944" lon="4.8491">
        <ele>220.40645</ele>
        <time>2021-03-14T09:21:17Z</time>
      </trkpt>
      <trkpt lat="45.57939" lon="4.8491">
        <ele>220.88206</ele>
        <time>2021-03-14T09:21:19Z</time>
      </trkpt>
      <trkpt lat="45.57933" lon="4.84909">
        <ele>221.17801</ele>
        <time>2021-03-14T09:21:21Z</time>
      </trkpt>
      <trkpt lat="45.57928" lon="4.8491">
        <ele>220.57556</ele>
        <time>2021-03-14T09:21:23Z</time>
      </trkpt>
      <trkpt lat="45.57924" lon="4.8491">
        <ele>220.53857</ele>
        <time>2021-03-14T09:21:25Z</time>
      </trkpt>
      <trkpt lat="45.57919" lon="4.8491">
        <ele>221.03003</ele>
        <time>2021-03-14T09:21:27Z</time>
      </trkpt>
      <trkpt lat="45.57914" lon="4.84911">
        <ele>220.75525</ele>
        <time>2021-03-14T09:21:29Z</time>
      </trkpt>
      <trkpt lat="45.57908" lon="4.84912">
        <ele>221.01947</ele>
        <time>2021-03-14T09:21:31Z</time>
      </trkpt>
      <trkpt lat="45.57903" lon="4.84914">
        <ele>221.05646</ele>
        <time>2021-03-14T09:21:33Z</time>
      </trkpt>
      <trkpt lat="45.57897" lon="4.84916">
        <ele>221.18329</ele>
        <time>2021-03-14T09:21:35Z</time>
      </trkpt>
      <trkpt lat="45.57892" lon="4.84918">
        <ele>220.91377</ele>
        <time>2021-03-14T09:21:37Z</time>
      </trkpt>
      <trkpt lat="45.57887" lon="4.84919">
        <ele>220.93492</ele>
        <time>2021-03-14T09:21:39Z</time>
      </trkpt>
      <trkpt lat="45.57881" lon="4.84922">
        <ele>221.21501</ele>
        <time>2021-03-14T09:21:41Z</time>
      </trkpt>
      <trkpt lat="45.57876" lon="4.84925">
        <ele>220.88734</ele>
        <time>2021-03-14T09:21:43Z</time>
      </trkpt>
      <trkpt lat="45.57871" lon="4.8493">
        <ele>221.48451</ele>
        <time>2021-03-14T09:21:45Z</time>
      </trkpt>
      <trkpt lat="45.57866" lon="4.84933">
        <ele>221.19914</ele>
        <time>2021-03-14T09:21:47Z</time>
      </trkpt>
      <trkpt lat="45.57861" lon="4.84936">
        <ele>220.96135</ele>
        <time>2021-03-14T09:21:49Z</time>
      </trkpt>
      <trkpt lat="45.57856" lon="4.84939">
        <ele>221.21501</ele>
        <time>2021-03-14T09:21:51Z</time>
      </trkpt>
      <trkpt lat="45.57851" lon="4.84941">
        <ele>221.11987</ele>
        <time>2021-03-14T09:21:53Z</time>
      </trkpt>
      <trkpt lat="45.57846" lon="4.84944">
        <ele>221.67477</ele>
        <time>2021-03-14T09:21:55Z</time>
      </trkpt>
      <trkpt lat="45.5784" lon="4.84947">
        <ele>221.36826</ele>
        <time>2021-03-14T09:21:57Z</time>
      </trkpt>
      <trkpt lat="45.57835" lon="4.8495">
        <ele>221.69589</ele>
        <time>2021-03-14T09:21:59Z</time>
      </trkpt>
      <trkpt lat="45.57831" lon="4.84954">
        <ele>221.66418</ele>
        <time>2021-03-14T09:22:01Z</time>
      </trkpt>
      <trkpt lat="45.57827" lon="4.84958">
        <ele>221.60078</ele>
        <time>2021-03-14T09:22:03Z</time>
      </trkpt>
      <trkpt lat="45.57822" lon="4.84962">
        <ele>221.74875</ele>
        <time>2021-03-14T09:22:05Z</time>
      </trkpt>
      <trkpt lat="45.57818" lon="4.84965">
        <ele>221.80159</ele>
        <time>2021-03-14T09:22:07Z</time>
      </trkpt>
      <trkpt lat="45.57813" lon="4.84969">
        <ele>221.99713</ele>
        <time>2021-03-14T09:22:09Z</time>
      </trkpt>
      <trkpt lat="45.57809" lon="4.84973">
        <ele>222.08696</ele>
        <time>2021-03-14T09:22:11Z</time>
      </trkpt>
      <trkpt lat="45.57803" lon="4.84978">
        <ele>221.95485</ele>
        <time>2021-03-14T09:22:13Z</time>
      </trkpt>
      <trkpt lat="45.57798" lon="4.84983">
        <ele>221.96542</ele>
        <time>2021-03-14T09:22:15Z</time>
      </trkpt>
      <trkpt lat="45.57794" lon="4.84988">
        <ele>221.72232</ele>
        <time>2021-03-14T09:22:17Z</time>
      </trkpt>
      <trkpt lat="45.57789" lon="4.84992">
        <ele>222.08168</ele>
        <time>2021-03-14T09:22:19Z</time>
      </trkpt>
      <trkpt lat="45.57784" lon="4.84997">
        <ele>222.0711</ele>
        <time>2021-03-14T09:22:21Z</time>
      </trkpt>
      <trkpt lat="45.5778" lon="4.85002">
        <ele>221.71704</ele>
        <time>2021-03-14T09:22:23Z</time>
      </trkpt>
      <trkpt lat="45.57775" lon="4.85007">
        <ele>221.84389</ele>
        <time>2021-03-14T09:22:25Z</time>
      </trkpt>
      <trkpt lat="45.5777" lon="4.85013">
        <ele>221.902</ele>
        <time>2021-03-14T09:22:27Z</time>
      </trkpt>
      <trkpt lat="45.57766" lon="4.85019">
        <ele>222.13454</ele>
        <time>2021-03-14T09:22:29Z</time>
      </trkpt>
      <trkpt lat="45.57761" lon="4.85024">
        <ele>221.79631</ele>
        <time>2021-03-14T09:22:31Z</time>
      </trkpt>
      <trkpt lat="45.57758" lon="4.8503">
        <ele>221.91258</ele>
        <time>2021-03-14T09:22:33Z</time>
      </trkpt>
      <trkpt lat="45.57752" lon="4.85034">
        <ele>221.91786</ele>
        <time>2021-03-14T09:22:35Z</time>
      </trkpt>
      <trkpt lat="45.57747" lon="4.85039">
        <ele>221.8333</ele>
        <time>2021-03-14T09:22:37Z</time>
      </trkpt>
      <trkpt lat="45.57743" lon="4.85043">
        <ele>221.68533</ele>
        <time>2021-03-14T09:22:39Z</time>
      </trkpt>
      <trkpt lat="45.57738" lon="4.85048">
        <ele>221.59021</ele>
        <time>2021-03-14T09:22:41Z</time>
      </trkpt>
      <trkpt lat="45.57733" lon="4.85052">
        <ele>221.84389</ele>
        <time>2021-03-14T09:22:43Z</time>
      </trkpt>
      <trkpt lat="45.57728" lon="4.85054">
        <ele>221.902</ele>
        <time>2021-03-14T09:22:45Z</time>
      </trkpt>
      <trkpt lat="45.57723" lon="4.85058">
        <ele>221.92314</ele>
        <time>2021-03-14T09:22:47Z</time>
      </trkpt>
      <trkpt lat="45.57718" lon="4.85061">
        <ele>222.09225</ele>
        <time>2021-03-14T09:22:49Z</time>
      </trkpt>
      <trkpt lat="45.57711" lon="4.85064">
        <ele>222.13982</ele>
        <time>2021-03-14T09:22:52Z</time>
      </trkpt>
      <trkpt lat="45.57707" lon="4.85069">
        <ele>222.31421</ele>
        <time>2021-03-14T09:22:54Z</time>
      </trkpt>
      <trkpt lat="45.57702" lon="4.85073">
        <ele>222.34592</ele>
        <time>2021-03-14T09:22:56Z</time>
      </trkpt>
      <trkpt lat="45.57697" lon="4.85078">
        <ele>222.4199</ele>
        <time>2021-03-14T09:22:58Z</time>
      </trkpt>
      <trkpt lat="45.57693" lon="4.85082">
        <ele>221.87556</ele>
        <time>2021-03-14T09:23:00Z</time>
      </trkpt>
      <trkpt lat="45.57688" lon="4.85086">
        <ele>222.31949</ele>
        <time>2021-03-14T09:23:02Z</time>
      </trkpt>
      <trkpt lat="45.57682" lon="4.85091">
        <ele>222.1451</ele>
        <time>2021-03-14T09:23:04Z</time>
      </trkpt>
      <trkpt lat="45.57678" lon="4.85094">
        <ele>222.3829</ele>
        <time>2021-03-14T09:23:06Z</time>
      </trkpt>
      <trkpt lat="45.57674" lon="4.85099">
        <ele>222.05527</ele>
        <time>2021-03-14T09:23:08Z</time>
      </trkpt>
      <trkpt lat="45.57668" lon="4.85105">
        <ele>222.05527</ele>
        <time>2021-03-14T09:23:10Z</time>
      </trkpt>
      <trkpt lat="45.57663" lon="4.8511">
        <ele>222.56258</ele>
        <time>2021-03-14T09:23:12Z</time>
      </trkpt>
      <trkpt lat="45.57659" lon="4.85114">
        <ele>222.71056</ele>
        <time>2021-03-14T09:23:14Z</time>
      </trkpt>
      <trkpt lat="45.57654" lon="4.85119">
        <ele>222.53616</ele>
        <time>2021-03-14T09:23:16Z</time>
      </trkpt>
      <trkpt lat="45.5765" lon="4.85123">
        <ele>222.2455</ele>
        <time>2021-03-14T09:23:18Z</time>
      </trkpt>
      <trkpt lat="45.57645" lon="4.85128">
        <ele>221.71704</ele>
        <time>2021-03-14T09:23:20Z</time>
      </trkpt>
      <trkpt lat="45.57641" lon="4.85132">
        <ele>222.12396</ele>
        <time>2021-03-14T09:23:22Z</time>
      </trkpt>
      <trkpt lat="45.57636" lon="4.85136">
        <ele>222.21379</ele>
        <time>2021-03-14T09:23:24Z</time>
      </trkpt>
      <trkpt lat="45.57632" lon="4.85139">
        <ele>222.03412</ele>
        <time>2021-03-14T09:23:26Z</time>
      </trkpt>
      <trkpt lat="45.57628" lon="4.85144">
        <ele>222.06583</ele>
        <time>2021-03-14T09:23:28Z</time>
      </trkpt>
      <trkpt lat="45.57623" lon="4.85149">
        <ele>221.75403</ele>
        <time>2021-03-14T09:23:30Z</time>
      </trkpt>
      <trkpt lat="45.57617" lon="4.85152">
        <ele>222.0394</ele>
        <time>2021-03-14T09:23:32Z</time>
      </trkpt>
      <trkpt lat="45.57612" lon="4.85155">
        <ele>221.87029</ele>
        <time>2021-03-14T09:23:34Z</time>
      </trkpt>
      <trkpt lat="45.57608" lon="4.85159">
        <ele>221.74875</ele>
        <time>2021-03-14T09:23:36Z</time>
      </trkpt>
      <trkpt lat="45.57604" lon="4.85164">
        <ele>222.04468</ele>
        <time>2021-03-14T09:23:38Z</time>
      </trkpt>
      <trkpt lat="45.57599" lon="4.85169">
        <ele>222.21907</ele>
        <time>2021-03-14T09:23:41Z</time>
      </trkpt>
      <trkpt lat="45.57595" lon="4.85174">
        <ele>222.02356</ele>
        <time>2021-03-14T09:23:43Z</time>
      </trkpt>
      <trkpt lat="45.57591" lon="4.85178">
        <ele>221.93372</ele>
        <time>2021-03-14T09:23:45Z</time>
      </trkpt>
      <trkpt lat="45.57587" lon="4.85183">
        <ele>221.5268</ele>
        <time>2021-03-14T09:23:47Z</time>
      </trkpt>
      <trkpt lat="45.57583" lon="4.85189">
        <ele>221.33655</ele>
        <time>2021-03-14T09:23:49Z</time>
      </trkpt>
      <trkpt lat="45.57579" lon="4.85195">
        <ele>220.88734</ele>
        <time>2021-03-14T09:23:51Z</time>
      </trkpt>
      <trkpt lat="45.57574" lon="4.852">
        <ele>221.27843</ele>
        <time>2021-03-14T09:23:53Z</time>
      </trkpt>
      <trkpt lat="45.57571" lon="4.85206">
        <ele>221.32597</ele>
        <time>2021-03-14T09:23:55Z</time>
      </trkpt>
      <trkpt lat="45.57567" lon="4.85211">
        <ele>221.19914</ele>
        <time>2021-03-14T09:23:57Z</time>
      </trkpt>
      <trkpt lat="45.57563" lon="4.85216">
        <ele>221.15158</ele>
        <time>2021-03-14T09:23:59Z</time>
      </trkpt>
      <trkpt lat="45.57558" lon="4.85221">
        <ele>220.75525</ele>
        <time>2021-03-14T09:24:01Z</time>
      </trkpt>
      <trkpt lat="45.57554" lon="4.85226">
        <ele>220.61784</ele>
        <time>2021-03-14T09:24:03Z</time>
      </trkpt>
      <trkpt lat="45.5755" lon="4.85233">
        <ele>220.86621</ele>
        <time>2021-03-14T09:24:05Z</time>
      </trkpt>
      <trkpt lat="45.57547" lon="4.85238">
        <ele>220.79224</ele>
        <time>2021-03-14T09:24:07Z</time>
      </trkpt>
      <trkpt lat="45.57544" lon="4.85244">
        <ele>220.53857</ele>
        <time>2021-03-14T09:24:09Z</time>
      </trkpt>
      <trkpt lat="45.5754" lon="4.8525">
        <ele>220.3166</ele>
        <time>2021-03-14T09:24:11Z</time>
      </trkpt>
      <trkpt lat="45.57537" lon="4.85255">
        <ele>220.20563</ele>
        <time>2021-03-14T09:24:13Z</time>
      </trkpt>
      <trkpt lat="45.57532" lon="4.85258">
        <ele>219.32838</ele>
        <time>2021-03-14T09:24:16Z</time>
      </trkpt>
      <trkpt lat="45.57529" lon="4.85264">
        <ele>219.60847</ele>
        <time>2021-03-14T09:24:18Z</time>
      </trkpt>
      <trkpt lat="45.57526" lon="4.8527">
        <ele>219.67189</ele>
        <time>2021-03-14T09:24:20Z</time>
      </trkpt>
      <trkpt lat="45.57523" lon="4.85276">
        <ele>219.41295</ele>
        <time>2021-03-14T09:24:22Z</time>
      </trkpt>
      <trkpt lat="45.57519" lon="4.85283">
        <ele>219.24911</ele>
        <time>2021-03-14T09:24:24Z</time>
      </trkpt>
      <trkpt lat="45.57515" lon="4.85289">
        <ele>218.91617</ele>
        <time>2021-03-14T09:24:26Z</time>
      </trkpt>
      <trkpt lat="45.57512" lon="4.85294">
        <ele>218.88977</ele>
        <time>2021-03-14T09:24:28Z</time>
      </trkpt>
      <trkpt lat="45.57508" lon="4.85299">
        <ele>218.78935</ele>
        <time>2021-03-14T09:24:30Z</time>
      </trkpt>
      <trkpt lat="45.57504" lon="4.85305">
        <ele>218.64667</ele>
        <time>2021-03-14T09:24:32Z</time>
      </trkpt>
      <trkpt lat="45.57501" lon="4.8531">
        <ele>218.03365</ele>
        <time>2021-03-14T09:24:34Z</time>
      </trkpt>
      <trkpt lat="45.57497" lon="4.85316">
        <ele>218.22917</ele>
        <time>2021-03-14T09:24:36Z</time>
      </trkpt>
      <trkpt lat="45.57493" lon="4.8532">
        <ele>217.99136</ele>
        <time>2021-03-14T09:24:38Z</time>
      </trkpt>
      <trkpt lat="45.57489" lon="4.85326">
        <ele>217.5316</ele>
        <time>2021-03-14T09:24:40Z</time>
      </trkpt>
      <trkpt lat="45.57486" lon="4.85331">
        <ele>217.34665</ele>
        <time>2021-03-14T09:24:42Z</time>
      </trkpt>
      <trkpt lat="45.57482" lon="4.85336">
        <ele>216.88689</ele>
        <time>2021-03-14T09:24:44Z</time>
      </trkpt>
      <trkpt lat="45.57478" lon="4.85341">
        <ele>216.6068</ele>
        <time>2021-03-14T09:24:46Z</time>
      </trkpt>
      <trkpt lat="45.57474" lon="4.85347">
        <ele>216.1206</ele>
        <time>2021-03-14T09:24:48Z</time>
      </trkpt>
      <trkpt lat="45.57468" lon="4.85352">
        <ele>215.00026</ele>
        <time>2021-03-14T09:24:50Z</time>
      </trkpt>
      <trkpt lat="45.57464" lon="4.85356">
        <ele>215.12181</ele>
        <time>2021-03-14T09:24:52Z</time>
      </trkpt>
      <trkpt lat="45.57459" lon="4.85361">
        <ele>214.82059</ele>
        <time>2021-03-14T09:24:54Z</time>
      </trkpt>
      <trkpt lat="45.57455" lon="4.85366">
        <ele>214.16002</ele>
        <time>2021-03-14T09:24:56Z</time>
      </trkpt>
      <trkpt lat="45.57451" lon="4.85371">
        <ele>213.68967</ele>
        <time>2021-03-14T09:24:58Z</time>
      </trkpt>
      <trkpt lat="45.57446" lon="4.85375">
        <ele>213.35675</ele>
        <time>2021-03-14T09:25:00Z</time>
      </trkpt>
      <trkpt lat="45.57441" lon="4.85379">
        <ele>212.29982</ele>
        <time>2021-03-14T09:25:02Z</time>
      </trkpt>
      <trkpt lat="45.57436" lon="4.85382">
        <ele>212.04086</ele>
        <time>2021-03-14T09:25:04Z</time>
      </trkpt>
      <trkpt lat="45.57431" lon="4.85389">
        <ele>210.651</ele>
        <time>2021-03-14T09:25:07Z</time>
      </trkpt>
      <trkpt lat="45.57427" lon="4.85394">
        <ele>210.1331</ele>
        <time>2021-03-14T09:25:09Z</time>
      </trkpt>
      <trkpt lat="45.57424" lon="4.854">
        <ele>208.80667</ele>
        <time>2021-03-14T09:25:11Z</time>
      </trkpt>
      <trkpt lat="45.57421" lon="4.85405">
        <ele>208.92293</ele>
        <time>2021-03-14T09:25:13Z</time>
      </trkpt>
      <trkpt lat="45.57418" lon="4.85412">
        <ele>207.93471</ele>
        <time>2021-03-14T09:25:15Z</time>
      </trkpt>
      <trkpt lat="45.57415" lon="4.85419">
        <ele>208.18837</ele>
        <time>2021-03-14T09:25:17Z</time>
      </trkpt>
      <trkpt lat="45.57412" lon="4.85425">
        <ele>207.67047</ele>
        <time>2021-03-14T09:25:19Z</time>
      </trkpt>
      <trkpt lat="45.5741" lon="4.85431">
        <ele>207.35867</ele>
        <time>2021-03-14T09:25:21Z</time>
      </trkpt>
      <trkpt lat="45.57408" lon="4.85438">
        <ele>207.36397</ele>
        <time>2021-03-14T09:25:23Z</time>
      </trkpt>
      <trkpt lat="45.57406" lon="4.85445">
        <ele>207.40096</ele>
        <time>2021-03-14T09:25:25Z</time>
      </trkpt>
      <trkpt lat="45.57403" lon="4.85451">
        <ele>207.41681</ele>
        <time>2021-03-14T09:25:27Z</time>
      </trkpt>
      <trkpt lat="45.574" lon="4.85459">
        <ele>206.84607</ele>
        <time>2021-03-14T09:25:31Z</time>
      </trkpt>
      <trkpt lat="45.57397" lon="4.85464">
        <ele>206.56598</ele>
        <time>2021-03-14T09:25:33Z</time>
      </trkpt>
      <trkpt lat="45.57394" lon="4.85471">
        <ele>206.72452</ele>
        <time>2021-03-14T09:25:35Z</time>
      </trkpt>
      <trkpt lat="45.57391" lon="4.85476">
        <ele>206.86191</ele>
        <time>2021-03-14T09:25:37Z</time>
      </trkpt>
      <trkpt lat="45.57388" lon="4.85482">
        <ele>207.14728</ele>
        <time>2021-03-14T09:25:39Z</time>
      </trkpt>
      <trkpt lat="45.57384" lon="4.85488">
        <ele>206.87778</ele>
        <time>2021-03-14T09:25:41Z</time>
      </trkpt>
      <trkpt lat="45.57379" lon="4.85493">
        <ele>206.78793</ele>
        <time>2021-03-14T09:25:43Z</time>
      </trkpt>
      <trkpt lat="45.57375" lon="4.85498">
        <ele>206.16963</ele>
        <time>2021-03-14T09:25:45Z</time>
      </trkpt>
      <trkpt lat="45.5737" lon="4.85503">
        <ele>206.23306</ele>
        <time>2021-03-14T09:25:47Z</time>
      </trkpt>
      <trkpt lat="45.57364" lon="4.85508">
        <ele>206.29118</ele>
        <time>2021-03-14T09:25:49Z</time>
      </trkpt>
      <trkpt lat="45.57359" lon="4.85512">
        <ele>206.25946</ele>
        <time>2021-03-14T09:25:51Z</time>
      </trkpt>
      <trkpt lat="45.57355" lon="4.85517">
        <ele>206.36516</ele>
        <time>2021-03-14T09:25:53Z</time>
      </trkpt>
      <trkpt lat="45.5735" lon="4.8552">
        <ele>206.25418</ele>
        <time>2021-03-14T09:25:55Z</time>
      </trkpt>
      <trkpt lat="45.57345" lon="4.85524">
        <ele>206.03752</ele>
        <time>2021-03-14T09:25:57Z</time>
      </trkpt>
      <trkpt lat="45.57339" lon="4.85527">
        <ele>205.97939</ele>
        <time>2021-03-14T09:25:59Z</time>
      </trkpt>
      <trkpt lat="45.57334" lon="4.8553">
        <ele>205.93182</ele>
        <time>2021-03-14T09:26:01Z</time>
      </trkpt>
      <trkpt lat="45.57329" lon="4.85533">
        <ele>206.27005</ele>
        <time>2021-03-14T09:26:03Z</time>
      </trkpt>
      <trkpt lat="45.57324" lon="4.85536">
        <ele>206.12207</ele>
        <time>2021-03-14T09:26:05Z</time>
      </trkpt>
      <trkpt lat="45.57319" lon="4.85538">
        <ele>205.89484</ele>
        <time>2021-03-14T09:26:07Z</time>
      </trkpt>
      <trkpt lat="45.57313" lon="4.85541">
        <ele>206.02167</ele>
        <time>2021-03-14T09:26:09Z</time>
      </trkpt>
      <trkpt lat="45.57308" lon="4.85543">
        <ele>205.77327</ele>
        <time>2021-03-14T09:26:11Z</time>
      </trkpt>
      <trkpt lat="45.57302" lon="4.85544">
        <ele>205.4245</ele>
        <time>2021-03-14T09:26:13Z</time>
      </trkpt>
      <trkpt lat="45.57296" lon="4.85545">
        <ele>205.81557</ele>
        <time>2021-03-14T09:26:15Z</time>
      </trkpt>
      <trkpt lat="45.5729" lon="4.85546">
        <ele>206.23306</ele>
        <time>2021-03-14T09:26:17Z</time>
      </trkpt>
      <trkpt lat="45.57285" lon="4.85546">
        <ele>205.89484</ele>
        <time>2021-03-14T09:26:19Z</time>
      </trkpt>
      <trkpt lat="45.57279" lon="4.85547">
        <ele>206.09566</ele>
        <time>2021-03-14T09:26:21Z</time>
      </trkpt>
      <trkpt lat="45.57274" lon="4.85547">
        <ele>206.30704</ele>
        <time>2021-03-14T09:26:23Z</time>
      </trkpt>
      <trkpt lat="45.57269" lon="4.85549">
        <ele>206.3863</ele>
        <time>2021-03-14T09:26:25Z</time>
      </trkpt>
      <trkpt lat="45.57265" lon="4.85551">
        <ele>206.31232</ele>
        <time>2021-03-14T09:26:27Z</time>
      </trkpt>
      <trkpt lat="45.57258" lon="4.85553">
        <ele>206.29118</ele>
        <time>2021-03-14T09:26:30Z</time>
      </trkpt>
      <trkpt lat="45.57253" lon="4.85555">
        <ele>206.20135</ele>
        <time>2021-03-14T09:26:32Z</time>
      </trkpt>
      <trkpt lat="45.57248" lon="4.85557">
        <ele>206.1802</ele>
        <time>2021-03-14T09:26:34Z</time>
      </trkpt>
      <trkpt lat="45.57243" lon="4.8556">
        <ele>205.69402</ele>
        <time>2021-03-14T09:26:36Z</time>
      </trkpt>
      <trkpt lat="45.57238" lon="4.85562">
        <ele>205.70459</ele>
        <time>2021-03-14T09:26:38Z</time>
      </trkpt>
      <trkpt lat="45.57232" lon="4.85564">
        <ele>205.49321</ele>
        <time>2021-03-14T09:26:40Z</time>
      </trkpt>
      <trkpt lat="45.57227" lon="4.85567">
        <ele>205.64117</ele>
        <time>2021-03-14T09:26:42Z</time>
      </trkpt>
      <trkpt lat="45.57222" lon="4.85569">
        <ele>205.75215</ele>
        <time>2021-03-14T09:26:44Z</time>
      </trkpt>
      <trkpt lat="45.57217" lon="4.85572">
        <ele>205.4245</ele>
        <time>2021-03-14T09:26:46Z</time>
      </trkpt>
      <trkpt lat="45.57212" lon="4.85574">
        <ele>205.07043</ele>
        <time>2021-03-14T09:26:48Z</time>
      </trkpt>
      <trkpt lat="45.57207" lon="4.85577">
        <ele>205.2554</ele>
        <time>2021-03-14T09:26:50Z</time>
      </trkpt>
      <trkpt lat="45.57202" lon="4.85578">
        <ele>205.29239</ele>
        <time>2021-03-14T09:26:52Z</time>
      </trkpt>
      <trkpt lat="45.57197" lon="4.8558">
        <ele>204.8749</ele>
        <time>2021-03-14T09:26:54Z</time>
      </trkpt>
      <trkpt lat="45.57191" lon="4.85582">
        <ele>204.36227</ele>
        <time>2021-03-14T09:26:56Z</time>
      </trkpt>
      <trkpt lat="45.57186" lon="4.85584">
        <ele>204.81148</ele>
        <time>2021-03-14T09:26:58Z</time>
      </trkpt>
      <trkpt lat="45.5718" lon="4.85584">
        <ele>204.97531</ele>
        <time>2021-03-14T09:27:00Z</time>
      </trkpt>
      <trkpt lat="45.57175" lon="4.85586">
        <ele>204.85374</ele>
        <time>2021-03-14T09:27:02Z</time>
      </trkpt>
      <trkpt lat="45.57169" lon="4.85587">
        <ele>205.03343</ele>
        <time>2021-03-14T09:27:04Z</time>
      </trkpt>
      <trkpt lat="45.57163" lon="4.85586">
        <ele>205.12328</ele>
        <time>2021-03-14T09:27:06Z</time>
      </trkpt>
      <trkpt lat="45.57159" lon="4.85579">
        <ele>205.92126</ele>
        <time>2021-03-14T09:27:08Z</time>
      </trkpt>
      <trkpt lat="45.57156" lon="4.85571">
        <ele>205.85255</ele>
        <time>2021-03-14T09:27:10Z</time>
      </trkpt>
      <trkpt lat="45.57154" lon="4.85563">
        <ele>206.17493</ele>
        <time>2021-03-14T09:27:12Z</time>
      </trkpt>
      <trkpt lat="45.57152" lon="4.85554">
        <ele>206.1432</ele>
        <time>2021-03-14T09:27:14Z</time>
      </trkpt>
      <trkpt lat="45.57151" lon="4.85546">
        <ele>206.16963</ele>
        <time>2021-03-14T09:27:16Z</time>
      </trkpt>
      <trkpt lat="45.57149" lon="4.85539">
        <ele>206.2172</ele>
        <time>2021-03-14T09:27:18Z</time>
      </trkpt>
      <trkpt lat="45.57147" lon="4.85531">
        <ele>206.22247</ele>
        <time>2021-03-14T09:27:20Z</time>
      </trkpt>
      <trkpt lat="45.57145" lon="4.85524">
        <ele>206.80908</ele>
        <time>2021-03-14T09:27:22Z</time>
      </trkpt>
      <trkpt lat="45.57143" lon="4.85517">
        <ele>207.18958</ele>
        <time>2021-03-14T09:27:24Z</time>
      </trkpt>
      <trkpt lat="45.57142" lon="4.8551">
        <ele>206.31232</ele>
        <time>2021-03-14T09:27:26Z</time>
      </trkpt>
      <trkpt lat="45.5714" lon="4.85502">
        <ele>207.62819</ele>
        <time>2021-03-14T09:27:28Z</time>
      </trkpt>
      <trkpt lat="45.57137" lon="4.85494">
        <ele>207.30055</ele>
        <time>2021-03-14T09:27:30Z</time>
      </trkpt>
      <trkpt lat="45.57134" lon="4.85486">
        <ele>207.42737</ele>
        <time>2021-03-14T09:27:32Z</time>
      </trkpt>
      <trkpt lat="45.57132" lon="4.85479">
        <ele>207.58592</ele>
        <time>2021-03-14T09:27:34Z</time>
      </trkpt>
      <trkpt lat="45.5713" lon="4.85472">
        <ele>208.23592</ele>
        <time>2021-03-14T09:27:36Z</time>
      </trkpt>
      <trkpt lat="45.57129" lon="4.85464">
        <ele>208.18837</ele>
        <time>2021-03-14T09:27:38Z</time>
      </trkpt>
      <trkpt lat="45.57127" lon="4.85457">
        <ele>208.1091</ele>
        <time>2021-03-14T09:27:40Z</time>
      </trkpt>
      <trkpt lat="45.57125" lon="4.85449">
        <ele>208.04568</ele>
        <time>2021-03-14T09:27:42Z</time>
      </trkpt>
      <trkpt lat="45.57123" lon="4.85441">
        <ele>208.05096</ele>
        <time>2021-03-14T09:27:44Z</time>
      </trkpt>
      <trkpt lat="45.57121" lon="4.85433">
        <ele>208.22536</ele>
        <time>2021-03-14T09:27:46Z</time>
      </trkpt>
      <trkpt lat="45.57119" lon="4.85426">
        <ele>208.28877</ele>
        <time>2021-03-14T09:27:48Z</time>
      </trkpt>
      <trkpt lat="45.57118" lon="4.85418">
        <ele>208.35748</ele>
        <time>2021-03-14T09:27:50Z</time>
      </trkpt>
      <trkpt lat="45.57116" lon="4.85411">
        <ele>207.7286</ele>
        <time>2021-03-14T09:27:52Z</time>
      </trkpt>
      <trkpt lat="45.57115" lon="4.85403">
        <ele>207.92943</ele>
        <time>2021-03-14T09:27:54Z</time>
      </trkpt>
      <trkpt lat="45.57113" lon="4.85395">
        <ele>207.6916</ele>
        <time>2021-03-14T09:27:56Z</time>
      </trkpt>
      <trkpt lat="45.57111" lon="4.85387">
        <ele>207.09973</ele>
        <time>2021-03-14T09:27:58Z</time>
      </trkpt>
      <trkpt lat="45.5711" lon="4.8538">
        <ele>207.30055</ele>
        <time>2021-03-14T09:28:00Z</time>
      </trkpt>
      <trkpt lat="45.57109" lon="4.85373">
        <ele>207.28468</ele>
        <time>2021-03-14T09:28:02Z</time>
      </trkpt>
      <trkpt lat="45.57108" lon="4.85366">
        <ele>207.23714</ele>
        <time>2021-03-14T09:28:04Z</time>
      </trkpt>
      <trkpt lat="45.57106" lon="4.85359">
        <ele>207.18958</ele>
        <time>2021-03-14T09:28:06Z</time>
      </trkpt>
      <trkpt lat="45.57104" lon="4.85352">
        <ele>206.92004</ele>
        <time>2021-03-14T09:28:08Z</time>
      </trkpt>
      <trkpt lat="45.57102" lon="4.85346">
        <ele>207.08388</ele>
        <time>2021-03-14T09:28:10Z</time>
      </trkpt>
      <trkpt lat="45.57101" lon="4.85338">
        <ele>207.04689</ele>
        <time>2021-03-14T09:28:12Z</time>
      </trkpt>
      <trkpt lat="45.571" lon="4.85332">
        <ele>206.9042</ele>
        <time>2021-03-14T09:28:14Z</time>
      </trkpt>
      <trkpt lat="45.571" lon="4.85325">
        <ele>206.90948</ele>
        <time>2021-03-14T09:28:16Z</time>
      </trkpt>
      <trkpt lat="45.57098" lon="4.85318">
        <ele>206.23834</ele>
        <time>2021-03-14T09:28:18Z</time>
      </trkpt>
      <trkpt lat="45.57096" lon="4.85311">
        <ele>205.66759</ele>
        <time>2021-03-14T09:28:20Z</time>
      </trkpt>
      <trkpt lat="45.57095" lon="4.85303">
        <ele>205.77327</ele>
        <time>2021-03-14T09:28:22Z</time>
      </trkpt>
      <trkpt lat="45.57092" lon="4.85296">
        <ele>205.56189</ele>
        <time>2021-03-14T09:28:24Z</time>
      </trkpt>
      <trkpt lat="45.5709" lon="4.85289">
        <ele>205.68874</ele>
        <time>2021-03-14T09:28:26Z</time>
      </trkpt>
      <trkpt lat="45.57088" lon="4.85283">
        <ele>205.10213</ele>
        <time>2021-03-14T09:28:28Z</time>
      </trkpt>
      <trkpt lat="45.57085" lon="4.85276">
        <ele>204.8062</ele>
        <time>2021-03-14T09:28:30Z</time>
      </trkpt>
      <trkpt lat="45.57081" lon="4.85269">
        <ele>204.39928</ele>
        <time>2021-03-14T09:28:32Z</time>
      </trkpt>
      <trkpt lat="45.57078" lon="4.85263">
        <ele>203.75455</ele>
        <time>2021-03-14T09:28:34Z</time>
      </trkpt>
      <trkpt lat="45.57074" lon="4.85257">
        <ele>204.49968</ele>
        <time>2021-03-14T09:28:36Z</time>
      </trkpt>
      <trkpt lat="45.57071" lon="4.8525">
        <ele>204.36227</ele>
        <time>2021-03-14T09:28:38Z</time>
      </trkpt>
      <trkpt lat="45.57068" lon="4.85244">
        <ele>203.68585</ele>
        <time>2021-03-14T09:28:40Z</time>
      </trkpt>
      <trkpt lat="45.57064" lon="4.85238">
        <ele>203.40048</ele>
        <time>2021-03-14T09:28:42Z</time>
      </trkpt>
      <trkpt lat="45.57061" lon="4.85232">
        <ele>203.19438</ele>
        <time>2021-03-14T09:28:44Z</time>
      </trkpt>
      <trkpt lat="45.57057" lon="4.85226">
        <ele>203.07283</ele>
        <time>2021-03-14T09:28:46Z</time>
      </trkpt>
      <trkpt lat="45.57053" lon="4.8522">
        <ele>203.26308</ele>
        <time>2021-03-14T09:28:48Z</time>
      </trkpt>
      <trkpt lat="45.5705" lon="4.85213">
        <ele>202.24313</ele>
        <time>2021-03-14T09:28:50Z</time>
      </trkpt>
      <trkpt lat="45.57047" lon="4.85207">
        <ele>202.75575</ele>
        <time>2021-03-14T09:28:52Z</time>
      </trkpt>
      <trkpt lat="45.57044" lon="4.85201">
        <ele>202.68178</ele>
        <time>2021-03-14T09:28:54Z</time>
      </trkpt>
      <trkpt lat="45.57042" lon="4.85195">
        <ele>202.6395</ele>
        <time>2021-03-14T09:28:56Z</time>
      </trkpt>
      <trkpt lat="45.57037" lon="4.85186">
        <ele>202.1903</ele>
        <time>2021-03-14T09:28:59Z</time>
      </trkpt>
      <trkpt lat="45.57035" lon="4.85178">
        <ele>202.14273</ele>
        <time>2021-03-14T09:29:01Z</time>
      </trkpt>
      <trkpt lat="45.57032" lon="4.85171">
        <ele>201.96834</ele>
        <time>2021-03-14T09:29:03Z</time>
      </trkpt>
      <trkpt lat="45.57029" lon="4.85164">
        <ele>200.93256</ele>
        <time>2021-03-14T09:29:05Z</time>
      </trkpt>
      <trkpt lat="45.57027" lon="4.85156">
        <ele>201.2919</ele>
        <time>2021-03-14T09:29:07Z</time>
      </trkpt>
      <trkpt lat="45.57024" lon="4.8515">
        <ele>202.14803</ele>
        <time>2021-03-14T09:29:09Z</time>
      </trkpt>
      <trkpt lat="45.57021" lon="4.85144">
        <ele>201.47688</ele>
        <time>2021-03-14T09:29:11Z</time>
      </trkpt>
      <trkpt lat="45.57018" lon="4.85137">
        <ele>200.92728</ele>
        <time>2021-03-14T09:29:13Z</time>
      </trkpt>
      <trkpt lat="45.57016" lon="4.85131">
        <ele>200.25084</ele>
        <time>2021-03-14T09:29:15Z</time>
      </trkpt>
      <trkpt lat="45.57014" lon="4.85125">
        <ele>200.62604</ele>
        <time>2021-03-14T09:29:17Z</time>
      </trkpt>
      <trkpt lat="45.57011" lon="4.85118">
        <ele>201.13338</ele>
        <time>2021-03-14T09:29:19Z</time>
      </trkpt>
      <trkpt lat="45.57008" lon="4.85111">
        <ele>200.71588</ele>
        <time>2021-03-14T09:29:21Z</time>
      </trkpt>
      <trkpt lat="45.57006" lon="4.85105">
        <ele>200.32483</ele>
        <time>2021-03-14T09:29:23Z</time>
      </trkpt>
      <trkpt lat="45.57003" lon="4.85099">
        <ele>200.55206</ele>
        <time>2021-03-14T09:29:25Z</time>
      </trkpt>
      <trkpt lat="45.57001" lon="4.85092">
        <ele>199.97604</ele>
        <time>2021-03-14T09:29:27Z</time>
      </trkpt>
      <trkpt lat="45.56998" lon="4.85086">
        <ele>199.66953</ele>
        <time>2021-03-14T09:29:29Z</time>
      </trkpt>
      <trkpt lat="45.56996" lon="4.85079">
        <ele>199.35245</ele>
        <time>2021-03-14T09:29:31Z</time>
      </trkpt>
      <trkpt lat="45.56994" lon="4.85073">
        <ele>198.39064</ele>
        <time>2021-03-14T09:29:33Z</time>
      </trkpt>
      <trkpt lat="45.56991" lon="4.85067">
        <ele>199.11462</ele>
        <time>2021-03-14T09:29:35Z</time>
      </trkpt>
      <trkpt lat="45.56989" lon="4.85062">
        <ele>198.98781</ele>
        <time>2021-03-14T09:29:37Z</time>
      </trkpt>
      <trkpt lat="45.56985" lon="4.85055">
        <ele>198.37479</ele>
        <time>2021-03-14T09:29:39Z</time>
      </trkpt>
      <trkpt lat="45.56983" lon="4.85049">
        <ele>198.40121</ele>
        <time>2021-03-14T09:29:41Z</time>
      </trkpt>
      <trkpt lat="45.56982" lon="4.85043">
        <ele>198.09999</ele>
        <time>2021-03-14T09:29:43Z</time>
      </trkpt>
      <trkpt lat="45.5698" lon="4.85036">
        <ele>197.8252</ele>
        <time>2021-03-14T09:29:45Z</time>
      </trkpt>
      <trkpt lat="45.56978" lon="4.85029">
        <ele>197.9573</ele>
        <time>2021-03-14T09:29:47Z</time>
      </trkpt>
      <trkpt lat="45.56976" lon="4.85023">
        <ele>197.86218</ele>
        <time>2021-03-14T09:29:49Z</time>
      </trkpt>
      <trkpt lat="45.56974" lon="4.85015">
        <ele>197.7882</ele>
        <time>2021-03-14T09:29:51Z</time>
      </trkpt>
      <trkpt lat="45.56974" lon="4.85007">
        <ele>197.78291</ele>
        <time>2021-03-14T09:29:53Z</time>
      </trkpt>
      <trkpt lat="45.56975" lon="4.84999">
        <ele>197.39714</ele>
        <time>2021-03-14T09:29:55Z</time>
      </trkpt>
      <trkpt lat="45.56976" lon="4.84991">
        <ele>197.66664</ele>
        <time>2021-03-14T09:29:57Z</time>
      </trkpt>
      <trkpt lat="45.56978" lon="4.84982">
        <ele>197.3073</ele>
        <time>2021-03-14T09:29:59Z</time>
      </trkpt>
      <trkpt lat="45.5698" lon="4.84974">
        <ele>196.04955</ele>
        <time>2021-03-14T09:30:01Z</time>
      </trkpt>
      <trkpt lat="45.56982" lon="4.84966">
        <ele>195.1406</ele>
        <time>2021-03-14T09:30:03Z</time>
      </trkpt>
      <trkpt lat="45.56985" lon="4.84958">
        <ele>194.98734</ele>
        <time>2021-03-14T09:30:05Z</time>
      </trkpt>
      <trkpt lat="45.56987" lon="4.84948">
        <ele>195.14587</ele>
        <time>2021-03-14T09:30:08Z</time>
      </trkpt>
      <trkpt lat="45.56989" lon="4.8494">
        <ele>196.22394</ele>
        <time>2021-03-14T09:30:11Z</time>
      </trkpt>
      <trkpt lat="45.56992" lon="4.8493">
        <ele>193.6239</ele>
        <time>2021-03-14T09:30:14Z</time>
      </trkpt>
      <trkpt lat="45.56995" lon="4.84917">
        <ele>193.3174</ele>
        <time>2021-03-14T09:30:18Z</time>
      </trkpt>
      <trkpt lat="45.56996" lon="4.84911">
        <ele>191.77428</ele>
        <time>2021-03-14T09:30:20Z</time>
      </trkpt>
      <trkpt lat="45.56997" lon="4.849">
        <ele>189.87709</ele>
        <time>2021-03-14T09:30:23Z</time>
      </trkpt>
      <trkpt lat="45.56996" lon="4.84889">
        <ele>190.10434</ele>
        <time>2021-03-14T09:30:26Z</time>
      </trkpt>
      <trkpt lat="45.56996" lon="4.84882">
        <ele>189.59172</ele>
        <time>2021-03-14T09:30:28Z</time>
      </trkpt>
      <trkpt lat="45.56995" lon="4.84871">
        <ele>188.93114</ele>
        <time>2021-03-14T09:30:31Z</time>
      </trkpt>
      <trkpt lat="45.56995" lon="4.84861">
        <ele>189.04741</ele>
        <time>2021-03-14T09:30:34Z</time>
      </trkpt>
      <trkpt lat="45.56994" lon="4.84851">
        <ele>188.42381</ele>
        <time>2021-03-14T09:30:37Z</time>
      </trkpt>
      <trkpt lat="45.56994" lon="4.84843">
        <ele>188.04332</ele>
        <time>2021-03-14T09:30:39Z</time>
      </trkpt>
      <trkpt lat="45.56994" lon="4.84831">
        <ele>187.96405</ele>
        <time>2021-03-14T09:30:42Z</time>
      </trkpt>
      <trkpt lat="45.56994" lon="4.84818">
        <ele>187.16606</ele>
        <time>2021-03-14T09:30:45Z</time>
      </trkpt>
      <trkpt lat="45.56994" lon="4.8481">
        <ele>187.02866</ele>
        <time>2021-03-14T09:30:47Z</time>
      </trkpt>
      <trkpt lat="45.56994" lon="4.84798">
        <ele>187.02338</ele>
        <time>2021-03-14T09:30:50Z</time>
      </trkpt>
      <trkpt lat="45.56994" lon="4.84791">
        <ele>186.83842</ele>
        <time>2021-03-14T09:30:52Z</time>
      </trkpt>
      <trkpt lat="45.56997" lon="4.84781">
        <ele>186.48964</ele>
        <time>2021-03-14T09:30:55Z</time>
      </trkpt>
      <trkpt lat="45.57" lon="4.84774">
        <ele>186.17784</ele>
        <time>2021-03-14T09:30:57Z</time>
      </trkpt>
      <trkpt lat="45.57002" lon="4.84767">
        <ele>185.90833</ele>
        <time>2021-03-14T09:30:59Z</time>
      </trkpt>
      <trkpt lat="45.57003" lon="4.84761">
        <ele>185.80792</ele>
        <time>2021-03-14T09:31:01Z</time>
      </trkpt>
      <trkpt lat="45.57006" lon="4.84751">
        <ele>185.90303</ele>
        <time>2021-03-14T09:31:04Z</time>
      </trkpt>
      <trkpt lat="45.57009" lon="4.84744">
        <ele>185.6758</ele>
        <time>2021-03-14T09:31:06Z</time>
      </trkpt>
      <trkpt lat="45.57012" lon="4.84737">
        <ele>185.23718</ele>
        <time>2021-03-14T09:31:08Z</time>
      </trkpt>
      <trkpt lat="45.57015" lon="4.84729">
        <ele>185.03636</ele>
        <time>2021-03-14T09:31:10Z</time>
      </trkpt>
      <trkpt lat="45.57018" lon="4.84719">
        <ele>184.65059</ele>
        <time>2021-03-14T09:31:13Z</time>
      </trkpt>
      <trkpt lat="45.5702" lon="4.84709">
        <ele>184.59244</ele>
        <time>2021-03-14T09:31:16Z</time>
      </trkpt>
      <trkpt lat="45.57021" lon="4.84702">
        <ele>184.32294</ele>
        <time>2021-03-14T09:31:18Z</time>
      </trkpt>
      <trkpt lat="45.57022" lon="4.84694">
        <ele>184.04814</ele>
        <time>2021-03-14T09:31:20Z</time>
      </trkpt>
      <trkpt lat="45.57021" lon="4.84687">
        <ele>183.72049</ele>
        <time>2021-03-14T09:31:22Z</time>
      </trkpt>
      <trkpt lat="45.57019" lon="4.84679">
        <ele>183.52495</ele>
        <time>2021-03-14T09:31:24Z</time>
      </trkpt>
      <trkpt lat="45.57017" lon="4.84672">
        <ele>182.90137</ele>
        <time>2021-03-14T09:31:26Z</time>
      </trkpt>
      <trkpt lat="45.57014" lon="4.84661">
        <ele>182.0928</ele>
        <time>2021-03-14T09:31:29Z</time>
      </trkpt>
      <trkpt lat="45.57012" lon="4.84654">
        <ele>182.36761</ele>
        <time>2021-03-14T09:31:30Z</time>
      </trkpt>
      <trkpt lat="45.5701" lon="4.84647">
        <ele>182.29892</ele>
        <time>2021-03-14T09:31:32Z</time>
      </trkpt>
      <trkpt lat="45.57007" lon="4.8464">
        <ele>181.94484</ele>
        <time>2021-03-14T09:31:34Z</time>
      </trkpt>
      <trkpt lat="45.57003" lon="4.84631">
        <ele>182.23549</ele>
        <time>2021-03-14T09:31:37Z</time>
      </trkpt>
      <trkpt lat="45.56999" lon="4.84625">
        <ele>182.00827</ele>
        <time>2021-03-14T09:31:39Z</time>
      </trkpt>
      <trkpt lat="45.56995" lon="4.8462">
        <ele>182.20909</ele>
        <time>2021-03-14T09:31:41Z</time>
      </trkpt>
      <trkpt lat="45.56992" lon="4.84615">
        <ele>182.58957</ele>
        <time>2021-03-14T09:31:43Z</time>
      </trkpt>
      <trkpt lat="45.56989" lon="4.84609">
        <ele>182.19322</ele>
        <time>2021-03-14T09:31:45Z</time>
      </trkpt>
      <trkpt lat="45.56986" lon="4.84603">
        <ele>182.52617</ele>
        <time>2021-03-14T09:31:47Z</time>
      </trkpt>
      <trkpt lat="45.56983" lon="4.84597">
        <ele>182.93307</ele>
        <time>2021-03-14T09:31:49Z</time>
      </trkpt>
      <trkpt lat="45.56978" lon="4.84591">
        <ele>183.58308</ele>
        <time>2021-03-14T09:31:52Z</time>
      </trkpt>
      <trkpt lat="45.56974" lon="4.84586">
        <ele>184.06926</ele>
        <time>2021-03-14T09:31:54Z</time>
      </trkpt>
      <trkpt lat="45.5697" lon="4.84581">
        <ele>184.50261</ele>
        <time>2021-03-14T09:31:56Z</time>
      </trkpt>
      <trkpt lat="45.56965" lon="4.84571">
        <ele>184.8778</ele>
        <time>2021-03-14T09:32:00Z</time>
      </trkpt>
      <trkpt lat="45.56961" lon="4.84566">
        <ele>184.48676</ele>
        <time>2021-03-14T09:32:02Z</time>
      </trkpt>
      <trkpt lat="45.56956" lon="4.84561">
        <ele>184.96767</ele>
        <time>2021-03-14T09:32:05Z</time>
      </trkpt>
      <trkpt lat="45.56951" lon="4.84556">
        <ele>185.11563</ele>
        <time>2021-03-14T09:32:07Z</time>
      </trkpt>
      <trkpt lat="45.56946" lon="4.84552">
        <ele>185.99287</ele>
        <time>2021-03-14T09:32:09Z</time>
      </trkpt>
      <trkpt lat="45.5694" lon="4.84546">
        <ele>186.25182</ele>
        <time>2021-03-14T09:32:12Z</time>
      </trkpt>
      <trkpt lat="45.56936" lon="4.84543">
        <ele>187.2242</ele>
        <time>2021-03-14T09:32:14Z</time>
      </trkpt>
      <trkpt lat="45.56931" lon="4.84541">
        <ele>187.61526</ele>
        <time>2021-03-14T09:32:16Z</time>
      </trkpt>
      <trkpt lat="45.56926" lon="4.84539">
        <ele>188.13316</ele>
        <time>2021-03-14T09:32:18Z</time>
      </trkpt>
      <trkpt lat="45.56921" lon="4.84536">
        <ele>189.41203</ele>
        <time>2021-03-14T09:32:21Z</time>
      </trkpt>
      <trkpt lat="45.56917" lon="4.84531">
        <ele>190.01448</ele>
        <time>2021-03-14T09:32:24Z</time>
      </trkpt>
      <trkpt lat="45.56914" lon="4.84527">
        <ele>191.03442</ele>
        <time>2021-03-14T09:32:26Z</time>
      </trkpt>
      <trkpt lat="45.5691" lon="4.84522">
        <ele>191.03442</ele>
        <time>2021-03-14T09:32:28Z</time>
      </trkpt>
      <trkpt lat="45.56905" lon="4.84517">
        <ele>191.77428</ele>
        <time>2021-03-14T09:32:31Z</time>
      </trkpt>
      <trkpt lat="45.56901" lon="4.84511">
        <ele>192.34502</ele>
        <time>2021-03-14T09:32:34Z</time>
      </trkpt>
      <trkpt lat="45.56897" lon="4.84507">
        <ele>193.35439</ele>
        <time>2021-03-14T09:32:36Z</time>
      </trkpt>
      <trkpt lat="45.56894" lon="4.84503">
        <ele>193.87228</ele>
        <time>2021-03-14T09:32:38Z</time>
      </trkpt>
      <trkpt lat="45.56889" lon="4.84498">
        <ele>194.26863</ele>
        <time>2021-03-14T09:32:41Z</time>
      </trkpt>
      <trkpt lat="45.56887" lon="4.84492">
        <ele>194.74954</ele>
        <time>2021-03-14T09:32:43Z</time>
      </trkpt>
      <trkpt lat="45.56885" lon="4.84486">
        <ele>195.54222</ele>
        <time>2021-03-14T09:32:45Z</time>
      </trkpt>
      <trkpt lat="45.56883" lon="4.84479">
        <ele>196.30322</ele>
        <time>2021-03-14T09:32:47Z</time>
      </trkpt>
      <trkpt lat="45.56881" lon="4.84473">
        <ele>196.50932</ele>
        <time>2021-03-14T09:32:49Z</time>
      </trkpt>
      <trkpt lat="45.56879" lon="4.84467">
        <ele>196.97964</ele>
        <time>2021-03-14T09:32:51Z</time>
      </trkpt>
      <trkpt lat="45.56877" lon="4.84458">
        <ele>197.71422</ele>
        <time>2021-03-14T09:32:54Z</time>
      </trkpt>
      <trkpt lat="45.56875" lon="4.8445">
        <ele>198.41707</ele>
        <time>2021-03-14T09:32:57Z</time>
      </trkpt>
      <trkpt lat="45.56873" lon="4.84444">
        <ele>199.04594</ele>
        <time>2021-03-14T09:32:59Z</time>
      </trkpt>
      <trkpt lat="45.56871" lon="4.84437">
        <ele>199.73822</ele>
        <time>2021-03-14T09:33:01Z</time>
      </trkpt>
      <trkpt lat="45.56868" lon="4.84431">
        <ele>200.15044</ele>
        <time>2021-03-14T09:33:03Z</time>
      </trkpt>
      <trkpt lat="45.56865" lon="4.84422">
        <ele>201.13338</ele>
        <time>2021-03-14T09:33:06Z</time>
      </trkpt>
      <trkpt lat="45.56863" lon="4.84417">
        <ele>201.43987</ele>
        <time>2021-03-14T09:33:08Z</time>
      </trkpt>
      <trkpt lat="45.5686" lon="4.84408">
        <ele>202.30128</ele>
        <time>2021-03-14T09:33:11Z</time>
      </trkpt>
      <trkpt lat="45.56859" lon="4.84401">
        <ele>202.94072</ele>
        <time>2021-03-14T09:33:13Z</time>
      </trkpt>
      <trkpt lat="45.56857" lon="4.84394">
        <ele>203.32121</ele>
        <time>2021-03-14T09:33:15Z</time>
      </trkpt>
      <trkpt lat="45.56855" lon="4.84388">
        <ele>203.4956</ele>
        <time>2021-03-14T09:33:17Z</time>
      </trkpt>
      <trkpt lat="45.56854" lon="4.84382">
        <ele>204.2513</ele>
        <time>2021-03-14T09:33:19Z</time>
      </trkpt>
      <trkpt lat="45.56852" lon="4.84375">
        <ele>204.39928</ele>
        <time>2021-03-14T09:33:21Z</time>
      </trkpt>
      <trkpt lat="45.56849" lon="4.84368">
        <ele>203.68585</ele>
        <time>2021-03-14T09:33:23Z</time>
      </trkpt>
      <trkpt lat="45.56847" lon="4.84362">
        <ele>202.8403</ele>
        <time>2021-03-14T09:33:25Z</time>
      </trkpt>
      <trkpt lat="45.56844" lon="4.84355">
        <ele>203.32649</ele>
        <time>2021-03-14T09:33:27Z</time>
      </trkpt>
      <trkpt lat="45.56841" lon="4.84349">
        <ele>203.19438</ele>
        <time>2021-03-14T09:33:29Z</time>
      </trkpt>
      <trkpt lat="45.56839" lon="4.84342">
        <ele>203.1521</ele>
        <time>2021-03-14T09:33:31Z</time>
      </trkpt>
      <trkpt lat="45.56836" lon="4.84336">
        <ele>203.37405</ele>
        <time>2021-03-14T09:33:33Z</time>
      </trkpt>
      <trkpt lat="45.56833" lon="4.8433">
        <ele>203.27367</ele>
        <time>2021-03-14T09:33:35Z</time>
      </trkpt>
      <trkpt lat="45.56831" lon="4.84324">
        <ele>202.7716</ele>
        <time>2021-03-14T09:33:37Z</time>
      </trkpt>
      <trkpt lat="45.56828" lon="4.84319">
        <ele>203.09926</ele>
        <time>2021-03-14T09:33:39Z</time>
      </trkpt>
      <trkpt lat="45.56825" lon="4.84313">
        <ele>203.3635</ele>
        <time>2021-03-14T09:33:41Z</time>
      </trkpt>
      <trkpt lat="45.56821" lon="4.84305">
        <ele>203.84439</ele>
        <time>2021-03-14T09:33:44Z</time>
      </trkpt>
      <trkpt lat="45.56819" lon="4.84299">
        <ele>202.39641</ele>
        <time>2021-03-14T09:33:46Z</time>
      </trkpt>
      <trkpt lat="45.56817" lon="4.84293">
        <ele>201.30249</ele>
        <time>2021-03-14T09:33:48Z</time>
      </trkpt>
      <trkpt lat="45.56814" lon="4.84284">
        <ele>200.80571</ele>
        <time>2021-03-14T09:33:51Z</time>
      </trkpt>
      <trkpt lat="45.56812" lon="4.84277">
        <ele>200.21385</ele>
        <time>2021-03-14T09:33:53Z</time>
      </trkpt>
      <trkpt lat="45.5681" lon="4.84271">
        <ele>199.87035</ele>
        <time>2021-03-14T09:33:55Z</time>
      </trkpt>
      <trkpt lat="45.56807" lon="4.84266">
        <ele>199.60081</ele>
        <time>2021-03-14T09:33:57Z</time>
      </trkpt>
      <trkpt lat="45.56805" lon="4.84259">
        <ele>199.63254</ele>
        <time>2021-03-14T09:33:59Z</time>
      </trkpt>
      <trkpt lat="45.56802" lon="4.84252">
        <ele>198.60732</ele>
        <time>2021-03-14T09:34:01Z</time>
      </trkpt>
      <trkpt lat="45.56801" lon="4.84246">
        <ele>198.86626</ele>
        <time>2021-03-14T09:34:03Z</time>
      </trkpt>
      <trkpt lat="45.56797" lon="4.8424">
        <ele>198.08414</ele>
        <time>2021-03-14T09:34:05Z</time>
      </trkpt>
      <trkpt lat="45.56793" lon="4.84237">
        <ele>197.91502</ele>
        <time>2021-03-14T09:34:07Z</time>
      </trkpt>
      <trkpt lat="45.56789" lon="4.84232">
        <ele>197.41298</ele>
        <time>2021-03-14T09:34:09Z</time>
      </trkpt>
      <trkpt lat="45.56783" lon="4.84229">
        <ele>197.50812</ele>
        <time>2021-03-14T09:34:12Z</time>
      </trkpt>
      <trkpt lat="45.56779" lon="4.84226">
        <ele>197.01135</ele>
        <time>2021-03-14T09:34:14Z</time>
      </trkpt>
      <trkpt lat="45.56774" lon="4.84223">
        <ele>196.66257</ele>
        <time>2021-03-14T09:34:16Z</time>
      </trkpt>
      <trkpt lat="45.5677" lon="4.8422">
        <ele>196.4459</ele>
        <time>2021-03-14T09:34:18Z</time>
      </trkpt>
      <trkpt lat="45.56765" lon="4.84219">
        <ele>196.97964</ele>
        <time>2021-03-14T09:34:20Z</time>
      </trkpt>
      <trkpt lat="45.56761" lon="4.84221">
        <ele>197.10118</ele>
        <time>2021-03-14T09:34:22Z</time>
      </trkpt>
      <trkpt lat="45.56758" lon="4.84226">
        <ele>197.11177</ele>
        <time>2021-03-14T09:34:24Z</time>
      </trkpt>
      <trkpt lat="45.56754" lon="4.84233">
        <ele>198.07884</ele>
        <time>2021-03-14T09:34:27Z</time>
      </trkpt>
      <trkpt lat="45.5675" lon="4.84239">
        <ele>198.61787</ele>
        <time>2021-03-14T09:34:30Z</time>
      </trkpt>
      <trkpt lat="45.56747" lon="4.84246">
        <ele>198.84512</ele>
        <time>2021-03-14T09:34:32Z</time>
      </trkpt>
      <trkpt lat="45.56744" lon="4.84252">
        <ele>199.14635</ele>
        <time>2021-03-14T09:34:34Z</time>
      </trkpt>
      <trkpt lat="45.56741" lon="4.84258">
        <ele>199.4317</ele>
        <time>2021-03-14T09:34:36Z</time>
      </trkpt>
      <trkpt lat="45.56739" lon="4.84263">
        <ele>199.85448</ele>
        <time>2021-03-14T09:34:38Z</time>
      </trkpt>
      <trkpt lat="45.56735" lon="4.8427">
        <ele>200.46751</ele>
        <time>2021-03-14T09:34:41Z</time>
      </trkpt>
      <trkpt lat="45.56732" lon="4.84276">
        <ele>201.23378</ele>
        <time>2021-03-14T09:34:43Z</time>
      </trkpt>
      <trkpt lat="45.56729" lon="4.84282">
        <ele>201.48216</ele>
        <time>2021-03-14T09:34:45Z</time>
      </trkpt>
      <trkpt lat="45.56725" lon="4.84289">
        <ele>201.51387</ele>
        <time>2021-03-14T09:34:47Z</time>
      </trkpt>
      <trkpt lat="45.56722" lon="4.84295">
        <ele>202.1586</ele>
        <time>2021-03-14T09:34:49Z</time>
      </trkpt>
      <trkpt lat="45.56719" lon="4.84301">
        <ele>200.87442</ele>
        <time>2021-03-14T09:34:51Z</time>
      </trkpt>
      <trkpt lat="45.56716" lon="4.84307">
        <ele>203.60658</ele>
        <time>2021-03-14T09:34:53Z</time>
      </trkpt>
      <trkpt lat="45.56711" lon="4.84315">
        <ele>203.6013</ele>
        <time>2021-03-14T09:34:55Z</time>
      </trkpt>
      <trkpt lat="45.56707" lon="4.8432">
        <ele>203.24724</ele>
        <time>2021-03-14T09:34:57Z</time>
      </trkpt>
      <trkpt lat="45.56704" lon="4.84326">
        <ele>203.33707</ele>
        <time>2021-03-14T09:34:59Z</time>
      </trkpt>
      <trkpt lat="45.567" lon="4.84331">
        <ele>203.40048</ele>
        <time>2021-03-14T09:35:01Z</time>
      </trkpt>
      <trkpt lat="45.56697" lon="4.84337">
        <ele>203.60658</ele>
        <time>2021-03-14T09:35:03Z</time>
      </trkpt>
      <trkpt lat="45.56694" lon="4.84342">
        <ele>203.99765</ele>
        <time>2021-03-14T09:35:05Z</time>
      </trkpt>
      <trkpt lat="45.5669" lon="4.84348">
        <ele>204.17732</ele>
        <time>2021-03-14T09:35:07Z</time>
      </trkpt>
      <trkpt lat="45.56687" lon="4.84354">
        <ele>204.00821</ele>
        <time>2021-03-14T09:35:09Z</time>
      </trkpt>
      <trkpt lat="45.56684" lon="4.84359">
        <ele>204.19847</ele>
        <time>2021-03-14T09:35:11Z</time>
      </trkpt>
      <trkpt lat="45.5668" lon="4.84365">
        <ele>204.17204</ele>
        <time>2021-03-14T09:35:13Z</time>
      </trkpt>
      <trkpt lat="45.56676" lon="4.84374">
        <ele>204.6001</ele>
        <time>2021-03-14T09:35:16Z</time>
      </trkpt>
      <trkpt lat="45.56672" lon="4.8438">
        <ele>204.92245</ele>
        <time>2021-03-14T09:35:18Z</time>
      </trkpt>
      <trkpt lat="45.56669" lon="4.84386">
        <ele>204.97003</ele>
        <time>2021-03-14T09:35:20Z</time>
      </trkpt>
      <trkpt lat="45.56665" lon="4.84392">
        <ele>204.88547</ele>
        <time>2021-03-14T09:35:22Z</time>
      </trkpt>
      <trkpt lat="45.56662" lon="4.84398">
        <ele>205.1497</ele>
        <time>2021-03-14T09:35:24Z</time>
      </trkpt>
      <trkpt lat="45.56657" lon="4.84405">
        <ele>204.75336</ele>
        <time>2021-03-14T09:35:26Z</time>
      </trkpt>
      <trkpt lat="45.56654" lon="4.84412">
        <ele>205.01758</ele>
        <time>2021-03-14T09:35:28Z</time>
      </trkpt>
      <trkpt lat="45.56651" lon="4.84418">
        <ele>205.09685</ele>
        <time>2021-03-14T09:35:30Z</time>
      </trkpt>
      <trkpt lat="45.56648" lon="4.84424">
        <ele>204.8062</ele>
        <time>2021-03-14T09:35:32Z</time>
      </trkpt>
      <trkpt lat="45.56645" lon="4.8443">
        <ele>205.50905</ele>
        <time>2021-03-14T09:35:34Z</time>
      </trkpt>
      <trkpt lat="45.56642" lon="4.84436">
        <ele>205.57248</ele>
        <time>2021-03-14T09:35:36Z</time>
      </trkpt>
      <trkpt lat="45.56639" lon="4.84441">
        <ele>205.98466</ele>
        <time>2021-03-14T09:35:38Z</time>
      </trkpt>
      <trkpt lat="45.56636" lon="4.84447">
        <ele>206.03224</ele>
        <time>2021-03-14T09:35:40Z</time>
      </trkpt>
      <trkpt lat="45.56632" lon="4.84452">
        <ele>205.85255</ele>
        <time>2021-03-14T09:35:42Z</time>
      </trkpt>
      <trkpt lat="45.56628" lon="4.84458">
        <ele>206.32817</ele>
        <time>2021-03-14T09:35:44Z</time>
      </trkpt>
      <trkpt lat="45.56626" lon="4.84464">
        <ele>206.08507</ele>
        <time>2021-03-14T09:35:46Z</time>
      </trkpt>
      <trkpt lat="45.56623" lon="4.8447">
        <ele>206.47086</ele>
        <time>2021-03-14T09:35:48Z</time>
      </trkpt>
      <trkpt lat="45.5662" lon="4.84477">
        <ele>206.64525</ele>
        <time>2021-03-14T09:35:50Z</time>
      </trkpt>
      <trkpt lat="45.56617" lon="4.84483">
        <ele>206.84607</ele>
        <time>2021-03-14T09:35:52Z</time>
      </trkpt>
      <trkpt lat="45.56614" lon="4.84488">
        <ele>206.86191</ele>
        <time>2021-03-14T09:35:54Z</time>
      </trkpt>
      <trkpt lat="45.56611" lon="4.84493">
        <ele>206.69283</ele>
        <time>2021-03-14T09:35:56Z</time>
      </trkpt>
      <trkpt lat="45.56608" lon="4.84499">
        <ele>206.96233</ele>
        <time>2021-03-14T09:35:58Z</time>
      </trkpt>
      <trkpt lat="45.56606" lon="4.84504">
        <ele>206.9412</ele>
        <time>2021-03-14T09:36:00Z</time>
      </trkpt>
      <trkpt lat="45.56604" lon="4.8451">
        <ele>207.53836</ele>
        <time>2021-03-14T09:36:02Z</time>
      </trkpt>
      <trkpt lat="45.56601" lon="4.84517">
        <ele>207.0099</ele>
        <time>2021-03-14T09:36:04Z</time>
      </trkpt>
      <trkpt lat="45.56599" lon="4.84523">
        <ele>207.39038</ele>
        <time>2021-03-14T09:36:06Z</time>
      </trkpt>
      <trkpt lat="45.56597" lon="4.84532">
        <ele>207.79202</ele>
        <time>2021-03-14T09:36:09Z</time>
      </trkpt>
      <trkpt lat="45.56595" lon="4.84538">
        <ele>207.78674</ele>
        <time>2021-03-14T09:36:11Z</time>
      </trkpt>
      <trkpt lat="45.56593" lon="4.84546">
        <ele>207.77615</ele>
        <time>2021-03-14T09:36:13Z</time>
      </trkpt>
      <trkpt lat="45.56591" lon="4.84554">
        <ele>208.05096</ele>
        <time>2021-03-14T09:36:15Z</time>
      </trkpt>
      <trkpt lat="45.56588" lon="4.84561">
        <ele>208.27292</ele>
        <time>2021-03-14T09:36:17Z</time>
      </trkpt>
      <trkpt lat="45.56587" lon="4.84568">
        <ele>208.17252</ele>
        <time>2021-03-14T09:36:19Z</time>
      </trkpt>
      <trkpt lat="45.56585" lon="4.84574">
        <ele>208.5847</ele>
        <time>2021-03-14T09:36:21Z</time>
      </trkpt>
      <trkpt lat="45.56582" lon="4.84581">
        <ele>208.9282</ele>
        <time>2021-03-14T09:36:23Z</time>
      </trkpt>
      <trkpt lat="45.5658" lon="4.84588">
        <ele>208.73798</ele>
        <time>2021-03-14T09:36:25Z</time>
      </trkpt>
      <trkpt lat="45.56578" lon="4.84596">
        <ele>208.65869</ele>
        <time>2021-03-14T09:36:27Z</time>
      </trkpt>
      <trkpt lat="45.56576" lon="4.84603">
        <ele>209.09204</ele>
        <time>2021-03-14T09:36:29Z</time>
      </trkpt>
      <trkpt lat="45.56575" lon="4.84609">
        <ele>209.42497</ele>
        <time>2021-03-14T09:36:31Z</time>
      </trkpt>
      <trkpt lat="45.56572" lon="4.84616">
        <ele>209.8213</ele>
        <time>2021-03-14T09:36:33Z</time>
      </trkpt>
      <trkpt lat="45.5657" lon="4.84622">
        <ele>209.73148</ele>
        <time>2021-03-14T09:36:35Z</time>
      </trkpt>
      <trkpt lat="45.56567" lon="4.84629">
        <ele>209.72092</ele>
        <time>2021-03-14T09:36:37Z</time>
      </trkpt>
      <trkpt lat="45.56565" lon="4.84635">
        <ele>209.69449</ele>
        <time>2021-03-14T09:36:39Z</time>
      </trkpt>
      <trkpt lat="45.56563" lon="4.84641">
        <ele>210.09084</ele>
        <time>2021-03-14T09:36:41Z</time>
      </trkpt>
      <trkpt lat="45.56561" lon="4.84647">
        <ele>210.20181</ele>
        <time>2021-03-14T09:36:43Z</time>
      </trkpt>
      <trkpt lat="45.56559" lon="4.84655">
        <ele>210.59816</ele>
        <time>2021-03-14T09:36:46Z</time>
      </trkpt>
      <trkpt lat="45.56556" lon="4.84661">
        <ele>210.90994</ele>
        <time>2021-03-14T09:36:48Z</time>
      </trkpt>
      <trkpt lat="45.56554" lon="4.84667">
        <ele>211.0685</ele>
        <time>2021-03-14T09:36:50Z</time>
      </trkpt>
      <trkpt lat="45.56551" lon="4.84673">
        <ele>211.35387</ele>
        <time>2021-03-14T09:36:52Z</time>
      </trkpt>
      <trkpt lat="45.56548" lon="4.8468">
        <ele>211.64452</ele>
        <time>2021-03-14T09:36:55Z</time>
      </trkpt>
      <trkpt lat="45.56545" lon="4.84687">
        <ele>212.10956</ele>
        <time>2021-03-14T09:36:57Z</time>
      </trkpt>
      <trkpt lat="45.56543" lon="4.84693">
        <ele>212.25755</ele>
        <time>2021-03-14T09:36:59Z</time>
      </trkpt>
      <trkpt lat="45.56541" lon="4.847">
        <ele>212.70145</ele>
        <time>2021-03-14T09:37:01Z</time>
      </trkpt>
      <trkpt lat="45.56539" lon="4.84706">
        <ele>212.57463</ele>
        <time>2021-03-14T09:37:03Z</time>
      </trkpt>
      <trkpt lat="45.56537" lon="4.84713">
        <ele>213.11893</ele>
        <time>2021-03-14T09:37:05Z</time>
      </trkpt>
      <trkpt lat="45.56535" lon="4.8472">
        <ele>213.47829</ele>
        <time>2021-03-14T09:37:07Z</time>
      </trkpt>
      <trkpt lat="45.56533" lon="4.84726">
        <ele>213.37259</ele>
        <time>2021-03-14T09:37:09Z</time>
      </trkpt>
      <trkpt lat="45.56532" lon="4.84734">
        <ele>213.73195</ele>
        <time>2021-03-14T09:37:11Z</time>
      </trkpt>
      <trkpt lat="45.56531" lon="4.84741">
        <ele>213.98032</ele>
        <time>2021-03-14T09:37:13Z</time>
      </trkpt>
      <trkpt lat="45.5653" lon="4.84748">
        <ele>214.21286</ele>
        <time>2021-03-14T09:37:15Z</time>
      </trkpt>
      <trkpt lat="45.56529" lon="4.84755">
        <ele>214.60919</ele>
        <time>2021-03-14T09:37:17Z</time>
      </trkpt>
      <trkpt lat="45.56527" lon="4.84762">
        <ele>214.71489</ele>
        <time>2021-03-14T09:37:19Z</time>
      </trkpt>
      <trkpt lat="45.56525" lon="4.84769">
        <ele>215.32263</ele>
        <time>2021-03-14T09:37:21Z</time>
      </trkpt>
      <trkpt lat="45.56523" lon="4.84775">
        <ele>215.32791</ele>
        <time>2021-03-14T09:37:23Z</time>
      </trkpt>
      <trkpt lat="45.56522" lon="4.84782">
        <ele>215.9145</ele>
        <time>2021-03-14T09:37:25Z</time>
      </trkpt>
      <trkpt lat="45.5652" lon="4.8479">
        <ele>216.00435</ele>
        <time>2021-03-14T09:37:27Z</time>
      </trkpt>
      <trkpt lat="45.56518" lon="4.84797">
        <ele>216.52225</ele>
        <time>2021-03-14T09:37:29Z</time>
      </trkpt>
      <trkpt lat="45.56516" lon="4.84805">
        <ele>216.47995</ele>
        <time>2021-03-14T09:37:31Z</time>
      </trkpt>
      <trkpt lat="45.56514" lon="4.84811">
        <ele>216.82875</ele>
        <time>2021-03-14T09:37:33Z</time>
      </trkpt>
      <trkpt lat="45.56512" lon="4.84817">
        <ele>217.06656</ele>
        <time>2021-03-14T09:37:35Z</time>
      </trkpt>
      <trkpt lat="45.56509" lon="4.84824">
        <ele>217.18282</ele>
        <time>2021-03-14T09:37:37Z</time>
      </trkpt>
      <trkpt lat="45.56507" lon="4.84833">
        <ele>217.0824</ele>
        <time>2021-03-14T09:37:40Z</time>
      </trkpt>
      <trkpt lat="45.56506" lon="4.84839">
        <ele>217.22508</ele>
        <time>2021-03-14T09:37:42Z</time>
      </trkpt>
      <trkpt lat="45.56504" lon="4.84847">
        <ele>217.31494</ele>
        <time>2021-03-14T09:37:45Z</time>
      </trkpt>
      <trkpt lat="45.56503" lon="4.84854">
        <ele>217.7377</ele>
        <time>2021-03-14T09:37:47Z</time>
      </trkpt>
      <trkpt lat="45.56502" lon="4.8486">
        <ele>217.61087</ele>
        <time>2021-03-14T09:37:49Z</time>
      </trkpt>
      <trkpt lat="45.56502" lon="4.84867">
        <ele>217.38364</ele>
        <time>2021-03-14T09:37:51Z</time>
      </trkpt>
      <trkpt lat="45.56501" lon="4.84874">
        <ele>217.16168</ele>
        <time>2021-03-14T09:37:53Z</time>
      </trkpt>
      <trkpt lat="45.56501" lon="4.84882">
        <ele>216.35313</ele>
        <time>2021-03-14T09:37:55Z</time>
      </trkpt>
      <trkpt lat="45.56501" lon="4.84888">
        <ele>216.44824</ele>
        <time>2021-03-14T09:37:57Z</time>
      </trkpt>
      <trkpt lat="45.56501" lon="4.84896">
        <ele>216.25801</ele>
        <time>2021-03-14T09:37:59Z</time>
      </trkpt>
      <trkpt lat="45.56502" lon="4.84903">
        <ele>215.95149</ele>
        <time>2021-03-14T09:38:01Z</time>
      </trkpt>
      <trkpt lat="45.56502" lon="4.84911">
        <ele>215.3332</ele>
        <time>2021-03-14T09:38:03Z</time>
      </trkpt>
      <trkpt lat="45.56503" lon="4.84919">
        <ele>215.44417</ele>
        <time>2021-03-14T09:38:05Z</time>
      </trkpt>
      <trkpt lat="45.56503" lon="4.84928">
        <ele>215.43361</ele>
        <time>2021-03-14T09:38:07Z</time>
      </trkpt>
      <trkpt lat="45.56503" lon="4.84936">
        <ele>215.06895</ele>
        <time>2021-03-14T09:38:09Z</time>
      </trkpt>
      <trkpt lat="45.56504" lon="4.84945">
        <ele>215.01083</ele>
        <time>2021-03-14T09:38:11Z</time>
      </trkpt>
      <trkpt lat="45.56504" lon="4.84953">
        <ele>214.87344</ele>
        <time>2021-03-14T09:38:13Z</time>
      </trkpt>
      <trkpt lat="45.56505" lon="4.84962">
        <ele>214.72017</ele>
        <time>2021-03-14T09:38:15Z</time>
      </trkpt>
      <trkpt lat="45.56506" lon="4.84969">
        <ele>214.41368</ele>
        <time>2021-03-14T09:38:17Z</time>
      </trkpt>
      <trkpt lat="45.56506" lon="4.84978">
        <ele>214.38196</ele>
        <time>2021-03-14T09:38:19Z</time>
      </trkpt>
      <trkpt lat="45.56507" lon="4.84985">
        <ele>214.17058</ele>
        <time>2021-03-14T09:38:21Z</time>
      </trkpt>
      <trkpt lat="45.56508" lon="4.84994">
        <ele>213.68967</ele>
        <time>2021-03-14T09:38:23Z</time>
      </trkpt>
      <trkpt lat="45.56508" lon="4.85002">
        <ele>213.62625</ele>
        <time>2021-03-14T09:38:25Z</time>
      </trkpt>
      <trkpt lat="45.56509" lon="4.85012">
        <ele>213.71082</ele>
        <time>2021-03-14T09:38:27Z</time>
      </trkpt>
      <trkpt lat="45.56509" lon="4.8502">
        <ele>213.26161</ele>
        <time>2021-03-14T09:38:29Z</time>
      </trkpt>
      <trkpt lat="45.56509" lon="4.85029">
        <ele>213.87993</ele>
        <time>2021-03-14T09:38:31Z</time>
      </trkpt>
      <trkpt lat="45.56509" lon="4.85036">
        <ele>213.35147</ele>
        <time>2021-03-14T09:38:33Z</time>
      </trkpt>
      <trkpt lat="45.5651" lon="4.85044">
        <ele>213.63684</ele>
        <time>2021-03-14T09:38:35Z</time>
      </trkpt>
      <trkpt lat="45.5651" lon="4.85051">
        <ele>213.56285</ele>
        <time>2021-03-14T09:38:37Z</time>
      </trkpt>
      <trkpt lat="45.5651" lon="4.85059">
        <ele>213.50471</ele>
        <time>2021-03-14T09:38:39Z</time>
      </trkpt>
      <trkpt lat="45.56511" lon="4.85068">
        <ele>213.62625</ele>
        <time>2021-03-14T09:38:41Z</time>
      </trkpt>
      <trkpt lat="45.56511" lon="4.85076">
        <ele>213.98563</ele>
        <time>2021-03-14T09:38:43Z</time>
      </trkpt>
      <trkpt lat="45.56511" lon="4.85084">
        <ele>213.77423</ele>
        <time>2021-03-14T09:38:45Z</time>
      </trkpt>
      <trkpt lat="45.56512" lon="4.85093">
        <ele>213.76366</ele>
        <time>2021-03-14T09:38:47Z</time>
      </trkpt>
      <trkpt lat="45.56513" lon="4.85101">
        <ele>213.77953</ele>
        <time>2021-03-14T09:38:49Z</time>
      </trkpt>
      <trkpt lat="45.56513" lon="4.85108">
        <ele>214.0596</ele>
        <time>2021-03-14T09:38:51Z</time>
      </trkpt>
      <trkpt lat="45.56514" lon="4.85116">
        <ele>213.93805</ele>
        <time>2021-03-14T09:38:53Z</time>
      </trkpt>
      <trkpt lat="45.56515" lon="4.85124">
        <ele>214.45595</ele>
        <time>2021-03-14T09:38:55Z</time>
      </trkpt>
      <trkpt lat="45.56515" lon="4.85132">
        <ele>213.99619</ele>
        <time>2021-03-14T09:38:57Z</time>
      </trkpt>
      <trkpt lat="45.56516" lon="4.8514">
        <ele>214.3661</ele>
        <time>2021-03-14T09:38:59Z</time>
      </trkpt>
      <trkpt lat="45.56516" lon="4.85148">
        <ele>214.69905</ele>
        <time>2021-03-14T09:39:01Z</time>
      </trkpt>
      <trkpt lat="45.56516" lon="4.85156">
        <ele>214.66733</ele>
        <time>2021-03-14T09:39:03Z</time>
      </trkpt>
      <trkpt lat="45.56516" lon="4.85164">
        <ele>214.52994</ele>
        <time>2021-03-14T09:39:05Z</time>
      </trkpt>
      <trkpt lat="45.56516" lon="4.85172">
        <ele>214.72017</ele>
        <time>2021-03-14T09:39:07Z</time>
      </trkpt>
      <trkpt lat="45.56516" lon="4.8518">
        <ele>214.96327</ele>
        <time>2021-03-14T09:39:09Z</time>
      </trkpt>
      <trkpt lat="45.56515" lon="4.85188">
        <ele>214.93156</ele>
        <time>2021-03-14T09:39:11Z</time>
      </trkpt>
      <trkpt lat="45.56514" lon="4.85197">
        <ele>215.25394</ele>
        <time>2021-03-14T09:39:13Z</time>
      </trkpt>
      <trkpt lat="45.56514" lon="4.85206">
        <ele>214.96327</ele>
        <time>2021-03-14T09:39:15Z</time>
      </trkpt>
      <trkpt lat="45.56513" lon="4.85213">
        <ele>215.05312</ele>
        <time>2021-03-14T09:39:17Z</time>
      </trkpt>
      <trkpt lat="45.56513" lon="4.85221">
        <ele>215.46532</ele>
        <time>2021-03-14T09:39:19Z</time>
      </trkpt>
      <trkpt lat="45.56512" lon="4.8523">
        <ele>215.67671</ele>
        <time>2021-03-14T09:39:21Z</time>
      </trkpt>
      <trkpt lat="45.5651" lon="4.85238">
        <ele>215.66612</ele>
        <time>2021-03-14T09:39:23Z</time>
      </trkpt>
      <trkpt lat="45.56508" lon="4.85247">
        <ele>215.5076</ele>
        <time>2021-03-14T09:39:25Z</time>
      </trkpt>
      <trkpt lat="45.56505" lon="4.85256">
        <ele>215.68727</ele>
        <time>2021-03-14T09:39:27Z</time>
      </trkpt>
      <trkpt lat="45.56503" lon="4.85264">
        <ele>215.89865</ele>
        <time>2021-03-14T09:39:29Z</time>
      </trkpt>
      <trkpt lat="45.565" lon="4.85271">
        <ele>215.86694</ele>
        <time>2021-03-14T09:39:31Z</time>
      </trkpt>
      <trkpt lat="45.56497" lon="4.85279">
        <ele>215.50232</ele>
        <time>2021-03-14T09:39:33Z</time>
      </trkpt>
      <trkpt lat="45.56493" lon="4.85286">
        <ele>215.83524</ele>
        <time>2021-03-14T09:39:35Z</time>
      </trkpt>
      <trkpt lat="45.5649" lon="4.85293">
        <ele>215.69255</ele>
        <time>2021-03-14T09:39:37Z</time>
      </trkpt>
      <trkpt lat="45.56486" lon="4.85299">
        <ele>215.5076</ele>
        <time>2021-03-14T09:39:39Z</time>
      </trkpt>
      <trkpt lat="45.56482" lon="4.85305">
        <ele>215.67671</ele>
        <time>2021-03-14T09:39:41Z</time>
      </trkpt>
      <trkpt lat="45.56478" lon="4.8531">
        <ele>216.09947</ele>
        <time>2021-03-14T09:39:43Z</time>
      </trkpt>
      <trkpt lat="45.56475" lon="4.85316">
        <ele>215.66084</ele>
        <time>2021-03-14T09:39:45Z</time>
      </trkpt>
      <trkpt lat="45.5647" lon="4.85322">
        <ele>215.98848</ele>
        <time>2021-03-14T09:39:47Z</time>
      </trkpt>
      <trkpt lat="45.56466" lon="4.85327">
        <ele>216.14175</ele>
        <time>2021-03-14T09:39:49Z</time>
      </trkpt>
      <trkpt lat="45.56461" lon="4.85332">
        <ele>216.11005</ele>
        <time>2021-03-14T09:39:51Z</time>
      </trkpt>
      <trkpt lat="45.56456" lon="4.85337">
        <ele>216.06248</ele>
        <time>2021-03-14T09:39:53Z</time>
      </trkpt>
      <trkpt lat="45.56452" lon="4.85342">
        <ele>216.26857</ele>
        <time>2021-03-14T09:39:55Z</time>
      </trkpt>
      <trkpt lat="45.56447" lon="4.85345">
        <ele>216.06248</ele>
        <time>2021-03-14T09:39:57Z</time>
      </trkpt>
      <trkpt lat="45.56443" lon="4.8535">
        <ele>215.9145</ele>
        <time>2021-03-14T09:39:59Z</time>
      </trkpt>
      <trkpt lat="45.56438" lon="4.85355">
        <ele>216.18402</ele>
        <time>2021-03-14T09:40:01Z</time>
      </trkpt>
      <trkpt lat="45.56433" lon="4.8536">
        <ele>216.1946</ele>
        <time>2021-03-14T09:40:03Z</time>
      </trkpt>
      <trkpt lat="45.56429" lon="4.85365">
        <ele>216.07304</ele>
        <time>2021-03-14T09:40:05Z</time>
      </trkpt>
      <trkpt lat="45.56424" lon="4.8537">
        <ele>216.13116</ele>
        <time>2021-03-14T09:40:07Z</time>
      </trkpt>
      <trkpt lat="45.56419" lon="4.85375">
        <ele>215.90923</ele>
        <time>2021-03-14T09:40:09Z</time>
      </trkpt>
      <trkpt lat="45.56415" lon="4.8538">
        <ele>216.23158</ele>
        <time>2021-03-14T09:40:11Z</time>
      </trkpt>
      <trkpt lat="45.56411" lon="4.85384">
        <ele>216.31087</ele>
        <time>2021-03-14T09:40:13Z</time>
      </trkpt>
      <trkpt lat="45.56406" lon="4.85389">
        <ele>216.19987</ele>
        <time>2021-03-14T09:40:15Z</time>
      </trkpt>
      <trkpt lat="45.56401" lon="4.85395">
        <ele>216.38484</ele>
        <time>2021-03-14T09:40:17Z</time>
      </trkpt>
      <trkpt lat="45.56397" lon="4.85399">
        <ele>216.59624</ele>
        <time>2021-03-14T09:40:19Z</time>
      </trkpt>
      <trkpt lat="45.56392" lon="4.85404">
        <ele>216.44824</ele>
        <time>2021-03-14T09:40:21Z</time>
      </trkpt>
      <trkpt lat="45.56388" lon="4.85408">
        <ele>216.39542</ele>
        <time>2021-03-14T09:40:23Z</time>
      </trkpt>
      <trkpt lat="45.56384" lon="4.85414">
        <ele>216.44824</ele>
        <time>2021-03-14T09:40:25Z</time>
      </trkpt>
      <trkpt lat="45.5638" lon="4.85418">
        <ele>216.70721</ele>
        <time>2021-03-14T09:40:27Z</time>
      </trkpt>
      <trkpt lat="45.56376" lon="4.85424">
        <ele>216.69662</ele>
        <time>2021-03-14T09:40:29Z</time>
      </trkpt>
      <trkpt lat="45.56372" lon="4.85428">
        <ele>216.52225</ele>
        <time>2021-03-14T09:40:31Z</time>
      </trkpt>
      <trkpt lat="45.56368" lon="4.85433">
        <ele>216.84988</ele>
        <time>2021-03-14T09:40:33Z</time>
      </trkpt>
      <trkpt lat="45.56363" lon="4.85438">
        <ele>217.02429</ele>
        <time>2021-03-14T09:40:35Z</time>
      </trkpt>
      <trkpt lat="45.56358" lon="4.85443">
        <ele>216.9186</ele>
        <time>2021-03-14T09:40:37Z</time>
      </trkpt>
      <trkpt lat="45.56353" lon="4.85447">
        <ele>217.34137</ele>
        <time>2021-03-14T09:40:39Z</time>
      </trkpt>
      <trkpt lat="45.56349" lon="4.8545">
        <ele>217.58974</ele>
        <time>2021-03-14T09:40:41Z</time>
      </trkpt>
      <trkpt lat="45.56344" lon="4.85453">
        <ele>217.47876</ele>
        <time>2021-03-14T09:40:43Z</time>
      </trkpt>
      <trkpt lat="45.56339" lon="4.85457">
        <ele>217.83812</ele>
        <time>2021-03-14T09:40:45Z</time>
      </trkpt>
      <trkpt lat="45.56333" lon="4.85461">
        <ele>218.14464</ele>
        <time>2021-03-14T09:40:47Z</time>
      </trkpt>
      <trkpt lat="45.56329" lon="4.85465">
        <ele>218.28201</ele>
        <time>2021-03-14T09:40:49Z</time>
      </trkpt>
      <trkpt lat="45.56323" lon="4.85469">
        <ele>218.59909</ele>
        <time>2021-03-14T09:40:52Z</time>
      </trkpt>
      <trkpt lat="45.56318" lon="4.85471">
        <ele>219.05357</ele>
        <time>2021-03-14T09:40:54Z</time>
      </trkpt>
      <trkpt lat="45.56313" lon="4.85475">
        <ele>219.10643</ele>
        <time>2021-03-14T09:40:56Z</time>
      </trkpt>
      <trkpt lat="45.56309" lon="4.85478">
        <ele>219.13286</ele>
        <time>2021-03-14T09:40:58Z</time>
      </trkpt>
      <trkpt lat="45.56304" lon="4.85481">
        <ele>219.2174</ele>
        <time>2021-03-14T09:41:00Z</time>
      </trkpt>
      <trkpt lat="45.56299" lon="4.85486">
        <ele>219.57147</ele>
        <time>2021-03-14T09:41:02Z</time>
      </trkpt>
      <trkpt lat="45.56294" lon="4.85489">
        <ele>219.87271</ele>
        <time>2021-03-14T09:41:04Z</time>
      </trkpt>
      <trkpt lat="45.5629" lon="4.85492">
        <ele>220.01012</ele>
        <time>2021-03-14T09:41:06Z</time>
      </trkpt>
      <trkpt lat="45.56285" lon="4.85496">
        <ele>220.49628</ele>
        <time>2021-03-14T09:41:08Z</time>
      </trkpt>
      <trkpt lat="45.5628" lon="4.855">
        <ele>220.23206</ele>
        <time>2021-03-14T09:41:10Z</time>
      </trkpt>
      <trkpt lat="45.56276" lon="4.85504">
        <ele>220.30605</ele>
        <time>2021-03-14T09:41:12Z</time>
      </trkpt>
      <trkpt lat="45.56271" lon="4.85509">
        <ele>220.64427</ele>
        <time>2021-03-14T09:41:14Z</time>
      </trkpt>
      <trkpt lat="45.56267" lon="4.85513">
        <ele>220.42758</ele>
        <time>2021-03-14T09:41:16Z</time>
      </trkpt>
      <trkpt lat="45.56262" lon="4.85517">
        <ele>220.74466</ele>
        <time>2021-03-14T09:41:18Z</time>
      </trkpt>
      <trkpt lat="45.56258" lon="4.85521">
        <ele>220.3906</ele>
        <time>2021-03-14T09:41:20Z</time>
      </trkpt>
      <trkpt lat="45.56253" lon="4.85524">
        <ele>220.85036</ele>
        <time>2021-03-14T09:41:22Z</time>
      </trkpt>
      <trkpt lat="45.56248" lon="4.85528">
        <ele>221.18858</ele>
        <time>2021-03-14T09:41:24Z</time>
      </trkpt>
      <trkpt lat="45.56242" lon="4.8553">
        <ele>221.05118</ele>
        <time>2021-03-14T09:41:26Z</time>
      </trkpt>
      <trkpt lat="45.56237" lon="4.85531">
        <ele>221.2837</ele>
        <time>2021-03-14T09:41:28Z</time>
      </trkpt>
      <trkpt lat="45.56231" lon="4.85532">
        <ele>221.91786</ele>
        <time>2021-03-14T09:41:30Z</time>
      </trkpt>
      <trkpt lat="45.56226" lon="4.85533">
        <ele>221.6272</ele>
        <time>2021-03-14T09:41:32Z</time>
      </trkpt>
      <trkpt lat="45.5622" lon="4.85534">
        <ele>221.71704</ele>
        <time>2021-03-14T09:41:34Z</time>
      </trkpt>
      <trkpt lat="45.56214" lon="4.85535">
        <ele>222.29834</ele>
        <time>2021-03-14T09:41:36Z</time>
      </trkpt>
      <trkpt lat="45.56209" lon="4.85537">
        <ele>222.46745</ele>
        <time>2021-03-14T09:41:38Z</time>
      </trkpt>
      <trkpt lat="45.56204" lon="4.8554">
        <ele>222.2455</ele>
        <time>2021-03-14T09:41:40Z</time>
      </trkpt>
      <trkpt lat="45.56199" lon="4.85543">
        <ele>222.31949</ele>
        <time>2021-03-14T09:41:42Z</time>
      </trkpt>
      <trkpt lat="45.56192" lon="4.85545">
        <ele>222.71584</ele>
        <time>2021-03-14T09:41:45Z</time>
      </trkpt>
      <trkpt lat="45.56186" lon="4.85546">
        <ele>222.57843</ele>
        <time>2021-03-14T09:41:47Z</time>
      </trkpt>
      <trkpt lat="45.5618" lon="4.85549">
        <ele>222.4886</ele>
        <time>2021-03-14T09:41:49Z</time>
      </trkpt>
      <trkpt lat="45.56175" lon="4.85549">
        <ele>222.94836</ele>
        <time>2021-03-14T09:41:51Z</time>
      </trkpt>
      <trkpt lat="45.5617" lon="4.8555">
        <ele>222.57843</ele>
        <time>2021-03-14T09:41:53Z</time>
      </trkpt>
      <trkpt lat="45.56165" lon="4.8555">
        <ele>222.85852</ele>
        <time>2021-03-14T09:41:55Z</time>
      </trkpt>
      <trkpt lat="45.56159" lon="4.85551">
        <ele>222.52031</ele>
        <time>2021-03-14T09:41:57Z</time>
      </trkpt>
      <trkpt lat="45.56154" lon="4.85552">
        <ele>222.80568</ele>
        <time>2021-03-14T09:41:59Z</time>
      </trkpt>
      <trkpt lat="45.56148" lon="4.85553">
        <ele>222.89023</ele>
        <time>2021-03-14T09:42:01Z</time>
      </trkpt>
      <trkpt lat="45.56144" lon="4.85554">
        <ele>223.26544</ele>
        <time>2021-03-14T09:42:03Z</time>
      </trkpt>
      <trkpt lat="45.56138" lon="4.85556">
        <ele>222.77397</ele>
        <time>2021-03-14T09:42:05Z</time>
      </trkpt>
      <trkpt lat="45.56133" lon="4.85557">
        <ele>223.33414</ele>
        <time>2021-03-14T09:42:07Z</time>
      </trkpt>
      <trkpt lat="45.56128" lon="4.85559">
        <ele>222.95364</ele>
        <time>2021-03-14T09:42:09Z</time>
      </trkpt>
      <trkpt lat="45.56123" lon="4.85562">
        <ele>223.39227</ele>
        <time>2021-03-14T09:42:11Z</time>
      </trkpt>
      <trkpt lat="45.56118" lon="4.85562">
        <ele>223.5191</ele>
        <time>2021-03-14T09:42:13Z</time>
      </trkpt>
      <trkpt lat="45.56113" lon="4.85564">
        <ele>223.59836</ele>
        <time>2021-03-14T09:42:15Z</time>
      </trkpt>
      <trkpt lat="45.56107" lon="4.85565">
        <ele>223.39227</ele>
        <time>2021-03-14T09:42:17Z</time>
      </trkpt>
      <trkpt lat="45.56102" lon="4.85566">
        <ele>223.5878</ele>
        <time>2021-03-14T09:42:19Z</time>
      </trkpt>
      <trkpt lat="45.56097" lon="4.85567">
        <ele>223.66707</ele>
        <time>2021-03-14T09:42:21Z</time>
      </trkpt>
      <trkpt lat="45.56092" lon="4.85568">
        <ele>223.67235</ele>
        <time>2021-03-14T09:42:23Z</time>
      </trkpt>
      <trkpt lat="45.56086" lon="4.85568">
        <ele>223.99472</ele>
        <time>2021-03-14T09:42:25Z</time>
      </trkpt>
      <trkpt lat="45.5608" lon="4.8557">
        <ele>223.69878</ele>
        <time>2021-03-14T09:42:27Z</time>
      </trkpt>
      <trkpt lat="45.56076" lon="4.85571">
        <ele>223.85204</ele>
        <time>2021-03-14T09:42:29Z</time>
      </trkpt>
      <trkpt lat="45.5607" lon="4.85572">
        <ele>224.01057</ele>
        <time>2021-03-14T09:42:31Z</time>
      </trkpt>
      <trkpt lat="45.56064" lon="4.85573">
        <ele>223.74635</ele>
        <time>2021-03-14T09:42:33Z</time>
      </trkpt>
      <trkpt lat="45.56059" lon="4.85575">
        <ele>223.94188</ele>
        <time>2021-03-14T09:42:35Z</time>
      </trkpt>
      <trkpt lat="45.56054" lon="4.85577">
        <ele>223.89432</ele>
        <time>2021-03-14T09:42:37Z</time>
      </trkpt>
      <trkpt lat="45.56049" lon="4.85579">
        <ele>223.88904</ele>
        <time>2021-03-14T09:42:39Z</time>
      </trkpt>
      <trkpt lat="45.56044" lon="4.85581">
        <ele>224.30122</ele>
        <time>2021-03-14T09:42:41Z</time>
      </trkpt>
      <trkpt lat="45.56039" lon="4.85582">
        <ele>224.62358</ele>
        <time>2021-03-14T09:42:43Z</time>
      </trkpt>
      <trkpt lat="45.56034" lon="4.85583">
        <ele>224.5496</ele>
        <time>2021-03-14T09:42:45Z</time>
      </trkpt>
      <trkpt lat="45.56029" lon="4.85584">
        <ele>224.63945</ele>
        <time>2021-03-14T09:42:47Z</time>
      </trkpt>
      <trkpt lat="45.56024" lon="4.85585">
        <ele>224.84555</ele>
        <time>2021-03-14T09:42:49Z</time>
      </trkpt>
      <trkpt lat="45.56018" lon="4.85585">
        <ele>224.9618</ele>
        <time>2021-03-14T09:42:51Z</time>
      </trkpt>
      <trkpt lat="45.56013" lon="4.85587">
        <ele>225.00407</ele>
        <time>2021-03-14T09:42:53Z</time>
      </trkpt>
      <trkpt lat="45.56008" lon="4.85588">
        <ele>225.33174</ele>
        <time>2021-03-14T09:42:55Z</time>
      </trkpt>
      <trkpt lat="45.56002" lon="4.8559">
        <ele>225.61711</ele>
        <time>2021-03-14T09:42:57Z</time>
      </trkpt>
      <trkpt lat="45.55997" lon="4.85592">
        <ele>225.54312</ele>
        <time>2021-03-14T09:42:59Z</time>
      </trkpt>
      <trkpt lat="45.55991" lon="4.85594">
        <ele>225.75452</ele>
        <time>2021-03-14T09:43:01Z</time>
      </trkpt>
      <trkpt lat="45.55986" lon="4.85596">
        <ele>225.448</ele>
        <time>2021-03-14T09:43:03Z</time>
      </trkpt>
      <trkpt lat="45.55981" lon="4.85598">
        <ele>225.90248</ele>
        <time>2021-03-14T09:43:05Z</time>
      </trkpt>
      <trkpt lat="45.55977" lon="4.85601">
        <ele>225.94475</ele>
        <time>2021-03-14T09:43:07Z</time>
      </trkpt>
      <trkpt lat="45.55971" lon="4.85604">
        <ele>226.16142</ele>
        <time>2021-03-14T09:43:09Z</time>
      </trkpt>
      <trkpt lat="45.55966" lon="4.85607">
        <ele>225.80736</ele>
        <time>2021-03-14T09:43:11Z</time>
      </trkpt>
      <trkpt lat="45.55961" lon="4.8561">
        <ele>226.16142</ele>
        <time>2021-03-14T09:43:13Z</time>
      </trkpt>
      <trkpt lat="45.55956" lon="4.85613">
        <ele>226.19841</ele>
        <time>2021-03-14T09:43:15Z</time>
      </trkpt>
      <trkpt lat="45.55951" lon="4.85616">
        <ele>226.52605</ele>
        <time>2021-03-14T09:43:17Z</time>
      </trkpt>
      <trkpt lat="45.55946" lon="4.85619">
        <ele>226.50493</ele>
        <time>2021-03-14T09:43:19Z</time>
      </trkpt>
      <trkpt lat="45.5594" lon="4.85623">
        <ele>226.28297</ele>
        <time>2021-03-14T09:43:21Z</time>
      </trkpt>
      <trkpt lat="45.55936" lon="4.85626">
        <ele>226.41508</ele>
        <time>2021-03-14T09:43:23Z</time>
      </trkpt>
      <trkpt lat="45.55932" lon="4.85628">
        <ele>226.84843</ele>
        <time>2021-03-14T09:43:25Z</time>
      </trkpt>
      <trkpt lat="45.55926" lon="4.85633">
        <ele>226.83784</ele>
        <time>2021-03-14T09:43:28Z</time>
      </trkpt>
      <trkpt lat="45.55921" lon="4.85637">
        <ele>226.94354</ele>
        <time>2021-03-14T09:43:30Z</time>
      </trkpt>
      <trkpt lat="45.55917" lon="4.85641">
        <ele>227.05452</ele>
        <time>2021-03-14T09:43:32Z</time>
      </trkpt>
      <trkpt lat="45.55913" lon="4.85646">
        <ele>226.89598</ele>
        <time>2021-03-14T09:43:34Z</time>
      </trkpt>
      <trkpt lat="45.55909" lon="4.85651">
        <ele>226.72159</ele>
        <time>2021-03-14T09:43:36Z</time>
      </trkpt>
      <trkpt lat="45.55905" lon="4.85655">
        <ele>226.68988</ele>
        <time>2021-03-14T09:43:38Z</time>
      </trkpt>
      <trkpt lat="45.559" lon="4.85659">
        <ele>227.07039</ele>
        <time>2021-03-14T09:43:40Z</time>
      </trkpt>
      <trkpt lat="45.55895" lon="4.85664">
        <ele>226.46265</ele>
        <time>2021-03-14T09:43:42Z</time>
      </trkpt>
      <trkpt lat="45.55891" lon="4.8567">
        <ele>226.90656</ele>
        <time>2021-03-14T09:43:44Z</time>
      </trkpt>
      <trkpt lat="45.55886" lon="4.85676">
        <ele>226.77444</ele>
        <time>2021-03-14T09:43:46Z</time>
      </trkpt>
      <trkpt lat="45.55881" lon="4.85682">
        <ele>226.6846</ele>
        <time>2021-03-14T09:43:48Z</time>
      </trkpt>
      <trkpt lat="45.55877" lon="4.85687">
        <ele>226.67932</ele>
        <time>2021-03-14T09:43:50Z</time>
      </trkpt>
      <trkpt lat="45.55872" lon="4.85692">
        <ele>226.24069</ele>
        <time>2021-03-14T09:43:52Z</time>
      </trkpt>
      <trkpt lat="45.55867" lon="4.85697">
        <ele>226.36224</ele>
        <time>2021-03-14T09:43:54Z</time>
      </trkpt>
      <trkpt lat="45.55862" lon="4.85701">
        <ele>226.29353</ele>
        <time>2021-03-14T09:43:56Z</time>
      </trkpt>
      <trkpt lat="45.55858" lon="4.85705">
        <ele>226.36752</ele>
        <time>2021-03-14T09:43:58Z</time>
      </trkpt>
      <trkpt lat="45.55853" lon="4.8571">
        <ele>226.36752</ele>
        <time>2021-03-14T09:44:00Z</time>
      </trkpt>
      <trkpt lat="45.55847" lon="4.85716">
        <ele>226.57362</ele>
        <time>2021-03-14T09:44:03Z</time>
      </trkpt>
      <trkpt lat="45.55843" lon="4.8572">
        <ele>226.33054</ele>
        <time>2021-03-14T09:44:05Z</time>
      </trkpt>
      <trkpt lat="45.55839" lon="4.85725">
        <ele>226.19313</ele>
        <time>2021-03-14T09:44:07Z</time>
      </trkpt>
      <trkpt lat="45.55834" lon="4.8573">
        <ele>226.10329</ele>
        <time>2021-03-14T09:44:09Z</time>
      </trkpt>
      <trkpt lat="45.55829" lon="4.85736">
        <ele>225.74393</ele>
        <time>2021-03-14T09:44:11Z</time>
      </trkpt>
      <trkpt lat="45.55824" lon="4.8574">
        <ele>225.6541</ele>
        <time>2021-03-14T09:44:13Z</time>
      </trkpt>
      <trkpt lat="45.55819" lon="4.85744">
        <ele>224.9301</ele>
        <time>2021-03-14T09:44:15Z</time>
      </trkpt>
      <trkpt lat="45.55813" lon="4.85749">
        <ele>225.53783</ele>
        <time>2021-03-14T09:44:17Z</time>
      </trkpt>
      <trkpt lat="45.55809" lon="4.8575">
        <ele>225.39514</ele>
        <time>2021-03-14T09:44:19Z</time>
      </trkpt>
      <trkpt lat="45.55804" lon="4.85753">
        <ele>225.73337</ele>
        <time>2021-03-14T09:44:21Z</time>
      </trkpt>
      <trkpt lat="45.55799" lon="4.85757">
        <ele>225.72281</ele>
        <time>2021-03-14T09:44:23Z</time>
      </trkpt>
      <trkpt lat="45.55792" lon="4.8576">
        <ele>225.61711</ele>
        <time>2021-03-14T09:44:25Z</time>
      </trkpt>
      <trkpt lat="45.55788" lon="4.85763">
        <ele>225.43744</ele>
        <time>2021-03-14T09:44:27Z</time>
      </trkpt>
      <trkpt lat="45.55782" lon="4.85765">
        <ele>225.43744</ele>
        <time>2021-03-14T09:44:29Z</time>
      </trkpt>
      <trkpt lat="45.55777" lon="4.85767">
        <ele>225.3423</ele>
        <time>2021-03-14T09:44:31Z</time>
      </trkpt>
      <trkpt lat="45.55772" lon="4.85768">
        <ele>225.35815</ele>
        <time>2021-03-14T09:44:33Z</time>
      </trkpt>
      <trkpt lat="45.55767" lon="4.85768">
        <ele>225.16263</ele>
        <time>2021-03-14T09:44:35Z</time>
      </trkpt>
      <trkpt lat="45.55761" lon="4.85768">
        <ele>224.99352</ele>
        <time>2021-03-14T09:44:37Z</time>
      </trkpt>
      <trkpt lat="45.55756" lon="4.85769">
        <ele>224.78214</ele>
        <time>2021-03-14T09:44:39Z</time>
      </trkpt>
      <trkpt lat="45.55751" lon="4.85769">
        <ele>225.05693</ele>
        <time>2021-03-14T09:44:41Z</time>
      </trkpt>
      <trkpt lat="45.55746" lon="4.8577">
        <ele>225.26833</ele>
        <time>2021-03-14T09:44:43Z</time>
      </trkpt>
      <trkpt lat="45.5574" lon="4.85769">
        <ele>225.27888</ele>
        <time>2021-03-14T09:44:45Z</time>
      </trkpt>
      <trkpt lat="45.55734" lon="4.85769">
        <ele>225.61183</ele>
        <time>2021-03-14T09:44:47Z</time>
      </trkpt>
      <trkpt lat="45.55728" lon="4.8577">
        <ele>224.9988</ele>
        <time>2021-03-14T09:44:49Z</time>
      </trkpt>
      <trkpt lat="45.55722" lon="4.8577">
        <ele>224.57603</ele>
        <time>2021-03-14T09:44:51Z</time>
      </trkpt>
      <trkpt lat="45.55717" lon="4.8577">
        <ele>225.02522</ele>
        <time>2021-03-14T09:44:53Z</time>
      </trkpt>
      <trkpt lat="45.55711" lon="4.8577">
        <ele>225.04108</ele>
        <time>2021-03-14T09:44:55Z</time>
      </trkpt>
      <trkpt lat="45.55706" lon="4.8577">
        <ele>224.64473</ele>
        <time>2021-03-14T09:44:57Z</time>
      </trkpt>
      <trkpt lat="45.55699" lon="4.85769">
        <ele>224.43335</ele>
        <time>2021-03-14T09:44:59Z</time>
      </trkpt>
      <trkpt lat="45.55694" lon="4.85768">
        <ele>224.32237</ele>
        <time>2021-03-14T09:45:01Z</time>
      </trkpt>
      <trkpt lat="45.55689" lon="4.85767">
        <ele>224.59189</ele>
        <time>2021-03-14T09:45:03Z</time>
      </trkpt>
      <trkpt lat="45.55684" lon="4.85766">
        <ele>224.62889</ele>
        <time>2021-03-14T09:45:05Z</time>
      </trkpt>
      <trkpt lat="45.55679" lon="4.85766">
        <ele>224.12155</ele>
        <time>2021-03-14T09:45:07Z</time>
      </trkpt>
      <trkpt lat="45.55674" lon="4.85766">
        <ele>224.46506</ele>
        <time>2021-03-14T09:45:09Z</time>
      </trkpt>
      <trkpt lat="45.55668" lon="4.85765">
        <ele>224.60246</ele>
        <time>2021-03-14T09:45:11Z</time>
      </trkpt>
      <trkpt lat="45.55663" lon="4.85766">
        <ele>224.4175</ele>
        <time>2021-03-14T09:45:13Z</time>
      </trkpt>
      <trkpt lat="45.55658" lon="4.8577">
        <ele>224.29594</ele>
        <time>2021-03-14T09:45:16Z</time>
      </trkpt>
      <trkpt lat="45.55653" lon="4.85772">
        <ele>224.2008</ele>
        <time>2021-03-14T09:45:18Z</time>
      </trkpt>
      <trkpt lat="45.55647" lon="4.85775">
        <ele>224.36992</ele>
        <time>2021-03-14T09:45:20Z</time>
      </trkpt>
      <trkpt lat="45.55643" lon="4.85778">
        <ele>224.03172</ele>
        <time>2021-03-14T09:45:22Z</time>
      </trkpt>
      <trkpt lat="45.55639" lon="4.85781">
        <ele>223.78862</ele>
        <time>2021-03-14T09:45:24Z</time>
      </trkpt>
      <trkpt lat="45.55634" lon="4.85784">
        <ele>223.80975</ele>
        <time>2021-03-14T09:45:26Z</time>
      </trkpt>
      <trkpt lat="45.55629" lon="4.85788">
        <ele>223.55081</ele>
        <time>2021-03-14T09:45:28Z</time>
      </trkpt>
      <trkpt lat="45.55624" lon="4.85791">
        <ele>222.84795</ele>
        <time>2021-03-14T09:45:30Z</time>
      </trkpt>
      <trkpt lat="45.5562" lon="4.85796">
        <ele>222.40933</ele>
        <time>2021-03-14T09:45:32Z</time>
      </trkpt>
      <trkpt lat="45.55616" lon="4.85799">
        <ele>222.29306</ele>
        <time>2021-03-14T09:45:34Z</time>
      </trkpt>
      <trkpt lat="45.5561" lon="4.85805">
        <ele>222.00241</ele>
        <time>2021-03-14T09:45:37Z</time>
      </trkpt>
      <trkpt lat="45.55606" lon="4.8581">
        <ele>221.42639</ele>
        <time>2021-03-14T09:45:39Z</time>
      </trkpt>
      <trkpt lat="45.55602" lon="4.85816">
        <ele>220.96663</ele>
        <time>2021-03-14T09:45:41Z</time>
      </trkpt>
      <trkpt lat="45.55598" lon="4.8582">
        <ele>221.34183</ele>
        <time>2021-03-14T09:45:43Z</time>
      </trkpt>
      <trkpt lat="45.55594" lon="4.85825">
        <ele>220.68654</ele>
        <time>2021-03-14T09:45:45Z</time>
      </trkpt>
      <trkpt lat="45.5559" lon="4.85831">
        <ele>220.68654</ele>
        <time>2021-03-14T09:45:48Z</time>
      </trkpt>
      <trkpt lat="45.55586" lon="4.85835">
        <ele>220.44873</ele>
        <time>2021-03-14T09:45:50Z</time>
      </trkpt>
      <trkpt lat="45.55581" lon="4.85841">
        <ele>220.27434</ele>
        <time>2021-03-14T09:45:53Z</time>
      </trkpt>
      <trkpt lat="45.55575" lon="4.85846">
        <ele>219.55032</ele>
        <time>2021-03-14T09:45:56Z</time>
      </trkpt>
      <trkpt lat="45.55571" lon="4.8585">
        <ele>219.2861</ele>
        <time>2021-03-14T09:45:58Z</time>
      </trkpt>
      <trkpt lat="45.55566" lon="4.85854">
        <ele>218.87918</ele>
        <time>2021-03-14T09:46:00Z</time>
      </trkpt>
      <trkpt lat="45.55561" lon="4.85859">
        <ele>218.4987</ele>
        <time>2021-03-14T09:46:02Z</time>
      </trkpt>
      <trkpt lat="45.55557" lon="4.85863">
        <ele>219.03773</ele>
        <time>2021-03-14T09:46:04Z</time>
      </trkpt>
      <trkpt lat="45.55552" lon="4.85867">
        <ele>218.57797</ele>
        <time>2021-03-14T09:46:06Z</time>
      </trkpt>
      <trkpt lat="45.55548" lon="4.85872">
        <ele>218.4564</ele>
        <time>2021-03-14T09:46:08Z</time>
      </trkpt>
      <trkpt lat="45.55544" lon="4.85877">
        <ele>217.68488</ele>
        <time>2021-03-14T09:46:10Z</time>
      </trkpt>
      <trkpt lat="45.55541" lon="4.85882">
        <ele>217.71127</ele>
        <time>2021-03-14T09:46:12Z</time>
      </trkpt>
      <trkpt lat="45.55537" lon="4.85887">
        <ele>217.36249</ele>
        <time>2021-03-14T09:46:14Z</time>
      </trkpt>
      <trkpt lat="45.55533" lon="4.85893">
        <ele>216.59093</ele>
        <time>2021-03-14T09:46:16Z</time>
      </trkpt>
      <trkpt lat="45.55529" lon="4.85898">
        <ele>216.35841</ele>
        <time>2021-03-14T09:46:18Z</time>
      </trkpt>
      <trkpt lat="45.55525" lon="4.85903">
        <ele>215.70311</ele>
        <time>2021-03-14T09:46:20Z</time>
      </trkpt>
      <trkpt lat="45.55521" lon="4.85908">
        <ele>215.43361</ele>
        <time>2021-03-14T09:46:22Z</time>
      </trkpt>
      <trkpt lat="45.55517" lon="4.85913">
        <ele>214.5828</ele>
        <time>2021-03-14T09:46:24Z</time>
      </trkpt>
      <trkpt lat="45.55513" lon="4.85917">
        <ele>214.38725</ele>
        <time>2021-03-14T09:46:26Z</time>
      </trkpt>
      <trkpt lat="45.55509" lon="4.8592">
        <ele>213.57869</ele>
        <time>2021-03-14T09:46:28Z</time>
      </trkpt>
      <trkpt lat="45.55504" lon="4.85924">
        <ele>213.4413</ele>
        <time>2021-03-14T09:46:30Z</time>
      </trkpt>
      <trkpt lat="45.55499" lon="4.85928">
        <ele>213.43073</ele>
        <time>2021-03-14T09:46:32Z</time>
      </trkpt>
      <trkpt lat="45.55495" lon="4.85932">
        <ele>212.05144</ele>
        <time>2021-03-14T09:46:34Z</time>
      </trkpt>
      <trkpt lat="45.5549" lon="4.85936">
        <ele>212.72787</ele>
        <time>2021-03-14T09:46:36Z</time>
      </trkpt>
      <trkpt lat="45.55485" lon="4.85939">
        <ele>212.47949</ele>
        <time>2021-03-14T09:46:38Z</time>
      </trkpt>
      <trkpt lat="45.55481" lon="4.85943">
        <ele>212.25224</ele>
        <time>2021-03-14T09:46:40Z</time>
      </trkpt>
      <trkpt lat="45.55477" lon="4.85947">
        <ele>211.95631</ele>
        <time>2021-03-14T09:46:42Z</time>
      </trkpt>
      <trkpt lat="45.55473" lon="4.85952">
        <ele>211.84006</ele>
        <time>2021-03-14T09:46:44Z</time>
      </trkpt>
      <trkpt lat="45.55469" lon="4.85956">
        <ele>211.486</ele>
        <time>2021-03-14T09:46:46Z</time>
      </trkpt>
      <trkpt lat="45.55465" lon="4.85961">
        <ele>211.55469</ele>
        <time>2021-03-14T09:46:48Z</time>
      </trkpt>
      <trkpt lat="45.55461" lon="4.85964">
        <ele>211.81891</ele>
        <time>2021-03-14T09:46:50Z</time>
      </trkpt>
      <trkpt lat="45.55457" lon="4.85967">
        <ele>211.42256</ele>
        <time>2021-03-14T09:46:52Z</time>
      </trkpt>
      <trkpt lat="45.55452" lon="4.85967">
        <ele>211.01036</ele>
        <time>2021-03-14T09:46:54Z</time>
      </trkpt>
      <trkpt lat="45.55447" lon="4.85969">
        <ele>210.76726</ele>
        <time>2021-03-14T09:46:56Z</time>
      </trkpt>
      <trkpt lat="45.55443" lon="4.85973">
        <ele>210.22296</ele>
        <time>2021-03-14T09:46:58Z</time>
      </trkpt>
      <trkpt lat="45.55439" lon="4.85977">
        <ele>210.29694</ele>
        <time>2021-03-14T09:47:00Z</time>
      </trkpt>
      <trkpt lat="45.55436" lon="4.85981">
        <ele>209.83717</ele>
        <time>2021-03-14T09:47:02Z</time>
      </trkpt>
      <trkpt lat="45.55432" lon="4.85985">
        <ele>209.16075</ele>
        <time>2021-03-14T09:47:04Z</time>
      </trkpt>
      <trkpt lat="45.55427" lon="4.85988">
        <ele>209.17131</ele>
        <time>2021-03-14T09:47:06Z</time>
      </trkpt>
      <trkpt lat="45.5542" lon="4.85991">
        <ele>208.61642</ele>
        <time>2021-03-14T09:47:09Z</time>
      </trkpt>
      <trkpt lat="45.55415" lon="4.85991">
        <ele>208.29405</ele>
        <time>2021-03-14T09:47:12Z</time>
      </trkpt>
      <trkpt lat="45.55412" lon="4.85985">
        <ele>208.33633</ele>
        <time>2021-03-14T09:47:14Z</time>
      </trkpt>
      <trkpt lat="45.55409" lon="4.85978">
        <ele>208.49487</ele>
        <time>2021-03-14T09:47:16Z</time>
      </trkpt>
      <trkpt lat="45.55406" lon="4.85972">
        <ele>208.29405</ele>
        <time>2021-03-14T09:47:18Z</time>
      </trkpt>
      <trkpt lat="45.55404" lon="4.85965">
        <ele>207.6599</ele>
        <time>2021-03-14T09:47:20Z</time>
      </trkpt>
      <trkpt lat="45.55402" lon="4.85959">
        <ele>207.3798</ele>
        <time>2021-03-14T09:47:22Z</time>
      </trkpt>
      <trkpt lat="45.554" lon="4.85952">
        <ele>207.49078</ele>
        <time>2021-03-14T09:47:24Z</time>
      </trkpt>
      <trkpt lat="45.55397" lon="4.85945">
        <ele>207.71803</ele>
        <time>2021-03-14T09:47:26Z</time>
      </trkpt>
      <trkpt lat="45.55394" lon="4.85938">
        <ele>207.36925</ele>
        <time>2021-03-14T09:47:28Z</time>
      </trkpt>
      <trkpt lat="45.55393" lon="4.8593">
        <ele>208.09851</ele>
        <time>2021-03-14T09:47:30Z</time>
      </trkpt>
      <trkpt lat="45.55391" lon="4.85924">
        <ele>208.36276</ele>
        <time>2021-03-14T09:47:32Z</time>
      </trkpt>
      <trkpt lat="45.55389" lon="4.85917">
        <ele>208.33633</ele>
        <time>2021-03-14T09:47:34Z</time>
      </trkpt>
      <trkpt lat="45.55386" lon="4.85909">
        <ele>208.9335</ele>
        <time>2021-03-14T09:47:36Z</time>
      </trkpt>
      <trkpt lat="45.55384" lon="4.85903">
        <ele>209.28229</ele>
        <time>2021-03-14T09:47:38Z</time>
      </trkpt>
      <trkpt lat="45.55382" lon="4.85896">
        <ele>209.82661</ele>
        <time>2021-03-14T09:47:40Z</time>
      </trkpt>
      <trkpt lat="45.5538" lon="4.85889">
        <ele>210.30222</ele>
        <time>2021-03-14T09:47:42Z</time>
      </trkpt>
      <trkpt lat="45.55378" lon="4.85883">
        <ele>210.04857</ele>
        <time>2021-03-14T09:47:44Z</time>
      </trkpt>
      <trkpt lat="45.55375" lon="4.85876">
        <ele>210.1701</ele>
        <time>2021-03-14T09:47:46Z</time>
      </trkpt>
      <trkpt lat="45.55373" lon="4.8587">
        <ele>210.91524</ele>
        <time>2021-03-14T09:47:48Z</time>
      </trkpt>
      <trkpt lat="45.55371" lon="4.85864">
        <ele>210.80426</ele>
        <time>2021-03-14T09:47:50Z</time>
      </trkpt>
      <trkpt lat="45.55368" lon="4.85858">
        <ele>211.59167</ele>
        <time>2021-03-14T09:47:52Z</time>
      </trkpt>
      <trkpt lat="45.55366" lon="4.85851">
        <ele>212.03558</ele>
        <time>2021-03-14T09:47:54Z</time>
      </trkpt>
      <trkpt lat="45.55364" lon="4.85846">
        <ele>211.45956</ele>
        <time>2021-03-14T09:47:56Z</time>
      </trkpt>
      <trkpt lat="45.55361" lon="4.85839">
        <ele>212.46893</ele>
        <time>2021-03-14T09:47:58Z</time>
      </trkpt>
      <trkpt lat="45.55359" lon="4.85833">
        <ele>212.49007</ele>
        <time>2021-03-14T09:48:00Z</time>
      </trkpt>
      <trkpt lat="45.55358" lon="4.85827">
        <ele>212.85469</ele>
        <time>2021-03-14T09:48:02Z</time>
      </trkpt>
      <trkpt lat="45.55356" lon="4.8582">
        <ele>213.45715</ele>
        <time>2021-03-14T09:48:04Z</time>
      </trkpt>
      <trkpt lat="45.55354" lon="4.85814">
        <ele>213.80592</ele>
        <time>2021-03-14T09:48:06Z</time>
      </trkpt>
      <trkpt lat="45.55351" lon="4.85808">
        <ele>213.57869</ele>
        <time>2021-03-14T09:48:08Z</time>
      </trkpt>
      <trkpt lat="45.55348" lon="4.85803">
        <ele>213.80592</ele>
        <time>2021-03-14T09:48:10Z</time>
      </trkpt>
      <trkpt lat="45.55347" lon="4.85797">
        <ele>214.3661</ele>
        <time>2021-03-14T09:48:12Z</time>
      </trkpt>
      <trkpt lat="45.55345" lon="4.8579">
        <ele>214.56165</ele>
        <time>2021-03-14T09:48:14Z</time>
      </trkpt>
      <trkpt lat="45.55343" lon="4.85782">
        <ele>214.79417</ele>
        <time>2021-03-14T09:48:17Z</time>
      </trkpt>
      <trkpt lat="45.5534" lon="4.85777">
        <ele>215.02669</ele>
        <time>2021-03-14T09:48:19Z</time>
      </trkpt>
      <trkpt lat="45.55336" lon="4.85773">
        <ele>214.93686</ele>
        <time>2021-03-14T09:48:21Z</time>
      </trkpt>
      <trkpt lat="45.55331" lon="4.85772">
        <ele>215.20108</ele>
        <time>2021-03-14T09:48:23Z</time>
      </trkpt>
      <trkpt lat="45.55326" lon="4.8577">
        <ele>215.23279</ele>
        <time>2021-03-14T09:48:25Z</time>
      </trkpt>
      <trkpt lat="45.55321" lon="4.85769">
        <ele>215.8511</ele>
        <time>2021-03-14T09:48:27Z</time>
      </trkpt>
      <trkpt lat="45.55316" lon="4.85768">
        <ele>215.92508</ele>
        <time>2021-03-14T09:48:29Z</time>
      </trkpt>
      <trkpt lat="45.55312" lon="4.85767">
        <ele>216.48524</ele>
        <time>2021-03-14T09:48:31Z</time>
      </trkpt>
      <trkpt lat="45.55307" lon="4.85765">
        <ele>217.10883</ele>
        <time>2021-03-14T09:48:33Z</time>
      </trkpt>
      <trkpt lat="45.55302" lon="4.85764">
        <ele>217.61617</ele>
        <time>2021-03-14T09:48:35Z</time>
      </trkpt>
      <trkpt lat="45.55297" lon="4.85763">
        <ele>217.72186</ele>
        <time>2021-03-14T09:48:37Z</time>
      </trkpt>
      <trkpt lat="45.55292" lon="4.85764">
        <ele>218.40886</ele>
        <time>2021-03-14T09:48:39Z</time>
      </trkpt>
      <trkpt lat="45.55287" lon="4.85763">
        <ele>218.73122</ele>
        <time>2021-03-14T09:48:41Z</time>
      </trkpt>
      <trkpt lat="45.55281" lon="4.85764">
        <ele>219.12756</ele>
        <time>2021-03-14T09:48:44Z</time>
      </trkpt>
      <trkpt lat="45.55275" lon="4.85763">
        <ele>219.47635</ele>
        <time>2021-03-14T09:48:46Z</time>
      </trkpt>
      <trkpt lat="45.5527" lon="4.85762">
        <ele>219.37065</ele>
        <time>2021-03-14T09:48:48Z</time>
      </trkpt>
      <trkpt lat="45.55265" lon="4.8576">
        <ele>220.23206</ele>
        <time>2021-03-14T09:48:50Z</time>
      </trkpt>
      <trkpt lat="45.55261" lon="4.85759">
        <ele>219.88855</ele>
        <time>2021-03-14T09:48:52Z</time>
      </trkpt>
      <trkpt lat="45.55254" lon="4.85757">
        <ele>220.45929</ele>
        <time>2021-03-14T09:48:55Z</time>
      </trkpt>
      <trkpt lat="45.55249" lon="4.85757">
        <ele>220.93492</ele>
        <time>2021-03-14T09:48:57Z</time>
      </trkpt>
      <trkpt lat="45.55244" lon="4.85756">
        <ele>220.8028</ele>
        <time>2021-03-14T09:48:59Z</time>
      </trkpt>
      <trkpt lat="45.55239" lon="4.85756">
        <ele>221.03003</ele>
        <time>2021-03-14T09:49:01Z</time>
      </trkpt>
      <trkpt lat="45.55235" lon="4.85757">
        <ele>221.37881</ele>
        <time>2021-03-14T09:49:03Z</time>
      </trkpt>
      <trkpt lat="45.5523" lon="4.85757">
        <ele>221.64305</ele>
        <time>2021-03-14T09:49:05Z</time>
      </trkpt>
      <trkpt lat="45.55223" lon="4.85756">
        <ele>221.36826</ele>
        <time>2021-03-14T09:49:08Z</time>
      </trkpt>
      <trkpt lat="45.55217" lon="4.85755">
        <ele>221.83858</ele>
        <time>2021-03-14T09:49:10Z</time>
      </trkpt>
      <trkpt lat="45.55212" lon="4.85752">
        <ele>221.87556</ele>
        <time>2021-03-14T09:49:12Z</time>
      </trkpt>
      <trkpt lat="45.55207" lon="4.85751">
        <ele>222.00241</ele>
        <time>2021-03-14T09:49:14Z</time>
      </trkpt>
      <trkpt lat="45.552" lon="4.85749">
        <ele>222.18208</ele>
        <time>2021-03-14T09:49:17Z</time>
      </trkpt>
      <trkpt lat="45.55194" lon="4.85747">
        <ele>222.42519</ele>
        <time>2021-03-14T09:49:19Z</time>
      </trkpt>
      <trkpt lat="45.55189" lon="4.85744">
        <ele>222.44632</ele>
        <time>2021-03-14T09:49:21Z</time>
      </trkpt>
      <trkpt lat="45.55183" lon="4.85742">
        <ele>221.85445</ele>
        <time>2021-03-14T09:49:23Z</time>
      </trkpt>
      <trkpt lat="45.55178" lon="4.85741">
        <ele>222.20851</ele>
        <time>2021-03-14T09:49:25Z</time>
      </trkpt>
      <trkpt lat="45.55173" lon="4.8574">
        <ele>222.25607</ele>
        <time>2021-03-14T09:49:27Z</time>
      </trkpt>
      <trkpt lat="45.55167" lon="4.85738">
        <ele>222.37234</ele>
        <time>2021-03-14T09:49:29Z</time>
      </trkpt>
      <trkpt lat="45.55162" lon="4.85737">
        <ele>222.22966</ele>
        <time>2021-03-14T09:49:31Z</time>
      </trkpt>
      <trkpt lat="45.55156" lon="4.85736">
        <ele>222.4569</ele>
        <time>2021-03-14T09:49:34Z</time>
      </trkpt>
      <trkpt lat="45.55151" lon="4.85735">
        <ele>223.1122</ele>
        <time>2021-03-14T09:49:36Z</time>
      </trkpt>
      <trkpt lat="45.55146" lon="4.85733">
        <ele>223.12276</ele>
        <time>2021-03-14T09:49:38Z</time>
      </trkpt>
      <trkpt lat="45.55141" lon="4.85732">
        <ele>223.10689</ele>
        <time>2021-03-14T09:49:40Z</time>
      </trkpt>
      <trkpt lat="45.55136" lon="4.85731">
        <ele>223.04877</ele>
        <time>2021-03-14T09:49:42Z</time>
      </trkpt>
      <trkpt lat="45.5513" lon="4.8573">
        <ele>223.75163</ele>
        <time>2021-03-14T09:49:45Z</time>
      </trkpt>
      <trkpt lat="45.55125" lon="4.85728">
        <ele>224.04756</ele>
        <time>2021-03-14T09:49:47Z</time>
      </trkpt>
      <trkpt lat="45.5512" lon="4.85722">
        <ele>224.72928</ele>
        <time>2021-03-14T09:49:50Z</time>
      </trkpt>
      <trkpt lat="45.55117" lon="4.85715">
        <ele>225.07278</ele>
        <time>2021-03-14T09:49:52Z</time>
      </trkpt>
      <trkpt lat="45.55114" lon="4.85707">
        <ele>225.50613</ele>
        <time>2021-03-14T09:49:54Z</time>
      </trkpt>
      <trkpt lat="45.55114" lon="4.85699">
        <ele>225.16791</ele>
        <time>2021-03-14T09:49:56Z</time>
      </trkpt>
      <trkpt lat="45.55114" lon="4.8569">
        <ele>225.21547</ele>
        <time>2021-03-14T09:49:58Z</time>
      </trkpt>
      <trkpt lat="45.55114" lon="4.85682">
        <ele>225.3423</ele>
        <time>2021-03-14T09:50:00Z</time>
      </trkpt>
      <trkpt lat="45.55114" lon="4.85675">
        <ele>225.50084</ele>
        <time>2021-03-14T09:50:02Z</time>
      </trkpt>
      <trkpt lat="45.55115" lon="4.85667">
        <ele>225.66995</ele>
        <time>2021-03-14T09:50:04Z</time>
      </trkpt>
      <trkpt lat="45.55115" lon="4.85659">
        <ele>225.3793</ele>
        <time>2021-03-14T09:50:06Z</time>
      </trkpt>
      <trkpt lat="45.55115" lon="4.85652">
        <ele>225.50084</ele>
        <time>2021-03-14T09:50:08Z</time>
      </trkpt>
      <trkpt lat="45.55115" lon="4.85644">
        <ele>225.75452</ele>
        <time>2021-03-14T09:50:10Z</time>
      </trkpt>
      <trkpt lat="45.55116" lon="4.85636">
        <ele>225.43744</ele>
        <time>2021-03-14T09:50:12Z</time>
      </trkpt>
      <trkpt lat="45.55117" lon="4.85627">
        <ele>226.02402</ele>
        <time>2021-03-14T09:50:14Z</time>
      </trkpt>
      <trkpt lat="45.55117" lon="4.8562">
        <ele>226.54192</ele>
        <time>2021-03-14T09:50:16Z</time>
      </trkpt>
      <trkpt lat="45.55118" lon="4.85612">
        <ele>226.14029</ele>
        <time>2021-03-14T09:50:18Z</time>
      </trkpt>
      <trkpt lat="45.55119" lon="4.85605">
        <ele>225.94475</ele>
        <time>2021-03-14T09:50:20Z</time>
      </trkpt>
      <trkpt lat="45.55119" lon="4.85597">
        <ele>226.62119</ele>
        <time>2021-03-14T09:50:22Z</time>
      </trkpt>
      <trkpt lat="45.55121" lon="4.85588">
        <ele>226.06628</ele>
        <time>2021-03-14T09:50:25Z</time>
      </trkpt>
      <trkpt lat="45.55123" lon="4.85581">
        <ele>226.49965</ele>
        <time>2021-03-14T09:50:27Z</time>
      </trkpt>
      <trkpt lat="45.55126" lon="4.85575">
        <ele>226.30939</ele>
        <time>2021-03-14T09:50:29Z</time>
      </trkpt>
      <trkpt lat="45.55129" lon="4.85568">
        <ele>226.43094</ele>
        <time>2021-03-14T09:50:31Z</time>
      </trkpt>
      <trkpt lat="45.55132" lon="4.8556">
        <ele>225.69638</ele>
        <time>2021-03-14T09:50:33Z</time>
      </trkpt>
      <trkpt lat="45.55136" lon="4.85554">
        <ele>227.00168</ele>
        <time>2021-03-14T09:50:35Z</time>
      </trkpt>
      <trkpt lat="45.55139" lon="4.85548">
        <ele>227.2976</ele>
        <time>2021-03-14T09:50:37Z</time>
      </trkpt>
      <trkpt lat="45.55141" lon="4.85542">
        <ele>227.28705</ele>
        <time>2021-03-14T09:50:39Z</time>
      </trkpt>
      <trkpt lat="45.55143" lon="4.85536">
        <ele>227.76796</ele>
        <time>2021-03-14T09:50:41Z</time>
      </trkpt>
      <trkpt lat="45.55145" lon="4.8553">
        <ele>228.62407</ele>
        <time>2021-03-14T09:50:43Z</time>
      </trkpt>
      <trkpt lat="45.55147" lon="4.85524">
        <ele>228.60292</ele>
        <time>2021-03-14T09:50:45Z</time>
      </trkpt>
      <trkpt lat="45.55149" lon="4.85517">
        <ele>228.9887</ele>
        <time>2021-03-14T09:50:47Z</time>
      </trkpt>
      <trkpt lat="45.55151" lon="4.8551">
        <ele>229.0204</ele>
        <time>2021-03-14T09:50:49Z</time>
      </trkpt>
      <trkpt lat="45.55153" lon="4.85504">
        <ele>229.70213</ele>
        <time>2021-03-14T09:50:51Z</time>
      </trkpt>
      <trkpt lat="45.55154" lon="4.85497">
        <ele>229.99278</ele>
        <time>2021-03-14T09:50:53Z</time>
      </trkpt>
      <trkpt lat="45.55156" lon="4.8549">
        <ele>231.00745</ele>
        <time>2021-03-14T09:50:55Z</time>
      </trkpt>
      <trkpt lat="45.55157" lon="4.85483">
        <ele>230.96515</ele>
        <time>2021-03-14T09:50:57Z</time>
      </trkpt>
      <trkpt lat="45.55159" lon="4.85476">
        <ele>231.41963</ele>
        <time>2021-03-14T09:50:59Z</time>
      </trkpt>
      <trkpt lat="45.5516" lon="4.85469">
        <ele>231.8477</ele>
        <time>2021-03-14T09:51:01Z</time>
      </trkpt>
      <trkpt lat="45.55161" lon="4.85462">
        <ele>232.38145</ele>
        <time>2021-03-14T09:51:03Z</time>
      </trkpt>
      <trkpt lat="45.55162" lon="4.85456">
        <ele>232.96803</ele>
        <time>2021-03-14T09:51:05Z</time>
      </trkpt>
      <trkpt lat="45.55164" lon="4.85449">
        <ele>233.04202</ele>
        <time>2021-03-14T09:51:07Z</time>
      </trkpt>
      <trkpt lat="45.55165" lon="4.85442">
        <ele>233.68147</ele>
        <time>2021-03-14T09:51:09Z</time>
      </trkpt>
      <trkpt lat="45.55167" lon="4.85436">
        <ele>233.877</ele>
        <time>2021-03-14T09:51:11Z</time>
      </trkpt>
      <trkpt lat="45.55169" lon="4.8543">
        <ele>234.7701</ele>
        <time>2021-03-14T09:51:13Z</time>
      </trkpt>
      <trkpt lat="45.5517" lon="4.85423">
        <ele>234.84938</ele>
        <time>2021-03-14T09:51:15Z</time>
      </trkpt>
      <trkpt lat="45.55171" lon="4.85417">
        <ele>235.15587</ele>
        <time>2021-03-14T09:51:17Z</time>
      </trkpt>
      <trkpt lat="45.55172" lon="4.85407">
        <ele>236.12297</ele>
        <time>2021-03-14T09:51:20Z</time>
      </trkpt>
      <trkpt lat="45.55174" lon="4.85401">
        <ele>236.54575</ele>
        <time>2021-03-14T09:51:22Z</time>
      </trkpt>
      <trkpt lat="45.55175" lon="4.85393">
        <ele>237.13762</ele>
        <time>2021-03-14T09:51:25Z</time>
      </trkpt>
      <trkpt lat="45.55178" lon="4.85385">
        <ele>237.6238</ele>
        <time>2021-03-14T09:51:28Z</time>
      </trkpt>
      <trkpt lat="45.55179" lon="4.85383">
        <ele>237.92503</ele>
        <time>2021-03-14T09:51:29Z</time>
      </trkpt>
      <trkpt lat="45.5518" lon="4.8538">
        <ele>237.96202</ele>
        <time>2021-03-14T09:51:30Z</time>
      </trkpt>
      <trkpt lat="45.55182" lon="4.85377">
        <ele>238.24739</ele>
        <time>2021-03-14T09:51:31Z</time>
      </trkpt>
      <trkpt lat="45.55182" lon="4.85374">
        <ele>238.60674</ele>
        <time>2021-03-14T09:51:32Z</time>
      </trkpt>
      <trkpt lat="45.55183" lon="4.8537">
        <ele>238.61205</ele>
        <time>2021-03-14T09:51:33Z</time>
      </trkpt>
      <trkpt lat="45.55184" lon="4.85367">
        <ele>238.71773</ele>
        <time>2021-03-14T09:51:34Z</time>
      </trkpt>
      <trkpt lat="45.55184" lon="4.85364">
        <ele>238.95024</ele>
        <time>2021-03-14T09:51:35Z</time>
      </trkpt>
      <trkpt lat="45.55183" lon="4.85361">
        <ele>239.48927</ele>
        <time>2021-03-14T09:51:36Z</time>
      </trkpt>
      <trkpt lat="45.55182" lon="4.85357">
        <ele>239.5157</ele>
        <time>2021-03-14T09:51:37Z</time>
      </trkpt>
      <trkpt lat="45.55182" lon="4.85353">
        <ele>239.8275</ele>
        <time>2021-03-14T09:51:38Z</time>
      </trkpt>
      <trkpt lat="45.55181" lon="4.8535">
        <ele>240.10759</ele>
        <time>2021-03-14T09:51:39Z</time>
      </trkpt>
      <trkpt lat="45.5518" lon="4.85347">
        <ele>239.8962</ele>
        <time>2021-03-14T09:51:40Z</time>
      </trkpt>
      <trkpt lat="45.55177" lon="4.85339">
        <ele>240.5462</ele>
        <time>2021-03-14T09:51:43Z</time>
      </trkpt>
      <trkpt lat="45.55177" lon="4.85336">
        <ele>240.91614</ele>
        <time>2021-03-14T09:51:44Z</time>
      </trkpt>
      <trkpt lat="45.55177" lon="4.85333">
        <ele>241.2702</ele>
        <time>2021-03-14T09:51:45Z</time>
      </trkpt>
      <trkpt lat="45.55177" lon="4.8533">
        <ele>241.41289</ele>
        <time>2021-03-14T09:51:46Z</time>
      </trkpt>
      <trkpt lat="45.55176" lon="4.85327">
        <ele>241.8515</ele>
        <time>2021-03-14T09:51:47Z</time>
      </trkpt>
      <trkpt lat="45.55176" lon="4.85324">
        <ele>241.94664</ele>
        <time>2021-03-14T09:51:48Z</time>
      </trkpt>
      <trkpt lat="45.55175" lon="4.85321">
        <ele>242.17389</ele>
        <time>2021-03-14T09:51:49Z</time>
      </trkpt>
      <trkpt lat="45.55175" lon="4.85318">
        <ele>242.48567</ele>
        <time>2021-03-14T09:51:50Z</time>
      </trkpt>
      <trkpt lat="45.55175" lon="4.85315">
        <ele>242.46982</ele>
        <time>2021-03-14T09:51:51Z</time>
      </trkpt>
      <trkpt lat="45.55175" lon="4.85306">
        <ele>243.28365</ele>
        <time>2021-03-14T09:51:54Z</time>
      </trkpt>
      <trkpt lat="45.55176" lon="4.85302">
        <ele>243.5109</ele>
        <time>2021-03-14T09:51:55Z</time>
      </trkpt>
      <trkpt lat="45.55177" lon="4.85298">
        <ele>244.00238</ele>
        <time>2021-03-14T09:51:56Z</time>
      </trkpt>
      <trkpt lat="45.55177" lon="4.85294">
        <ele>244.2666</ele>
        <time>2021-03-14T09:51:57Z</time>
      </trkpt>
      <trkpt lat="45.55177" lon="4.85291">
        <ele>244.38814</ele>
        <time>2021-03-14T09:51:58Z</time>
      </trkpt>
      <trkpt lat="45.55177" lon="4.85287">
        <ele>244.62067</ele>
        <time>2021-03-14T09:51:59Z</time>
      </trkpt>
      <trkpt lat="45.55176" lon="4.85285">
        <ele>245.0963</ele>
        <time>2021-03-14T09:52:00Z</time>
      </trkpt>
      <trkpt lat="45.55176" lon="4.85282">
        <ele>245.21255</ele>
        <time>2021-03-14T09:52:01Z</time>
      </trkpt>
      <trkpt lat="45.55177" lon="4.85279">
        <ele>245.20728</ele>
        <time>2021-03-14T09:52:02Z</time>
      </trkpt>
      <trkpt lat="45.5518" lon="4.85266">
        <ele>246.37517</ele>
        <time>2021-03-14T09:52:06Z</time>
      </trkpt>
      <trkpt lat="45.5518" lon="4.85266">
        <ele>246.37517</ele>
        <time>2021-03-14T09:52:06Z</time>
      </trkpt>
      <trkpt lat="45.55182" lon="4.8526">
        <ele>246.62355</ele>
        <time>2021-03-14T09:52:08Z</time>
      </trkpt>
      <trkpt lat="45.55182" lon="4.85257">
        <ele>247.2947</ele>
        <time>2021-03-14T09:52:09Z</time>
      </trkpt>
      <trkpt lat="45.55182" lon="4.85253">
        <ele>247.10446</ele>
        <time>2021-03-14T09:52:10Z</time>
      </trkpt>
      <trkpt lat="45.55183" lon="4.85241">
        <ele>248.09796</ele>
        <time>2021-03-14T09:52:14Z</time>
      </trkpt>
      <trkpt lat="45.55183" lon="4.85241">
        <ele>248.09796</ele>
        <time>2021-03-14T09:52:14Z</time>
      </trkpt>
      <trkpt lat="45.55182" lon="4.85234">
        <ele>249.12318</ele>
        <time>2021-03-14T09:52:16Z</time>
      </trkpt>
      <trkpt lat="45.55182" lon="4.8523">
        <ele>249.07562</ele>
        <time>2021-03-14T09:52:17Z</time>
      </trkpt>
      <trkpt lat="45.55182" lon="4.85223">
        <ele>249.6041</ele>
        <time>2021-03-14T09:52:19Z</time>
      </trkpt>
      <trkpt lat="45.55182" lon="4.85219">
        <ele>250.03215</ele>
        <time>2021-03-14T09:52:20Z</time>
      </trkpt>
      <trkpt lat="45.55182" lon="4.85216">
        <ele>250.7033</ele>
        <time>2021-03-14T09:52:21Z</time>
      </trkpt>
      <trkpt lat="45.55182" lon="4.85213">
        <ele>251.15248</ele>
        <time>2021-03-14T09:52:22Z</time>
      </trkpt>
      <trkpt lat="45.55182" lon="4.8521">
        <ele>251.40086</ele>
        <time>2021-03-14T09:52:23Z</time>
      </trkpt>
      <trkpt lat="45.55182" lon="4.85207">
        <ele>251.74435</ele>
        <time>2021-03-14T09:52:24Z</time>
      </trkpt>
      <trkpt lat="45.55182" lon="4.85204">
        <ele>251.96632</ele>
        <time>2021-03-14T09:52:25Z</time>
      </trkpt>
      <trkpt lat="45.55182" lon="4.852">
        <ele>252.146</ele>
        <time>2021-03-14T09:52:26Z</time>
      </trkpt>
      <trkpt lat="45.55182" lon="4.85197">
        <ele>252.66919</ele>
        <time>2021-03-14T09:52:27Z</time>
      </trkpt>
      <trkpt lat="45.55182" lon="4.85194">
        <ele>253.00739</ele>
        <time>2021-03-14T09:52:28Z</time>
      </trkpt>
      <trkpt lat="45.55182" lon="4.8519">
        <ele>253.26633</ele>
        <time>2021-03-14T09:52:29Z</time>
      </trkpt>
      <trkpt lat="45.55182" lon="4.85187">
        <ele>253.63098</ele>
        <time>2021-03-14T09:52:30Z</time>
      </trkpt>
      <trkpt lat="45.55181" lon="4.85185">
        <ele>254.09602</ele>
        <time>2021-03-14T09:52:31Z</time>
      </trkpt>
      <trkpt lat="45.55182" lon="4.85183">
        <ele>254.46066</ele>
        <time>2021-03-14T09:52:32Z</time>
      </trkpt>
      <trkpt lat="45.55182" lon="4.8518">
        <ele>254.48709</ele>
        <time>2021-03-14T09:52:33Z</time>
      </trkpt>
      <trkpt lat="45.55181" lon="4.85179">
        <ele>255.12125</ele>
        <time>2021-03-14T09:52:34Z</time>
      </trkpt>
      <trkpt lat="45.55182" lon="4.85176">
        <ele>255.33263</ele>
        <time>2021-03-14T09:52:35Z</time>
      </trkpt>
      <trkpt lat="45.55182" lon="4.85173">
        <ele>255.95094</ele>
        <time>2021-03-14T09:52:36Z</time>
      </trkpt>
      <trkpt lat="45.55182" lon="4.85168">
        <ele>256.9286</ele>
        <time>2021-03-14T09:52:38Z</time>
      </trkpt>
      <trkpt lat="45.55182" lon="4.85165">
        <ele>257.1717</ele>
        <time>2021-03-14T09:52:39Z</time>
      </trkpt>
      <trkpt lat="45.55182" lon="4.85161">
        <ele>257.18225</ele>
        <time>2021-03-14T09:52:40Z</time>
      </trkpt>
      <trkpt lat="45.55182" lon="4.85161">
        <ele>257.18225</ele>
        <time>2021-03-14T09:52:40Z</time>
      </trkpt>
      <trkpt lat="45.55182" lon="4.85153">
        <ele>257.90625</ele>
        <time>2021-03-14T09:52:43Z</time>
      </trkpt>
      <trkpt lat="45.55182" lon="4.85153">
        <ele>257.90625</ele>
        <time>2021-03-14T09:52:43Z</time>
      </trkpt>
      <trkpt lat="45.55185" lon="4.85139">
        <ele>258.93674</ele>
        <time>2021-03-14T09:52:46Z</time>
      </trkpt>
      <trkpt lat="45.55185" lon="4.85139">
        <ele>258.93674</ele>
        <time>2021-03-14T09:52:46Z</time>
      </trkpt>
      <trkpt lat="45.55187" lon="4.85132">
        <ele>259.56033</ele>
        <time>2021-03-14T09:52:48Z</time>
      </trkpt>
      <trkpt lat="45.55188" lon="4.85129">
        <ele>259.31726</ele>
        <time>2021-03-14T09:52:49Z</time>
      </trkpt>
      <trkpt lat="45.5519" lon="4.85122">
        <ele>260.20505</ele>
        <time>2021-03-14T09:52:51Z</time>
      </trkpt>
      <trkpt lat="45.55191" lon="4.85119">
        <ele>259.8774</ele>
        <time>2021-03-14T09:52:52Z</time>
      </trkpt>
      <trkpt lat="45.55193" lon="4.85109">
        <ele>259.56033</ele>
        <time>2021-03-14T09:52:55Z</time>
      </trkpt>
      <trkpt lat="45.55195" lon="4.85101">
        <ele>259.02658</ele>
        <time>2021-03-14T09:52:57Z</time>
      </trkpt>
      <trkpt lat="45.55195" lon="4.85093">
        <ele>259.0319</ele>
        <time>2021-03-14T09:52:59Z</time>
      </trkpt>
      <trkpt lat="45.55196" lon="4.85084">
        <ele>259.00546</ele>
        <time>2021-03-14T09:53:01Z</time>
      </trkpt>
      <trkpt lat="45.55198" lon="4.85077">
        <ele>259.28024</ele>
        <time>2021-03-14T09:53:03Z</time>
      </trkpt>
      <trkpt lat="45.552" lon="4.85066">
        <ele>259.45465</ele>
        <time>2021-03-14T09:53:06Z</time>
      </trkpt>
      <trkpt lat="45.55203" lon="4.85056">
        <ele>258.9579</ele>
        <time>2021-03-14T09:53:09Z</time>
      </trkpt>
      <trkpt lat="45.55206" lon="4.85042">
        <ele>259.5445</ele>
        <time>2021-03-14T09:53:12Z</time>
      </trkpt>
      <trkpt lat="45.55208" lon="4.85032">
        <ele>259.62903</ele>
        <time>2021-03-14T09:53:14Z</time>
      </trkpt>
      <trkpt lat="45.55209" lon="4.85024">
        <ele>259.8774</ele>
        <time>2021-03-14T09:53:16Z</time>
      </trkpt>
      <trkpt lat="45.55209" lon="4.85017">
        <ele>260.31076</ele>
        <time>2021-03-14T09:53:18Z</time>
      </trkpt>
      <trkpt lat="45.55209" lon="4.85014">
        <ele>260.80222</ele>
        <time>2021-03-14T09:53:19Z</time>
      </trkpt>
      <trkpt lat="45.55207" lon="4.8501">
        <ele>260.60672</ele>
        <time>2021-03-14T09:53:20Z</time>
      </trkpt>
      <trkpt lat="45.55204" lon="4.85002">
        <ele>260.9925</ele>
        <time>2021-03-14T09:53:22Z</time>
      </trkpt>
      <trkpt lat="45.55204" lon="4.85002">
        <ele>260.9925</ele>
        <time>2021-03-14T09:53:22Z</time>
      </trkpt>
      <trkpt lat="45.55202" lon="4.84995">
        <ele>260.89206</ele>
        <time>2021-03-14T09:53:24Z</time>
      </trkpt>
      <trkpt lat="45.55201" lon="4.84992">
        <ele>260.51685</ele>
        <time>2021-03-14T09:53:25Z</time>
      </trkpt>
      <trkpt lat="45.55196" lon="4.84987">
        <ele>260.7441</ele>
        <time>2021-03-14T09:53:27Z</time>
      </trkpt>
      <trkpt lat="45.55193" lon="4.8498">
        <ele>260.13635</ele>
        <time>2021-03-14T09:53:29Z</time>
      </trkpt>
      <trkpt lat="45.55189" lon="4.84972">
        <ele>259.3754</ele>
        <time>2021-03-14T09:53:31Z</time>
      </trkpt>
      <trkpt lat="45.55188" lon="4.84964">
        <ele>258.2022</ele>
        <time>2021-03-14T09:53:33Z</time>
      </trkpt>
      <trkpt lat="45.55189" lon="4.84955">
        <ele>257.72656</ele>
        <time>2021-03-14T09:53:35Z</time>
      </trkpt>
      <trkpt lat="45.5519" lon="4.84948">
        <ele>257.68958</ele>
        <time>2021-03-14T09:53:37Z</time>
      </trkpt>
      <trkpt lat="45.55193" lon="4.8494">
        <ele>257.19812</ele>
        <time>2021-03-14T09:53:39Z</time>
      </trkpt>
      <trkpt lat="45.55194" lon="4.84932">
        <ele>256.79648</ele>
        <time>2021-03-14T09:53:41Z</time>
      </trkpt>
      <trkpt lat="45.55194" lon="4.84924">
        <ele>256.268</ele>
        <time>2021-03-14T09:53:43Z</time>
      </trkpt>
      <trkpt lat="45.55191" lon="4.84918">
        <ele>256.23102</ele>
        <time>2021-03-14T09:53:45Z</time>
      </trkpt>
      <trkpt lat="45.55186" lon="4.84914">
        <ele>256.07248</ele>
        <time>2021-03-14T09:53:47Z</time>
      </trkpt>
      <trkpt lat="45.55182" lon="4.84909">
        <ele>256.22574</ele>
        <time>2021-03-14T09:53:49Z</time>
      </trkpt>
      <trkpt lat="45.55177" lon="4.84905">
        <ele>255.50174</ele>
        <time>2021-03-14T09:53:51Z</time>
      </trkpt>
      <trkpt lat="45.55172" lon="4.84904">
        <ele>255.48059</ele>
        <time>2021-03-14T09:53:53Z</time>
      </trkpt>
      <trkpt lat="45.55168" lon="4.84903">
        <ele>255.02611</ele>
        <time>2021-03-14T09:53:55Z</time>
      </trkpt>
      <trkpt lat="45.55162" lon="4.84902">
        <ele>254.77774</ele>
        <time>2021-03-14T09:53:58Z</time>
      </trkpt>
      <trkpt lat="45.55158" lon="4.84903">
        <ele>254.09074</ele>
        <time>2021-03-14T09:54:00Z</time>
      </trkpt>
      <trkpt lat="45.55153" lon="4.84904">
        <ele>253.36674</ele>
        <time>2021-03-14T09:54:02Z</time>
      </trkpt>
      <trkpt lat="45.55147" lon="4.84907">
        <ele>252.93869</ele>
        <time>2021-03-14T09:54:04Z</time>
      </trkpt>
      <trkpt lat="45.55143" lon="4.8491">
        <ele>252.54234</ele>
        <time>2021-03-14T09:54:06Z</time>
      </trkpt>
      <trkpt lat="45.55138" lon="4.84911">
        <ele>251.78664</ele>
        <time>2021-03-14T09:54:08Z</time>
      </trkpt>
      <trkpt lat="45.55131" lon="4.84915">
        <ele>251.03622</ele>
        <time>2021-03-14T09:54:11Z</time>
      </trkpt>
      <trkpt lat="45.55126" lon="4.84918">
        <ele>250.19067</ele>
        <time>2021-03-14T09:54:13Z</time>
      </trkpt>
      <trkpt lat="45.55122" lon="4.84921">
        <ele>249.41383</ele>
        <time>2021-03-14T09:54:15Z</time>
      </trkpt>
      <trkpt lat="45.55116" lon="4.84923">
        <ele>248.64755</ele>
        <time>2021-03-14T09:54:17Z</time>
      </trkpt>
      <trkpt lat="45.55111" lon="4.84924">
        <ele>247.81259</ele>
        <time>2021-03-14T09:54:19Z</time>
      </trkpt>
      <trkpt lat="45.55105" lon="4.84928">
        <ele>246.93007</ele>
        <time>2021-03-14T09:54:21Z</time>
      </trkpt>
      <trkpt lat="45.55101" lon="4.84929">
        <ele>246.91948</ele>
        <time>2021-03-14T09:54:22Z</time>
      </trkpt>
      <trkpt lat="45.55096" lon="4.84933">
        <ele>246.17963</ele>
        <time>2021-03-14T09:54:24Z</time>
      </trkpt>
      <trkpt lat="45.55092" lon="4.84936">
        <ele>245.89426</ele>
        <time>2021-03-14T09:54:26Z</time>
      </trkpt>
      <trkpt lat="45.55087" lon="4.8494">
        <ele>244.82149</ele>
        <time>2021-03-14T09:54:28Z</time>
      </trkpt>
      <trkpt lat="45.55082" lon="4.84943">
        <ele>244.72636</ele>
        <time>2021-03-14T09:54:30Z</time>
      </trkpt>
      <trkpt lat="45.55077" lon="4.84948">
        <ele>243.90196</ele>
        <time>2021-03-14T09:54:33Z</time>
      </trkpt>
      <trkpt lat="45.55074" lon="4.84955">
        <ele>243.66415</ele>
        <time>2021-03-14T09:54:35Z</time>
      </trkpt>
      <trkpt lat="45.55069" lon="4.8496">
        <ele>242.71292</ele>
        <time>2021-03-14T09:54:37Z</time>
      </trkpt>
      <trkpt lat="45.55064" lon="4.84963">
        <ele>242.52795</ele>
        <time>2021-03-14T09:54:39Z</time>
      </trkpt>
      <trkpt lat="45.55058" lon="4.84966">
        <ele>242.23729</ele>
        <time>2021-03-14T09:54:42Z</time>
      </trkpt>
      <trkpt lat="45.55053" lon="4.84969">
        <ele>241.59785</ele>
        <time>2021-03-14T09:54:44Z</time>
      </trkpt>
      <trkpt lat="45.5505" lon="4.84973">
        <ele>241.40233</ele>
        <time>2021-03-14T09:54:46Z</time>
      </trkpt>
      <trkpt lat="45.55046" lon="4.84978">
        <ele>240.81044</ele>
        <time>2021-03-14T09:54:48Z</time>
      </trkpt>
      <trkpt lat="45.55041" lon="4.84983">
        <ele>240.55678</ele>
        <time>2021-03-14T09:54:50Z</time>
      </trkpt>
      <trkpt lat="45.55037" lon="4.84988">
        <ele>240.4511</ele>
        <time>2021-03-14T09:54:52Z</time>
      </trkpt>
      <trkpt lat="45.55032" lon="4.84993">
        <ele>240.28726</ele>
        <time>2021-03-14T09:54:54Z</time>
      </trkpt>
      <trkpt lat="45.55028" lon="4.84996">
        <ele>239.83806</ele>
        <time>2021-03-14T09:54:56Z</time>
      </trkpt>
      <trkpt lat="45.55022" lon="4.85001">
        <ele>239.56856</ele>
        <time>2021-03-14T09:54:59Z</time>
      </trkpt>
      <trkpt lat="45.55016" lon="4.85004">
        <ele>238.89742</ele>
        <time>2021-03-14T09:55:02Z</time>
      </trkpt>
      <trkpt lat="45.55011" lon="4.85008">
        <ele>238.53804</ele>
        <time>2021-03-14T09:55:06Z</time>
      </trkpt>
      <trkpt lat="45.55005" lon="4.85009">
        <ele>238.54863</ele>
        <time>2021-03-14T09:55:08Z</time>
      </trkpt>
      <trkpt lat="45.54998" lon="4.85012">
        <ele>238.06772</ele>
        <time>2021-03-14T09:55:10Z</time>
      </trkpt>
      <trkpt lat="45.54992" lon="4.85019">
        <ele>238.073</ele>
        <time>2021-03-14T09:55:12Z</time>
      </trkpt>
      <trkpt lat="45.54985" lon="4.85021">
        <ele>237.9673</ele>
        <time>2021-03-14T09:55:14Z</time>
      </trkpt>
      <trkpt lat="45.54979" lon="4.85022">
        <ele>237.95146</ele>
        <time>2021-03-14T09:55:16Z</time>
      </trkpt>
      <trkpt lat="45.54972" lon="4.85025">
        <ele>237.66081</ele>
        <time>2021-03-14T09:55:18Z</time>
      </trkpt>
      <trkpt lat="45.54962" lon="4.85027">
        <ele>237.32259</ele>
        <time>2021-03-14T09:55:21Z</time>
      </trkpt>
      <trkpt lat="45.54953" lon="4.8503">
        <ele>236.82054</ele>
        <time>2021-03-14T09:55:24Z</time>
      </trkpt>
      <trkpt lat="45.54948" lon="4.85031">
        <ele>237.20102</ele>
        <time>2021-03-14T09:55:26Z</time>
      </trkpt>
      <trkpt lat="45.54942" lon="4.8503">
        <ele>236.89453</ele>
        <time>2021-03-14T09:55:28Z</time>
      </trkpt>
      <trkpt lat="45.54937" lon="4.85029">
        <ele>236.50874</ele>
        <time>2021-03-14T09:55:30Z</time>
      </trkpt>
      <trkpt lat="45.54931" lon="4.85028">
        <ele>236.84695</ele>
        <time>2021-03-14T09:55:33Z</time>
      </trkpt>
      <trkpt lat="45.54926" lon="4.85027">
        <ele>236.29736</ele>
        <time>2021-03-14T09:55:35Z</time>
      </trkpt>
      <trkpt lat="45.54921" lon="4.85027">
        <ele>236.5563</ele>
        <time>2021-03-14T09:55:37Z</time>
      </trkpt>
      <trkpt lat="45.54915" lon="4.85027">
        <ele>236.55103</ele>
        <time>2021-03-14T09:55:39Z</time>
      </trkpt>
      <trkpt lat="45.5491" lon="4.85026">
        <ele>236.38191</ele>
        <time>2021-03-14T09:55:41Z</time>
      </trkpt>
      <trkpt lat="45.54903" lon="4.85024">
        <ele>236.51932</ele>
        <time>2021-03-14T09:55:43Z</time>
      </trkpt>
      <trkpt lat="45.54898" lon="4.85023">
        <ele>236.19696</ele>
        <time>2021-03-14T09:55:45Z</time>
      </trkpt>
      <trkpt lat="45.54893" lon="4.85021">
        <ele>236.29208</ele>
        <time>2021-03-14T09:55:47Z</time>
      </trkpt>
      <trkpt lat="45.54888" lon="4.8502">
        <ele>236.69371</ele>
        <time>2021-03-14T09:55:49Z</time>
      </trkpt>
      <trkpt lat="45.54883" lon="4.85018">
        <ele>236.67256</ele>
        <time>2021-03-14T09:55:51Z</time>
      </trkpt>
      <trkpt lat="45.54877" lon="4.85015">
        <ele>236.52988</ele>
        <time>2021-03-14T09:55:53Z</time>
      </trkpt>
      <trkpt lat="45.54873" lon="4.85013">
        <ele>236.74126</ele>
        <time>2021-03-14T09:55:55Z</time>
      </trkpt>
      <trkpt lat="45.54868" lon="4.8501">
        <ele>237.29616</ele>
        <time>2021-03-14T09:55:57Z</time>
      </trkpt>
      <trkpt lat="45.54863" lon="4.85008">
        <ele>237.09534</ele>
        <time>2021-03-14T09:55:59Z</time>
      </trkpt>
      <trkpt lat="45.54858" lon="4.85005">
        <ele>237.63966</ele>
        <time>2021-03-14T09:56:01Z</time>
      </trkpt>
      <trkpt lat="45.54852" lon="4.85001">
        <ele>237.68193</ele>
        <time>2021-03-14T09:56:03Z</time>
      </trkpt>
      <trkpt lat="45.54846" lon="4.84997">
        <ele>237.68193</ele>
        <time>2021-03-14T09:56:05Z</time>
      </trkpt>
      <trkpt lat="45.54841" lon="4.84994">
        <ele>238.22096</ele>
        <time>2021-03-14T09:56:07Z</time>
      </trkpt>
      <trkpt lat="45.54836" lon="4.8499">
        <ele>238.91325</ele>
        <time>2021-03-14T09:56:10Z</time>
      </trkpt>
      <trkpt lat="45.54832" lon="4.84986">
        <ele>239.61612</ele>
        <time>2021-03-14T09:56:12Z</time>
      </trkpt>
      <trkpt lat="45.54828" lon="4.8498">
        <ele>240.25555</ele>
        <time>2021-03-14T09:56:14Z</time>
      </trkpt>
      <trkpt lat="45.54826" lon="4.84975">
        <ele>240.67303</ele>
        <time>2021-03-14T09:56:16Z</time>
      </trkpt>
      <trkpt lat="45.54821" lon="4.84966">
        <ele>241.1698</ele>
        <time>2021-03-14T09:56:19Z</time>
      </trkpt>
      <trkpt lat="45.54818" lon="4.8496">
        <ele>241.16452</ele>
        <time>2021-03-14T09:56:21Z</time>
      </trkpt>
      <trkpt lat="45.54816" lon="4.84955">
        <ele>240.94257</ele>
        <time>2021-03-14T09:56:23Z</time>
      </trkpt>
      <trkpt lat="45.54812" lon="4.84948">
        <ele>241.69826</ele>
        <time>2021-03-14T09:56:25Z</time>
      </trkpt>
      <trkpt lat="45.5481" lon="4.8494">
        <ele>240.77345</ele>
        <time>2021-03-14T09:56:28Z</time>
      </trkpt>
      <trkpt lat="45.54809" lon="4.84933">
        <ele>240.18156</ele>
        <time>2021-03-14T09:56:30Z</time>
      </trkpt>
      <trkpt lat="45.54807" lon="4.84924">
        <ele>239.21977</ele>
        <time>2021-03-14T09:56:33Z</time>
      </trkpt>
      <trkpt lat="45.54807" lon="4.84918">
        <ele>238.65431</ele>
        <time>2021-03-14T09:56:35Z</time>
      </trkpt>
      <trkpt lat="45.54807" lon="4.84911">
        <ele>238.33723</ele>
        <time>2021-03-14T09:56:37Z</time>
      </trkpt>
      <trkpt lat="45.54808" lon="4.84903">
        <ele>237.30144</ele>
        <time>2021-03-14T09:56:39Z</time>
      </trkpt>
      <trkpt lat="45.54808" lon="4.84896">
        <ele>237.5868</ele>
        <time>2021-03-14T09:56:41Z</time>
      </trkpt>
      <trkpt lat="45.5481" lon="4.8489">
        <ele>237.08476</ele>
        <time>2021-03-14T09:56:43Z</time>
      </trkpt>
      <trkpt lat="45.54812" lon="4.84882">
        <ele>236.6303</ele>
        <time>2021-03-14T09:56:45Z</time>
      </trkpt>
      <trkpt lat="45.54814" lon="4.84875">
        <ele>236.98964</ele>
        <time>2021-03-14T09:56:47Z</time>
      </trkpt>
      <trkpt lat="45.54815" lon="4.84867">
        <ele>236.60916</ele>
        <time>2021-03-14T09:56:49Z</time>
      </trkpt>
      <trkpt lat="45.54814" lon="4.84858">
        <ele>236.46118</ele>
        <time>2021-03-14T09:56:51Z</time>
      </trkpt>
      <trkpt lat="45.54812" lon="4.8485">
        <ele>236.20752</ele>
        <time>2021-03-14T09:56:53Z</time>
      </trkpt>
      <trkpt lat="45.5481" lon="4.84843">
        <ele>236.04898</ele>
        <time>2021-03-14T09:56:55Z</time>
      </trkpt>
      <trkpt lat="45.54808" lon="4.84836">
        <ele>235.77946</ele>
        <time>2021-03-14T09:56:57Z</time>
      </trkpt>
      <trkpt lat="45.54805" lon="4.84829">
        <ele>236.37135</ele>
        <time>2021-03-14T09:56:59Z</time>
      </trkpt>
      <trkpt lat="45.54803" lon="4.84822">
        <ele>236.86282</ele>
        <time>2021-03-14T09:57:01Z</time>
      </trkpt>
      <trkpt lat="45.548" lon="4.84814">
        <ele>236.93152</ele>
        <time>2021-03-14T09:57:04Z</time>
      </trkpt>
      <trkpt lat="45.54798" lon="4.84808">
        <ele>237.71364</ele>
        <time>2021-03-14T09:57:06Z</time>
      </trkpt>
      <trkpt lat="45.54795" lon="4.84801">
        <ele>237.81406</ele>
        <time>2021-03-14T09:57:08Z</time>
      </trkpt>
      <trkpt lat="45.54792" lon="4.84794">
        <ele>238.25795</ele>
        <time>2021-03-14T09:57:10Z</time>
      </trkpt>
      <trkpt lat="45.54789" lon="4.84786">
        <ele>239.21977</ele>
        <time>2021-03-14T09:57:12Z</time>
      </trkpt>
      <trkpt lat="45.54788" lon="4.84778">
        <ele>239.71652</ele>
        <time>2021-03-14T09:57:14Z</time>
      </trkpt>
      <trkpt lat="45.54788" lon="4.84771">
        <ele>239.45758</ele>
        <time>2021-03-14T09:57:16Z</time>
      </trkpt>
      <trkpt lat="45.54789" lon="4.84764">
        <ele>240.03888</ele>
        <time>2021-03-14T09:57:18Z</time>
      </trkpt>
      <trkpt lat="45.54791" lon="4.84757">
        <ele>239.81166</ele>
        <time>2021-03-14T09:57:20Z</time>
      </trkpt>
      <trkpt lat="45.54792" lon="4.84749">
        <ele>238.35837</ele>
        <time>2021-03-14T09:57:22Z</time>
      </trkpt>
      <trkpt lat="45.54794" lon="4.8474">
        <ele>237.79291</ele>
        <time>2021-03-14T09:57:24Z</time>
      </trkpt>
      <trkpt lat="45.54796" lon="4.84732">
        <ele>237.04778</ele>
        <time>2021-03-14T09:57:26Z</time>
      </trkpt>
      <trkpt lat="45.54799" lon="4.84723">
        <ele>235.59451</ele>
        <time>2021-03-14T09:57:28Z</time>
      </trkpt>
      <trkpt lat="45.54801" lon="4.84714">
        <ele>234.56401</ele>
        <time>2021-03-14T09:57:30Z</time>
      </trkpt>
      <trkpt lat="45.54803" lon="4.84705">
        <ele>234.12537</ele>
        <time>2021-03-14T09:57:32Z</time>
      </trkpt>
      <trkpt lat="45.54805" lon="4.84699">
        <ele>233.6656</ele>
        <time>2021-03-14T09:57:34Z</time>
      </trkpt>
      <trkpt lat="45.54807" lon="4.84689">
        <ele>232.76723</ele>
        <time>2021-03-14T09:57:37Z</time>
      </trkpt>
      <trkpt lat="45.54807" lon="4.84682">
        <ele>232.49242</ele>
        <time>2021-03-14T09:57:39Z</time>
      </trkpt>
      <trkpt lat="45.54807" lon="4.84674">
        <ele>232.64568</ele>
        <time>2021-03-14T09:57:41Z</time>
      </trkpt>
      <trkpt lat="45.54806" lon="4.84667">
        <ele>232.6404</ele>
        <time>2021-03-14T09:57:43Z</time>
      </trkpt>
      <trkpt lat="45.54802" lon="4.84657">
        <ele>232.97331</ele>
        <time>2021-03-14T09:57:46Z</time>
      </trkpt>
      <trkpt lat="45.54799" lon="4.8465">
        <ele>233.01561</ele>
        <time>2021-03-14T09:57:48Z</time>
      </trkpt>
      <trkpt lat="45.54795" lon="4.84644">
        <ele>233.3538</ele>
        <time>2021-03-14T09:57:50Z</time>
      </trkpt>
      <trkpt lat="45.54792" lon="4.84639">
        <ele>233.60747</ele>
        <time>2021-03-14T09:57:52Z</time>
      </trkpt>
      <trkpt lat="45.54789" lon="4.84634">
        <ele>234.35262</ele>
        <time>2021-03-14T09:57:54Z</time>
      </trkpt>
      <trkpt lat="45.54785" lon="4.84629">
        <ele>234.7331</ele>
        <time>2021-03-14T09:57:56Z</time>
      </trkpt>
      <trkpt lat="45.54783" lon="4.84622">
        <ele>235.64734</ele>
        <time>2021-03-14T09:57:59Z</time>
      </trkpt>
      <trkpt lat="45.54782" lon="4.84613">
        <ele>237.10063</ele>
        <time>2021-03-14T09:58:02Z</time>
      </trkpt>
      <trkpt lat="45.54783" lon="4.84605">
        <ele>237.4917</ele>
        <time>2021-03-14T09:58:04Z</time>
      </trkpt>
      <trkpt lat="45.54785" lon="4.84598">
        <ele>238.24211</ele>
        <time>2021-03-14T09:58:06Z</time>
      </trkpt>
      <trkpt lat="45.54788" lon="4.8459">
        <ele>238.47992</ele>
        <time>2021-03-14T09:58:09Z</time>
      </trkpt>
      <trkpt lat="45.54792" lon="4.84582">
        <ele>239.8275</ele>
        <time>2021-03-14T09:58:12Z</time>
      </trkpt>
      <trkpt lat="45.54797" lon="4.84573">
        <ele>241.14867</ele>
        <time>2021-03-14T09:58:16Z</time>
      </trkpt>
      <trkpt lat="45.54801" lon="4.84566">
        <ele>241.48688</ele>
        <time>2021-03-14T09:58:19Z</time>
      </trkpt>
      <trkpt lat="45.54806" lon="4.84561">
        <ele>242.76575</ele>
        <time>2021-03-14T09:58:22Z</time>
      </trkpt>
      <trkpt lat="45.54813" lon="4.84552">
        <ele>243.77513</ele>
        <time>2021-03-14T09:58:26Z</time>
      </trkpt>
      <trkpt lat="45.5482" lon="4.84545">
        <ele>244.6788</ele>
        <time>2021-03-14T09:58:30Z</time>
      </trkpt>
      <trkpt lat="45.54826" lon="4.84539">
        <ele>245.9524</ele>
        <time>2021-03-14T09:58:33Z</time>
      </trkpt>
      <trkpt lat="45.54829" lon="4.84535">
        <ele>246.16379</ele>
        <time>2021-03-14T09:58:35Z</time>
      </trkpt>
      <trkpt lat="45.54833" lon="4.8453">
        <ele>246.79266</ele>
        <time>2021-03-14T09:58:37Z</time>
      </trkpt>
      <trkpt lat="45.54837" lon="4.84525">
        <ele>246.89307</ele>
        <time>2021-03-14T09:58:39Z</time>
      </trkpt>
      <trkpt lat="45.54841" lon="4.84521">
        <ele>246.75566</ele>
        <time>2021-03-14T09:58:41Z</time>
      </trkpt>
      <trkpt lat="45.54845" lon="4.84516">
        <ele>247.2577</ele>
        <time>2021-03-14T09:58:43Z</time>
      </trkpt>
      <trkpt lat="45.5485" lon="4.84511">
        <ele>248.35162</ele>
        <time>2021-03-14T09:58:46Z</time>
      </trkpt>
      <trkpt lat="45.54855" lon="4.84505">
        <ele>248.57886</ele>
        <time>2021-03-14T09:58:49Z</time>
      </trkpt>
      <trkpt lat="45.54859" lon="4.84501">
        <ele>247.57478</ele>
        <time>2021-03-14T09:58:51Z</time>
      </trkpt>
      <trkpt lat="45.54866" lon="4.84496">
        <ele>248.31464</ele>
        <time>2021-03-14T09:58:54Z</time>
      </trkpt>
      <trkpt lat="45.54871" lon="4.84493">
        <ele>247.16258</ele>
        <time>2021-03-14T09:58:56Z</time>
      </trkpt>
      <trkpt lat="45.54876" lon="4.8449">
        <ele>246.17963</ele>
        <time>2021-03-14T09:58:58Z</time>
      </trkpt>
      <trkpt lat="45.54883" lon="4.84484">
        <ele>245.51906</ele>
        <time>2021-03-14T09:59:01Z</time>
      </trkpt>
      <trkpt lat="45.54887" lon="4.84481">
        <ele>244.79506</ele>
        <time>2021-03-14T09:59:03Z</time>
      </trkpt>
      <trkpt lat="45.54892" lon="4.84478">
        <ele>244.97473</ele>
        <time>2021-03-14T09:59:05Z</time>
      </trkpt>
      <trkpt lat="45.54896" lon="4.84476">
        <ele>243.27309</ele>
        <time>2021-03-14T09:59:07Z</time>
      </trkpt>
      <trkpt lat="45.54902" lon="4.84475">
        <ele>243.26253</ele>
        <time>2021-03-14T09:59:10Z</time>
      </trkpt>
      <trkpt lat="45.54907" lon="4.84476">
        <ele>242.34828</ele>
        <time>2021-03-14T09:59:11Z</time>
      </trkpt>
      <trkpt lat="45.54913" lon="4.84476">
        <ele>242.0312</ele>
        <time>2021-03-14T09:59:15Z</time>
      </trkpt>
      <trkpt lat="45.54917" lon="4.84472">
        <ele>241.69826</ele>
        <time>2021-03-14T09:59:18Z</time>
      </trkpt>
      <trkpt lat="45.54921" lon="4.84469">
        <ele>240.63605</ele>
        <time>2021-03-14T09:59:20Z</time>
      </trkpt>
      <trkpt lat="45.54926" lon="4.84467">
        <ele>240.81044</ele>
        <time>2021-03-14T09:59:22Z</time>
      </trkpt>
      <trkpt lat="45.54932" lon="4.84464">
        <ele>239.36774</ele>
        <time>2021-03-14T09:59:25Z</time>
      </trkpt>
      <trkpt lat="45.54938" lon="4.84461">
        <ele>237.60796</ele>
        <time>2021-03-14T09:59:28Z</time>
      </trkpt>
      <trkpt lat="45.54944" lon="4.8446">
        <ele>237.44942</ele>
        <time>2021-03-14T09:59:30Z</time>
      </trkpt>
      <trkpt lat="45.5495" lon="4.84458">
        <ele>237.1799</ele>
        <time>2021-03-14T09:59:33Z</time>
      </trkpt>
      <trkpt lat="45.54955" lon="4.84457">
        <ele>236.74657</ele>
        <time>2021-03-14T09:59:35Z</time>
      </trkpt>
      <trkpt lat="45.5496" lon="4.84457">
        <ele>236.55103</ele>
        <time>2021-03-14T09:59:37Z</time>
      </trkpt>
      <trkpt lat="45.54968" lon="4.84457">
        <ele>236.32907</ele>
        <time>2021-03-14T09:59:39Z</time>
      </trkpt>
      <trkpt lat="45.54972" lon="4.84457">
        <ele>236.0807</ele>
        <time>2021-03-14T09:59:41Z</time>
      </trkpt>
      <trkpt lat="45.54977" lon="4.84457">
        <ele>235.92743</ele>
        <time>2021-03-14T09:59:43Z</time>
      </trkpt>
      <trkpt lat="45.54982" lon="4.84457">
        <ele>235.75304</ele>
        <time>2021-03-14T09:59:45Z</time>
      </trkpt>
      <trkpt lat="45.54987" lon="4.84456">
        <ele>235.4941</ele>
        <time>2021-03-14T09:59:47Z</time>
      </trkpt>
      <trkpt lat="45.54992" lon="4.84455">
        <ele>235.62622</ele>
        <time>2021-03-14T09:59:49Z</time>
      </trkpt>
      <trkpt lat="45.54997" lon="4.84454">
        <ele>235.44653</ele>
        <time>2021-03-14T09:59:51Z</time>
      </trkpt>
      <trkpt lat="45.55002" lon="4.84452">
        <ele>235.74776</ele>
        <time>2021-03-14T09:59:53Z</time>
      </trkpt>
      <trkpt lat="45.55007" lon="4.84451">
        <ele>235.7689</ele>
        <time>2021-03-14T09:59:55Z</time>
      </trkpt>
      <trkpt lat="45.55012" lon="4.84448">
        <ele>236.40834</ele>
        <time>2021-03-14T09:59:57Z</time>
      </trkpt>
      <trkpt lat="45.55018" lon="4.84445">
        <ele>236.87866</ele>
        <time>2021-03-14T09:59:59Z</time>
      </trkpt>
      <trkpt lat="45.55022" lon="4.84442">
        <ele>237.75592</ele>
        <time>2021-03-14T10:00:01Z</time>
      </trkpt>
      <trkpt lat="45.55026" lon="4.8444">
        <ele>238.50635</ele>
        <time>2021-03-14T10:00:03Z</time>
      </trkpt>
      <trkpt lat="45.55031" lon="4.84437">
        <ele>238.8657</ele>
        <time>2021-03-14T10:00:05Z</time>
      </trkpt>
      <trkpt lat="45.55039" lon="4.84433">
        <ele>240.25555</ele>
        <time>2021-03-14T10:00:08Z</time>
      </trkpt>
      <trkpt lat="45.55041" lon="4.84427">
        <ele>241.50273</ele>
        <time>2021-03-14T10:00:11Z</time>
      </trkpt>
      <trkpt lat="45.55042" lon="4.84417">
        <ele>242.24258</ele>
        <time>2021-03-14T10:00:13Z</time>
      </trkpt>
      <trkpt lat="45.5504" lon="4.84407">
        <ele>243.18852</ele>
        <time>2021-03-14T10:00:16Z</time>
      </trkpt>
      <trkpt lat="45.5504" lon="4.84398">
        <ele>244.4727</ele>
        <time>2021-03-14T10:00:19Z</time>
      </trkpt>
      <trkpt lat="45.5504" lon="4.84391">
        <ele>244.74751</ele>
        <time>2021-03-14T10:00:22Z</time>
      </trkpt>
      <trkpt lat="45.5504" lon="4.84383">
        <ele>244.69466</ele>
        <time>2021-03-14T10:00:23Z</time>
      </trkpt>
      <trkpt lat="45.5504" lon="4.84371">
        <ele>244.75279</ele>
        <time>2021-03-14T10:00:26Z</time>
      </trkpt>
      <trkpt lat="45.55039" lon="4.84365">
        <ele>243.89139</ele>
        <time>2021-03-14T10:00:28Z</time>
      </trkpt>
      <trkpt lat="45.55037" lon="4.84353">
        <ele>244.21904</ele>
        <time>2021-03-14T10:00:31Z</time>
      </trkpt>
      <trkpt lat="45.55035" lon="4.84345">
        <ele>244.2349</ele>
        <time>2021-03-14T10:00:33Z</time>
      </trkpt>
      <trkpt lat="45.55032" lon="4.84333">
        <ele>244.52025</ele>
        <time>2021-03-14T10:00:36Z</time>
      </trkpt>
      <trkpt lat="45.55029" lon="4.84327">
        <ele>244.34058</ele>
        <time>2021-03-14T10:00:38Z</time>
      </trkpt>
      <trkpt lat="45.55029" lon="4.8432">
        <ele>244.74222</ele>
        <time>2021-03-14T10:00:40Z</time>
      </trkpt>
      <trkpt lat="45.55029" lon="4.84312">
        <ele>244.96945</ele>
        <time>2021-03-14T10:00:42Z</time>
      </trkpt>
      <trkpt lat="45.55027" lon="4.84305">
        <ele>244.9906</ele>
        <time>2021-03-14T10:00:44Z</time>
      </trkpt>
      <trkpt lat="45.55025" lon="4.84296">
        <ele>245.1914</ele>
        <time>2021-03-14T10:00:47Z</time>
      </trkpt>
      <trkpt lat="45.55024" lon="4.8429">
        <ele>246.58656</ele>
        <time>2021-03-14T10:00:49Z</time>
      </trkpt>
      <trkpt lat="45.55023" lon="4.84282">
        <ele>247.69632</ele>
        <time>2021-03-14T10:00:52Z</time>
      </trkpt>
      <trkpt lat="45.55022" lon="4.84275">
        <ele>247.89186</ele>
        <time>2021-03-14T10:00:54Z</time>
      </trkpt>
      <trkpt lat="45.55021" lon="4.84267">
        <ele>248.9118</ele>
        <time>2021-03-14T10:00:57Z</time>
      </trkpt>
      <trkpt lat="45.55021" lon="4.84259">
        <ele>250.09555</ele>
        <time>2021-03-14T10:01:00Z</time>
      </trkpt>
      <trkpt lat="45.55021" lon="4.8425">
        <ele>250.99394</ele>
        <time>2021-03-14T10:01:04Z</time>
      </trkpt>
      <trkpt lat="45.55022" lon="4.8424">
        <ele>250.80371</ele>
        <time>2021-03-14T10:01:06Z</time>
      </trkpt>
      <trkpt lat="45.55023" lon="4.84234">
        <ele>251.25816</ele>
        <time>2021-03-14T10:01:08Z</time>
      </trkpt>
      <trkpt lat="45.55024" lon="4.84226">
        <ele>251.63866</ele>
        <time>2021-03-14T10:01:11Z</time>
      </trkpt>
      <trkpt lat="45.55026" lon="4.84218">
        <ele>252.64276</ele>
        <time>2021-03-14T10:01:13Z</time>
      </trkpt>
      <trkpt lat="45.55027" lon="4.84212">
        <ele>252.70087</ele>
        <time>2021-03-14T10:01:15Z</time>
      </trkpt>
      <trkpt lat="45.5503" lon="4.84205">
        <ele>252.10371</ele>
        <time>2021-03-14T10:01:17Z</time>
      </trkpt>
      <trkpt lat="45.55033" lon="4.842">
        <ele>251.03093</ele>
        <time>2021-03-14T10:01:19Z</time>
      </trkpt>
      <trkpt lat="45.55037" lon="4.84194">
        <ele>250.44434</ele>
        <time>2021-03-14T10:01:21Z</time>
      </trkpt>
      <trkpt lat="45.55042" lon="4.84188">
        <ele>250.16954</ele>
        <time>2021-03-14T10:01:23Z</time>
      </trkpt>
      <trkpt lat="45.55047" lon="4.84183">
        <ele>249.78905</ele>
        <time>2021-03-14T10:01:25Z</time>
      </trkpt>
      <trkpt lat="45.55051" lon="4.84177">
        <ele>250.20123</ele>
        <time>2021-03-14T10:01:27Z</time>
      </trkpt>
      <trkpt lat="45.55057" lon="4.84171">
        <ele>250.25937</ele>
        <time>2021-03-14T10:01:29Z</time>
      </trkpt>
      <trkpt lat="45.55062" lon="4.84165">
        <ele>250.23294</ele>
        <time>2021-03-14T10:01:31Z</time>
      </trkpt>
      <trkpt lat="45.55066" lon="4.8416">
        <ele>249.3927</ele>
        <time>2021-03-14T10:01:33Z</time>
      </trkpt>
      <trkpt lat="45.55071" lon="4.84155">
        <ele>250.29109</ele>
        <time>2021-03-14T10:01:35Z</time>
      </trkpt>
      <trkpt lat="45.55075" lon="4.8415">
        <ele>250.03743</ele>
        <time>2021-03-14T10:01:37Z</time>
      </trkpt>
      <trkpt lat="45.5508" lon="4.84145">
        <ele>250.11668</ele>
        <time>2021-03-14T10:01:39Z</time>
      </trkpt>
      <trkpt lat="45.55085" lon="4.84139">
        <ele>249.74147</ele>
        <time>2021-03-14T10:01:41Z</time>
      </trkpt>
      <trkpt lat="45.55089" lon="4.84133">
        <ele>249.74147</ele>
        <time>2021-03-14T10:01:43Z</time>
      </trkpt>
      <trkpt lat="45.55094" lon="4.84128">
        <ele>248.92764</ele>
        <time>2021-03-14T10:01:45Z</time>
      </trkpt>
      <trkpt lat="45.55098" lon="4.84122">
        <ele>248.31464</ele>
        <time>2021-03-14T10:01:47Z</time>
      </trkpt>
      <trkpt lat="45.55102" lon="4.84118">
        <ele>247.76503</ele>
        <time>2021-03-14T10:01:49Z</time>
      </trkpt>
      <trkpt lat="45.55107" lon="4.84112">
        <ele>247.92885</ele>
        <time>2021-03-14T10:01:52Z</time>
      </trkpt>
      <trkpt lat="45.55112" lon="4.84109">
        <ele>247.30527</ele>
        <time>2021-03-14T10:01:54Z</time>
      </trkpt>
      <trkpt lat="45.55117" lon="4.84105">
        <ele>247.31055</ele>
        <time>2021-03-14T10:01:56Z</time>
      </trkpt>
      <trkpt lat="45.55122" lon="4.841">
        <ele>246.92476</ele>
        <time>2021-03-14T10:01:58Z</time>
      </trkpt>
      <trkpt lat="45.55125" lon="4.84094">
        <ele>247.23656</ele>
        <time>2021-03-14T10:02:00Z</time>
      </trkpt>
      <trkpt lat="45.55128" lon="4.84087">
        <ele>247.40039</ele>
        <time>2021-03-14T10:02:02Z</time>
      </trkpt>
      <trkpt lat="45.5513" lon="4.8408">
        <ele>247.44266</ele>
        <time>2021-03-14T10:02:04Z</time>
      </trkpt>
      <trkpt lat="45.55133" lon="4.84072">
        <ele>247.43738</ele>
        <time>2021-03-14T10:02:06Z</time>
      </trkpt>
      <trkpt lat="45.55136" lon="4.84064">
        <ele>247.3634</ele>
        <time>2021-03-14T10:02:08Z</time>
      </trkpt>
      <trkpt lat="45.55139" lon="4.84056">
        <ele>247.40567</ele>
        <time>2021-03-14T10:02:10Z</time>
      </trkpt>
      <trkpt lat="45.55143" lon="4.84049">
        <ele>247.95528</ele>
        <time>2021-03-14T10:02:12Z</time>
      </trkpt>
      <trkpt lat="45.55146" lon="4.84043">
        <ele>248.61584</ele>
        <time>2021-03-14T10:02:14Z</time>
      </trkpt>
      <trkpt lat="45.5515" lon="4.84038">
        <ele>248.24593</ele>
        <time>2021-03-14T10:02:16Z</time>
      </trkpt>
      <trkpt lat="45.55154" lon="4.84034">
        <ele>248.35162</ele>
        <time>2021-03-14T10:02:18Z</time>
      </trkpt>
      <trkpt lat="45.55159" lon="4.8403">
        <ele>248.27235</ele>
        <time>2021-03-14T10:02:20Z</time>
      </trkpt>
      <trkpt lat="45.55164" lon="4.84027">
        <ele>248.02399</ele>
        <time>2021-03-14T10:02:22Z</time>
      </trkpt>
      <trkpt lat="45.5517" lon="4.84026">
        <ele>248.05038</ele>
        <time>2021-03-14T10:02:24Z</time>
      </trkpt>
      <trkpt lat="45.55176" lon="4.84024">
        <ele>247.4638</ele>
        <time>2021-03-14T10:02:26Z</time>
      </trkpt>
      <trkpt lat="45.55182" lon="4.84023">
        <ele>248.03455</ele>
        <time>2021-03-14T10:02:28Z</time>
      </trkpt>
      <trkpt lat="45.55188" lon="4.84022">
        <ele>247.72275</ele>
        <time>2021-03-14T10:02:30Z</time>
      </trkpt>
      <trkpt lat="45.55193" lon="4.84021">
        <ele>248.11382</ele>
        <time>2021-03-14T10:02:32Z</time>
      </trkpt>
      <trkpt lat="45.55198" lon="4.84021">
        <ele>248.51015</ele>
        <time>2021-03-14T10:02:34Z</time>
      </trkpt>
      <trkpt lat="45.55203" lon="4.84022">
        <ele>248.64755</ele>
        <time>2021-03-14T10:02:36Z</time>
      </trkpt>
      <trkpt lat="45.55207" lon="4.84022">
        <ele>249.03334</ele>
        <time>2021-03-14T10:02:38Z</time>
      </trkpt>
      <trkpt lat="45.55212" lon="4.84023">
        <ele>248.48903</ele>
        <time>2021-03-14T10:02:40Z</time>
      </trkpt>
      <trkpt lat="45.55218" lon="4.84024">
        <ele>248.16667</ele>
        <time>2021-03-14T10:02:42Z</time>
      </trkpt>
      <trkpt lat="45.55223" lon="4.84025">
        <ele>248.07681</ele>
        <time>2021-03-14T10:02:44Z</time>
      </trkpt>
      <trkpt lat="45.55229" lon="4.84024">
        <ele>248.29349</ele>
        <time>2021-03-14T10:02:46Z</time>
      </trkpt>
      <trkpt lat="45.55235" lon="4.84024">
        <ele>247.98169</ele>
        <time>2021-03-14T10:02:48Z</time>
      </trkpt>
      <trkpt lat="45.5524" lon="4.84025">
        <ele>248.02399</ele>
        <time>2021-03-14T10:02:50Z</time>
      </trkpt>
      <trkpt lat="45.55246" lon="4.84025">
        <ele>247.71747</ele>
        <time>2021-03-14T10:02:52Z</time>
      </trkpt>
      <trkpt lat="45.55252" lon="4.84026">
        <ele>247.68576</ele>
        <time>2021-03-14T10:02:54Z</time>
      </trkpt>
      <trkpt lat="45.55257" lon="4.84027">
        <ele>247.31584</ele>
        <time>2021-03-14T10:02:56Z</time>
      </trkpt>
      <trkpt lat="45.55263" lon="4.84028">
        <ele>247.50609</ele>
        <time>2021-03-14T10:02:58Z</time>
      </trkpt>
      <trkpt lat="45.55269" lon="4.8403">
        <ele>247.62234</ele>
        <time>2021-03-14T10:03:00Z</time>
      </trkpt>
      <trkpt lat="45.55274" lon="4.84033">
        <ele>247.64348</ele>
        <time>2021-03-14T10:03:02Z</time>
      </trkpt>
      <trkpt lat="45.55279" lon="4.84036">
        <ele>247.07803</ele>
        <time>2021-03-14T10:03:04Z</time>
      </trkpt>
      <trkpt lat="45.55285" lon="4.84042">
        <ele>246.58656</ele>
        <time>2021-03-14T10:03:06Z</time>
      </trkpt>
      <trkpt lat="45.55289" lon="4.84049">
        <ele>246.17963</ele>
        <time>2021-03-14T10:03:08Z</time>
      </trkpt>
      <trkpt lat="45.55293" lon="4.84055">
        <ele>245.83614</ele>
        <time>2021-03-14T10:03:10Z</time>
      </trkpt>
      <trkpt lat="45.55298" lon="4.8406">
        <ele>245.29181</ele>
        <time>2021-03-14T10:03:12Z</time>
      </trkpt>
      <trkpt lat="45.55302" lon="4.84065">
        <ele>245.76215</ele>
        <time>2021-03-14T10:03:14Z</time>
      </trkpt>
      <trkpt lat="45.55307" lon="4.84068">
        <ele>245.24954</ele>
        <time>2021-03-14T10:03:16Z</time>
      </trkpt>
      <trkpt lat="45.55311" lon="4.84071">
        <ele>244.90604</ele>
        <time>2021-03-14T10:03:18Z</time>
      </trkpt>
      <trkpt lat="45.55314" lon="4.84076">
        <ele>244.30887</ele>
        <time>2021-03-14T10:03:20Z</time>
      </trkpt>
      <trkpt lat="45.55319" lon="4.8408">
        <ele>244.32474</ele>
        <time>2021-03-14T10:03:22Z</time>
      </trkpt>
      <trkpt lat="45.55322" lon="4.84085">
        <ele>243.5796</ele>
        <time>2021-03-14T10:03:24Z</time>
      </trkpt>
      <trkpt lat="45.55326" lon="4.8409">
        <ele>244.01294</ele>
        <time>2021-03-14T10:03:26Z</time>
      </trkpt>
      <trkpt lat="45.5533" lon="4.84095">
        <ele>243.75398</ele>
        <time>2021-03-14T10:03:28Z</time>
      </trkpt>
      <trkpt lat="45.55334" lon="4.841">
        <ele>243.97066</ele>
        <time>2021-03-14T10:03:30Z</time>
      </trkpt>
      <trkpt lat="45.55338" lon="4.84104">
        <ele>243.5056</ele>
        <time>2021-03-14T10:03:32Z</time>
      </trkpt>
      <trkpt lat="45.55343" lon="4.84108">
        <ele>243.35236</ele>
        <time>2021-03-14T10:03:34Z</time>
      </trkpt>
      <trkpt lat="45.55347" lon="4.84111">
        <ele>243.04056</ele>
        <time>2021-03-14T10:03:36Z</time>
      </trkpt>
      <trkpt lat="45.55352" lon="4.84114">
        <ele>243.12512</ele>
        <time>2021-03-14T10:03:38Z</time>
      </trkpt>
      <trkpt lat="45.55357" lon="4.84118">
        <ele>243.59016</ele>
        <time>2021-03-14T10:03:40Z</time>
      </trkpt>
      <trkpt lat="45.55363" lon="4.84121">
        <ele>243.16211</ele>
        <time>2021-03-14T10:03:42Z</time>
      </trkpt>
      <trkpt lat="45.55368" lon="4.84126">
        <ele>242.66006</ele>
        <time>2021-03-14T10:03:44Z</time>
      </trkpt>
      <trkpt lat="45.55373" lon="4.8413">
        <ele>243.09341</ele>
        <time>2021-03-14T10:03:46Z</time>
      </trkpt>
      <trkpt lat="45.55378" lon="4.84132">
        <ele>243.36292</ele>
        <time>2021-03-14T10:03:48Z</time>
      </trkpt>
      <trkpt lat="45.55383" lon="4.84135">
        <ele>242.9243</ele>
        <time>2021-03-14T10:03:50Z</time>
      </trkpt>
      <trkpt lat="45.55387" lon="4.84139">
        <ele>242.70235</ele>
        <time>2021-03-14T10:03:52Z</time>
      </trkpt>
      <trkpt lat="45.55393" lon="4.84142">
        <ele>242.35356</ele>
        <time>2021-03-14T10:03:54Z</time>
      </trkpt>
      <trkpt lat="45.55397" lon="4.84145">
        <ele>241.74054</ele>
        <time>2021-03-14T10:03:56Z</time>
      </trkpt>
      <trkpt lat="45.55402" lon="4.84147">
        <ele>242.10518</ele>
        <time>2021-03-14T10:03:58Z</time>
      </trkpt>
      <trkpt lat="45.55407" lon="4.8415">
        <ele>242.17389</ele>
        <time>2021-03-14T10:04:00Z</time>
      </trkpt>
      <trkpt lat="45.55413" lon="4.84152">
        <ele>242.04704</ele>
        <time>2021-03-14T10:04:02Z</time>
      </trkpt>
      <trkpt lat="45.55418" lon="4.84153">
        <ele>241.9995</ele>
        <time>2021-03-14T10:04:04Z</time>
      </trkpt>
      <trkpt lat="45.55424" lon="4.84153">
        <ele>242.4064</ele>
        <time>2021-03-14T10:04:06Z</time>
      </trkpt>
      <trkpt lat="45.5543" lon="4.84151">
        <ele>242.03648</ele>
        <time>2021-03-14T10:04:08Z</time>
      </trkpt>
      <trkpt lat="45.55435" lon="4.84148">
        <ele>242.6865</ele>
        <time>2021-03-14T10:04:10Z</time>
      </trkpt>
      <trkpt lat="45.55441" lon="4.84144">
        <ele>243.05113</ele>
        <time>2021-03-14T10:04:12Z</time>
      </trkpt>
      <trkpt lat="45.55445" lon="4.8414">
        <ele>242.94014</ele>
        <time>2021-03-14T10:04:14Z</time>
      </trkpt>
      <trkpt lat="45.55449" lon="4.84135">
        <ele>243.77513</ele>
        <time>2021-03-14T10:04:16Z</time>
      </trkpt>
      <trkpt lat="45.55453" lon="4.84132">
        <ele>244.38814</ele>
        <time>2021-03-14T10:04:18Z</time>
      </trkpt>
      <trkpt lat="45.55458" lon="4.84129">
        <ele>244.74751</ele>
        <time>2021-03-14T10:04:20Z</time>
      </trkpt>
      <trkpt lat="45.55462" lon="4.84126">
        <ele>242.59135</ele>
        <time>2021-03-14T10:04:22Z</time>
      </trkpt>
      <trkpt lat="45.55467" lon="4.84123">
        <ele>241.77753</ele>
        <time>2021-03-14T10:04:24Z</time>
      </trkpt>
      <trkpt lat="45.55471" lon="4.8412">
        <ele>241.66655</ele>
        <time>2021-03-14T10:04:26Z</time>
      </trkpt>
      <trkpt lat="45.55476" lon="4.84117">
        <ele>241.33363</ele>
        <time>2021-03-14T10:04:28Z</time>
      </trkpt>
      <trkpt lat="45.55483" lon="4.84115">
        <ele>241.36006</ele>
        <time>2021-03-14T10:04:30Z</time>
      </trkpt>
      <trkpt lat="45.55488" lon="4.84112">
        <ele>241.38646</ele>
        <time>2021-03-14T10:04:32Z</time>
      </trkpt>
      <trkpt lat="45.55493" lon="4.84109">
        <ele>241.11696</ele>
        <time>2021-03-14T10:04:34Z</time>
      </trkpt>
      <trkpt lat="45.55498" lon="4.84105">
        <ele>241.00069</ele>
        <time>2021-03-14T10:04:36Z</time>
      </trkpt>
      <trkpt lat="45.55502" lon="4.84103">
        <ele>240.57791</ele>
        <time>2021-03-14T10:04:38Z</time>
      </trkpt>
      <trkpt lat="45.55508" lon="4.84101">
        <ele>239.94904</ele>
        <time>2021-03-14T10:04:40Z</time>
      </trkpt>
      <trkpt lat="45.55513" lon="4.84098">
        <ele>239.16164</ele>
        <time>2021-03-14T10:04:42Z</time>
      </trkpt>
      <trkpt lat="45.55519" lon="4.84098">
        <ele>238.93968</ele>
        <time>2021-03-14T10:04:44Z</time>
      </trkpt>
      <trkpt lat="45.55526" lon="4.84102">
        <ele>238.96082</ele>
        <time>2021-03-14T10:04:46Z</time>
      </trkpt>
      <trkpt lat="45.55531" lon="4.84104">
        <ele>238.67017</ele>
        <time>2021-03-14T10:04:48Z</time>
      </trkpt>
      <trkpt lat="45.55537" lon="4.84109">
        <ele>238.797</ele>
        <time>2021-03-14T10:04:50Z</time>
      </trkpt>
      <trkpt lat="45.55543" lon="4.84112">
        <ele>239.18806</ele>
        <time>2021-03-14T10:04:52Z</time>
      </trkpt>
      <trkpt lat="45.55549" lon="4.84114">
        <ele>239.09293</ele>
        <time>2021-03-14T10:04:54Z</time>
      </trkpt>
      <trkpt lat="45.55555" lon="4.84115">
        <ele>239.17749</ele>
        <time>2021-03-14T10:04:56Z</time>
      </trkpt>
      <trkpt lat="45.55561" lon="4.84117">
        <ele>239.37302</ele>
        <time>2021-03-14T10:04:58Z</time>
      </trkpt>
      <trkpt lat="45.55567" lon="4.84117">
        <ele>239.63196</ele>
        <time>2021-03-14T10:05:00Z</time>
      </trkpt>
      <trkpt lat="45.55573" lon="4.84118">
        <ele>240.00717</ele>
        <time>2021-03-14T10:05:02Z</time>
      </trkpt>
      <trkpt lat="45.55578" lon="4.84119">
        <ele>240.50922</ele>
        <time>2021-03-14T10:05:04Z</time>
      </trkpt>
      <trkpt lat="45.55584" lon="4.84119">
        <ele>240.73119</ele>
        <time>2021-03-14T10:05:06Z</time>
      </trkpt>
      <trkpt lat="45.5559" lon="4.84119">
        <ele>240.76817</ele>
        <time>2021-03-14T10:05:08Z</time>
      </trkpt>
      <trkpt lat="45.55597" lon="4.84119">
        <ele>241.66655</ele>
        <time>2021-03-14T10:05:10Z</time>
      </trkpt>
      <trkpt lat="45.55603" lon="4.84119">
        <ele>241.93608</ele>
        <time>2021-03-14T10:05:12Z</time>
      </trkpt>
      <trkpt lat="45.55608" lon="4.84118">
        <ele>241.97835</ele>
        <time>2021-03-14T10:05:14Z</time>
      </trkpt>
      <trkpt lat="45.55614" lon="4.84118">
        <ele>242.25844</ele>
        <time>2021-03-14T10:05:16Z</time>
      </trkpt>
      <trkpt lat="45.55619" lon="4.84117">
        <ele>242.92958</ele>
        <time>2021-03-14T10:05:18Z</time>
      </trkpt>
      <trkpt lat="45.55625" lon="4.84117">
        <ele>243.36292</ele>
        <time>2021-03-14T10:05:20Z</time>
      </trkpt>
      <trkpt lat="45.55629" lon="4.84117">
        <ele>243.5479</ele>
        <time>2021-03-14T10:05:22Z</time>
      </trkpt>
      <trkpt lat="45.55634" lon="4.84117">
        <ele>243.56902</ele>
        <time>2021-03-14T10:05:24Z</time>
      </trkpt>
      <trkpt lat="45.5564" lon="4.84117">
        <ele>243.78569</ele>
        <time>2021-03-14T10:05:26Z</time>
      </trkpt>
      <trkpt lat="45.55645" lon="4.84116">
        <ele>244.04993</ele>
        <time>2021-03-14T10:05:28Z</time>
      </trkpt>
      <trkpt lat="45.5565" lon="4.84116">
        <ele>244.1609</ele>
        <time>2021-03-14T10:05:30Z</time>
      </trkpt>
      <trkpt lat="45.55656" lon="4.84119">
        <ele>243.4739</ele>
        <time>2021-03-14T10:05:32Z</time>
      </trkpt>
      <trkpt lat="45.55661" lon="4.84122">
        <ele>242.7182</ele>
        <time>2021-03-14T10:05:34Z</time>
      </trkpt>
      <trkpt lat="45.55668" lon="4.84127">
        <ele>241.95192</ele>
        <time>2021-03-14T10:05:36Z</time>
      </trkpt>
      <trkpt lat="45.55673" lon="4.84132">
        <ele>240.78929</ele>
        <time>2021-03-14T10:05:38Z</time>
      </trkpt>
      <trkpt lat="45.55676" lon="4.8414">
        <ele>239.88036</ele>
        <time>2021-03-14T10:05:40Z</time>
      </trkpt>
      <trkpt lat="45.55677" lon="4.84146">
        <ele>239.32018</ele>
        <time>2021-03-14T10:05:42Z</time>
      </trkpt>
      <trkpt lat="45.55681" lon="4.84153">
        <ele>239.09293</ele>
        <time>2021-03-14T10:05:44Z</time>
      </trkpt>
      <trkpt lat="45.55684" lon="4.84158">
        <ele>239.18279</ele>
        <time>2021-03-14T10:05:46Z</time>
      </trkpt>
      <trkpt lat="45.55689" lon="4.84162">
        <ele>238.88683</ele>
        <time>2021-03-14T10:05:48Z</time>
      </trkpt>
      <trkpt lat="45.55695" lon="4.84165">
        <ele>239.25148</ele>
        <time>2021-03-14T10:05:50Z</time>
      </trkpt>
      <trkpt lat="45.557" lon="4.84165">
        <ele>239.447</ele>
        <time>2021-03-14T10:05:52Z</time>
      </trkpt>
      <trkpt lat="45.55706" lon="4.84166">
        <ele>239.484</ele>
        <time>2021-03-14T10:05:54Z</time>
      </trkpt>
      <trkpt lat="45.55711" lon="4.84167">
        <ele>239.87506</ele>
        <time>2021-03-14T10:05:56Z</time>
      </trkpt>
      <trkpt lat="45.55716" lon="4.8417">
        <ele>240.51979</ele>
        <time>2021-03-14T10:05:58Z</time>
      </trkpt>
      <trkpt lat="45.55722" lon="4.84171">
        <ele>241.40761</ele>
        <time>2021-03-14T10:06:01Z</time>
      </trkpt>
      <trkpt lat="45.55728" lon="4.84175">
        <ele>242.27428</ele>
        <time>2021-03-14T10:06:04Z</time>
      </trkpt>
      <trkpt lat="45.55733" lon="4.84175">
        <ele>242.6865</ele>
        <time>2021-03-14T10:06:06Z</time>
      </trkpt>
      <trkpt lat="45.55738" lon="4.84175">
        <ele>242.97186</ele>
        <time>2021-03-14T10:06:08Z</time>
      </trkpt>
      <trkpt lat="45.55743" lon="4.84174">
        <ele>243.0987</ele>
        <time>2021-03-14T10:06:10Z</time>
      </trkpt>
      <trkpt lat="45.55749" lon="4.84173">
        <ele>243.05643</ele>
        <time>2021-03-14T10:06:12Z</time>
      </trkpt>
      <trkpt lat="45.55754" lon="4.84172">
        <ele>242.80275</ele>
        <time>2021-03-14T10:06:14Z</time>
      </trkpt>
      <trkpt lat="45.5576" lon="4.84174">
        <ele>242.35884</ele>
        <time>2021-03-14T10:06:16Z</time>
      </trkpt>
      <trkpt lat="45.55765" lon="4.84175">
        <ele>242.70763</ele>
        <time>2021-03-14T10:06:18Z</time>
      </trkpt>
      <trkpt lat="45.55771" lon="4.84176">
        <ele>242.07875</ele>
        <time>2021-03-14T10:06:20Z</time>
      </trkpt>
      <trkpt lat="45.55777" lon="4.84177">
        <ele>241.84622</ele>
        <time>2021-03-14T10:06:22Z</time>
      </trkpt>
      <trkpt lat="45.55784" lon="4.84178">
        <ele>241.2385</ele>
        <time>2021-03-14T10:06:24Z</time>
      </trkpt>
      <trkpt lat="45.55788" lon="4.84179">
        <ele>241.87265</ele>
        <time>2021-03-14T10:06:26Z</time>
      </trkpt>
      <trkpt lat="45.55793" lon="4.8418">
        <ele>241.33891</ele>
        <time>2021-03-14T10:06:28Z</time>
      </trkpt>
      <trkpt lat="45.55798" lon="4.84181">
        <ele>241.27548</ele>
        <time>2021-03-14T10:06:30Z</time>
      </trkpt>
      <trkpt lat="45.55807" lon="4.84182">
        <ele>241.9255</ele>
        <time>2021-03-14T10:06:34Z</time>
      </trkpt>
      <trkpt lat="45.55813" lon="4.84183">
        <ele>241.32834</ele>
        <time>2021-03-14T10:06:36Z</time>
      </trkpt>
      <trkpt lat="45.55819" lon="4.84185">
        <ele>241.2702</ele>
        <time>2021-03-14T10:06:38Z</time>
      </trkpt>
      <trkpt lat="45.55824" lon="4.84185">
        <ele>240.85272</ele>
        <time>2021-03-14T10:06:40Z</time>
      </trkpt>
      <trkpt lat="45.5583" lon="4.84186">
        <ele>240.30841</ele>
        <time>2021-03-14T10:06:42Z</time>
      </trkpt>
      <trkpt lat="45.55834" lon="4.84187">
        <ele>239.88036</ele>
        <time>2021-03-14T10:06:44Z</time>
      </trkpt>
      <trkpt lat="45.55838" lon="4.84192">
        <ele>238.97667</ele>
        <time>2021-03-14T10:06:46Z</time>
      </trkpt>
      <trkpt lat="45.55843" lon="4.84197">
        <ele>238.64903</ele>
        <time>2021-03-14T10:06:48Z</time>
      </trkpt>
      <trkpt lat="45.55847" lon="4.84204">
        <ele>239.07181</ele>
        <time>2021-03-14T10:06:50Z</time>
      </trkpt>
      <trkpt lat="45.55848" lon="4.84212">
        <ele>239.20918</ele>
        <time>2021-03-14T10:06:52Z</time>
      </trkpt>
      <trkpt lat="45.5585" lon="4.84221">
        <ele>239.53685</ele>
        <time>2021-03-14T10:06:54Z</time>
      </trkpt>
      <trkpt lat="45.55851" lon="4.84227">
        <ele>238.80228</ele>
        <time>2021-03-14T10:06:56Z</time>
      </trkpt>
      <trkpt lat="45.55851" lon="4.84235">
        <ele>238.61732</ele>
        <time>2021-03-14T10:06:58Z</time>
      </trkpt>
      <trkpt lat="45.55852" lon="4.84243">
        <ele>239.23561</ele>
        <time>2021-03-14T10:07:00Z</time>
      </trkpt>
      <trkpt lat="45.55853" lon="4.8425">
        <ele>238.88155</ele>
        <time>2021-03-14T10:07:02Z</time>
      </trkpt>
      <trkpt lat="45.55855" lon="4.84257">
        <ele>238.6966</ele>
        <time>2021-03-14T10:07:04Z</time>
      </trkpt>
      <trkpt lat="45.55856" lon="4.84264">
        <ele>238.6226</ele>
        <time>2021-03-14T10:07:06Z</time>
      </trkpt>
      <trkpt lat="45.55858" lon="4.84273">
        <ele>238.58034</ele>
        <time>2021-03-14T10:07:08Z</time>
      </trkpt>
      <trkpt lat="45.55859" lon="4.8428">
        <ele>238.5222</ele>
        <time>2021-03-14T10:07:10Z</time>
      </trkpt>
      <trkpt lat="45.55861" lon="4.84288">
        <ele>238.9344</ele>
        <time>2021-03-14T10:07:12Z</time>
      </trkpt>
      <trkpt lat="45.55863" lon="4.84295">
        <ele>239.8275</ele>
        <time>2021-03-14T10:07:14Z</time>
      </trkpt>
      <trkpt lat="45.55869" lon="4.84298">
        <ele>239.78523</ele>
        <time>2021-03-14T10:07:17Z</time>
      </trkpt>
      <trkpt lat="45.55874" lon="4.84297">
        <ele>239.50514</ele>
        <time>2021-03-14T10:07:19Z</time>
      </trkpt>
      <trkpt lat="45.55879" lon="4.84296">
        <ele>239.2779</ele>
        <time>2021-03-14T10:07:21Z</time>
      </trkpt>
      <trkpt lat="45.55885" lon="4.84296">
        <ele>238.60146</ele>
        <time>2021-03-14T10:07:23Z</time>
      </trkpt>
      <trkpt lat="45.5589" lon="4.84295">
        <ele>238.56975</ele>
        <time>2021-03-14T10:07:25Z</time>
      </trkpt>
      <trkpt lat="45.55895" lon="4.84294">
        <ele>237.6978</ele>
        <time>2021-03-14T10:07:27Z</time>
      </trkpt>
      <trkpt lat="45.559" lon="4.84293">
        <ele>237.33315</ele>
        <time>2021-03-14T10:07:29Z</time>
      </trkpt>
      <trkpt lat="45.55905" lon="4.84291">
        <ele>237.70308</ele>
        <time>2021-03-14T10:07:31Z</time>
      </trkpt>
      <trkpt lat="45.55911" lon="4.8429">
        <ele>237.22745</ele>
        <time>2021-03-14T10:07:33Z</time>
      </trkpt>
      <trkpt lat="45.55916" lon="4.84289">
        <ele>237.22745</ele>
        <time>2021-03-14T10:07:35Z</time>
      </trkpt>
      <trkpt lat="45.55921" lon="4.84288">
        <ele>236.70956</ele>
        <time>2021-03-14T10:07:37Z</time>
      </trkpt>
      <trkpt lat="45.55926" lon="4.84287">
        <ele>236.75185</ele>
        <time>2021-03-14T10:07:39Z</time>
      </trkpt>
      <trkpt lat="45.55932" lon="4.84287">
        <ele>237.09534</ele>
        <time>2021-03-14T10:07:41Z</time>
      </trkpt>
      <trkpt lat="45.55938" lon="4.84287">
        <ele>236.12297</ele>
        <time>2021-03-14T10:07:44Z</time>
      </trkpt>
      <trkpt lat="45.55945" lon="4.84286">
        <ele>235.54166</ele>
        <time>2021-03-14T10:07:47Z</time>
      </trkpt>
      <trkpt lat="45.55951" lon="4.84285">
        <ele>235.75304</ele>
        <time>2021-03-14T10:07:49Z</time>
      </trkpt>
      <trkpt lat="45.55957" lon="4.84284">
        <ele>235.30385</ele>
        <time>2021-03-14T10:07:51Z</time>
      </trkpt>
      <trkpt lat="45.55962" lon="4.84284">
        <ele>235.74776</ele>
        <time>2021-03-14T10:07:53Z</time>
      </trkpt>
      <trkpt lat="45.55967" lon="4.84284">
        <ele>235.12418</ele>
        <time>2021-03-14T10:07:55Z</time>
      </trkpt>
      <trkpt lat="45.55973" lon="4.84283">
        <ele>235.65265</ele>
        <time>2021-03-14T10:07:57Z</time>
      </trkpt>
      <trkpt lat="45.55978" lon="4.84282">
        <ele>234.78595</ele>
        <time>2021-03-14T10:07:59Z</time>
      </trkpt>
      <trkpt lat="45.55983" lon="4.84281">
        <ele>234.75424</ele>
        <time>2021-03-14T10:08:01Z</time>
      </trkpt>
      <trkpt lat="45.55988" lon="4.84279">
        <ele>234.84938</ele>
        <time>2021-03-14T10:08:03Z</time>
      </trkpt>
      <trkpt lat="45.55993" lon="4.84277">
        <ele>234.75424</ele>
        <time>2021-03-14T10:08:05Z</time>
      </trkpt>
      <trkpt lat="45.55999" lon="4.84276">
        <ele>233.58635</ele>
        <time>2021-03-14T10:08:07Z</time>
      </trkpt>
      <trkpt lat="45.56006" lon="4.84278">
        <ele>233.93513</ele>
        <time>2021-03-14T10:08:09Z</time>
      </trkpt>
      <trkpt lat="45.56011" lon="4.84279">
        <ele>233.99855</ele>
        <time>2021-03-14T10:08:11Z</time>
      </trkpt>
      <trkpt lat="45.56017" lon="4.84281">
        <ele>233.74487</ele>
        <time>2021-03-14T10:08:13Z</time>
      </trkpt>
      <trkpt lat="45.56022" lon="4.84282">
        <ele>233.48593</ele>
        <time>2021-03-14T10:08:15Z</time>
      </trkpt>
      <trkpt lat="45.56027" lon="4.84283">
        <ele>233.54935</ele>
        <time>2021-03-14T10:08:17Z</time>
      </trkpt>
      <trkpt lat="45.56031" lon="4.84284">
        <ele>231.7103</ele>
        <time>2021-03-14T10:08:20Z</time>
      </trkpt>
      <trkpt lat="45.56034" lon="4.84282">
        <ele>232.89934</ele>
        <time>2021-03-14T10:08:26Z</time>
      </trkpt>
      <trkpt lat="45.56034" lon="4.84282">
        <ele>232.89934</ele>
        <time>2021-03-14T10:08:26Z</time>
      </trkpt>
    </trkseg>
  </trk>
</gpx>